[[{"header":{"parameterUnit":"m.s-1","parameterCategory":1,"la1":30.6,"la2":29.2853,"lo1":-89.7004,"lo2":-87.6739,"dx":0.0162,"dy":0.0183,"nx":112,"ny":82,"refTime":"2022-11-25T06:00:00:Z","depth":0,"parameterNumber":2,"parameterNumberName":"U-component_of_WINDS"},"data":[0.0,0.0,0.0,0.0,0.0,0.0,0.0,0.0,0.0,0.0,0.0,0.0,0.0,0.0,0.0,0.0,0.0,0.0,0.0,0.0,0.0,0.0,0.0,0.0,0.0,0.0,0.0,0.0,0.0,0.0,0.0,0.0,0.0,0.0,0.0,0.0,0.0,0.0,0.0,0.0,0.0,0.0,0.0,0.0,0.0,0.0,0.0,0.0,0.0,0.0,0.0,0.0,0.0,0.0,0.0,0.0,0.0,0.0,0.0,0.0,0.0,0.0,0.0,0.0,0.0,0.0,0.0,0.0,0.0,0.0,0.0,0.0,0.0,0.0,0.0,0.0,0.0,0.0,0.0,0.0,0.0,0.0,0.0,0.0,0.0,0.0,0.0,0.0,0.0,0.0,-2.8242,-2.8379,-2.8711,-2.8769,-2.8418,-2.8398,-2.8047,-2.7266,0.0,0.0,0.0,0.0,0.0,0.0,0.0,0.0,0.0,0.0,0.0,0.0,0.0,0.0,0.0,0.0,0.0,0.0,0.0,0.0,0.0,0.0,0.0,0.0,0.0,0.0,0.0,0.0,0.0,0.0,0.0,0.0,0.0,0.0,0.0,0.0,0.0,0.0,0.0,0.0,0.0,0.0,0.0,0.0,0.0,0.0,0.0,0.0,0.0,0.0,0.0,0.0,0.0,0.0,0.0,0.0,0.0,0.0,0.0,0.0,0.0,0.0,0.0,0.0,0.0,0.0,0.0,0.0,0.0,0.0,0.0,0.0,0.0,0.0,0.0,0.0,0.0,0.0,0.0,0.0,0.0,0.0,0.0,0.0,0.0,0.0,0.0,0.0,0.0,0.0,0.0,0.0,0.0,0.0,0.0,0.0,0.0,0.0,0.0,0.0,0.0,0.0,0.0,0.0,-2.8027,-2.875,-2.8887,-2.8887,-2.8828,-2.8828,-2.8613,-2.8125,0.0,0.0,0.0,0.0,0.0,0.0,0.0,0.0,0.0,0.0,0.0,0.0,0.0,0.0,0.0,0.0,0.0,0.0,0.0,0.0,0.0,0.0,0.0,0.0,0.0,0.0,0.0,0.0,0.0,0.0,0.0,0.0,0.0,0.0,0.0,0.0,0.0,0.0,0.0,0.0,0.0,0.0,0.0,0.0,0.0,0.0,0.0,0.0,0.0,0.0,0.0,0.0,0.0,0.0,0.0,0.0,0.0,0.0,0.0,0.0,0.0,0.0,0.0,0.0,0.0,0.0,0.0,0.0,0.0,0.0,0.0,0.0,0.0,0.0,0.0,0.0,0.0,0.0,0.0,0.0,0.0,0.0,0.0,0.0,0.0,0.0,0.0,0.0,0.0,0.0,0.0,0.0,0.0,0.0,0.0,0.0,0.0,0.0,0.0,0.0,0.0,0.0,0.0,-2.8454,-2.9292,-2.895,-2.9527,-2.9883,-2.9629,-2.9394,-2.8984,-2.834,-2.7734,0.0,0.0,0.0,0.0,0.0,0.0,0.0,0.0,0.0,0.0,0.0,0.0,0.0,0.0,0.0,0.0,0.0,0.0,0.0,0.0,0.0,0.0,0.0,0.0,0.0,0.0,0.0,0.0,0.0,0.0,0.0,0.0,0.0,0.0,0.0,0.0,0.0,0.0,0.0,0.0,0.0,0.0,0.0,0.0,0.0,0.0,0.0,0.0,0.0,0.0,0.0,0.0,0.0,0.0,0.0,0.0,0.0,0.0,0.0,0.0,0.0,0.0,0.0,0.0,0.0,0.0,0.0,0.0,0.0,0.0,0.0,0.0,0.0,0.0,0.0,0.0,0.0,0.0,0.0,0.0,0.0,0.0,0.0,0.0,0.0,0.0,0.0,0.0,0.0,0.0,0.0,0.0,0.0,0.0,0.0,0.0,0.0,0.0,0.0,0.0,0.0,0.0,-2.9037,-2.9639,-2.9531,-2.9971,-3.0315,-3.0391,-2.9961,-2.9394,-2.8633,-2.8496,0.0,0.0,0.0,0.0,0.0,0.0,0.0,0.0,0.0,0.0,0.0,0.0,0.0,0.0,0.0,0.0,0.0,0.0,0.0,0.0,0.0,0.0,0.0,0.0,0.0,0.0,0.0,0.0,0.0,0.0,0.0,0.0,0.0,0.0,0.0,0.0,0.0,0.0,0.0,0.0,0.0,0.0,0.0,0.0,0.0,0.0,0.0,0.0,0.0,0.0,0.0,0.0,0.0,0.0,0.0,0.0,0.0,0.0,0.0,0.0,0.0,0.0,0.0,0.0,0.0,0.0,0.0,0.0,0.0,0.0,0.0,0.0,0.0,0.0,0.0,0.0,0.0,0.0,0.0,0.0,0.0,0.0,0.0,0.0,0.0,0.0,0.0,0.0,0.0,0.0,0.0,0.0,0.0,0.0,0.0,0.0,0.0,0.0,0.0,0.0,0.0,0.0,-2.7529,-2.747,-3.0969,-2.9576,-2.908,-3.0723,-3.041,-2.9961,-2.9567,-2.9101,0.0,0.0,0.0,0.0,0.0,0.0,0.0,0.0,0.0,0.0,0.0,0.0,0.0,0.0,0.0,0.0,0.0,0.0,0.0,0.0,0.0,0.0,0.0,0.0,0.0,0.0,0.0,0.0,0.0,0.0,0.0,0.0,0.0,0.0,0.0,0.0,0.0,0.0,0.0,0.0,0.0,0.0,0.0,0.0,0.0,0.0,0.0,0.0,0.0,0.0,0.0,0.0,0.0,0.0,0.0,0.0,0.0,0.0,0.0,0.0,0.0,0.0,0.0,0.0,0.0,0.0,0.0,0.0,0.0,0.0,0.0,0.0,0.0,0.0,0.0,0.0,0.0,0.0,0.0,0.0,0.0,0.0,0.0,0.0,0.0,0.0,0.0,0.0,0.0,0.0,0.0,0.0,0.0,0.0,0.0,0.0,0.0,0.0,0.0,0.0,0.0,0.0,-2.6352,-2.752,0.0,-2.9449,-3.0162,-3.1949,-3.168,-3.1016,-3.0019,0.0,0.0,0.0,0.0,0.0,0.0,0.0,0.0,0.0,0.0,0.0,0.0,0.0,0.0,0.0,0.0,0.0,0.0,0.0,0.0,0.0,0.0,0.0,0.0,0.0,0.0,0.0,0.0,0.0,0.0,0.0,0.0,0.0,0.0,0.0,0.0,0.0,0.0,0.0,0.0,0.0,0.0,0.0,0.0,0.0,0.0,0.0,0.0,0.0,0.0,0.0,0.0,0.0,0.0,0.0,0.0,0.0,0.0,0.0,0.0,0.0,0.0,0.0,0.0,0.0,0.0,0.0,0.0,0.0,0.0,0.0,0.0,0.0,0.0,0.0,0.0,0.0,0.0,0.0,0.0,0.0,0.0,0.0,0.0,0.0,0.0,0.0,0.0,0.0,0.0,0.0,0.0,0.0,0.0,0.0,0.0,0.0,0.0,0.0,0.0,0.0,0.0,-2.4425,-2.5334,-2.693,0.0,-2.9453,-3.0456,-3.2801,-3.248,-3.1601,-3.0273,0.0,0.0,0.0,0.0,0.0,0.0,0.0,0.0,0.0,0.0,0.0,0.0,0.0,0.0,0.0,0.0,0.0,0.0,0.0,0.0,0.0,0.0,0.0,0.0,0.0,0.0,0.0,0.0,0.0,0.0,0.0,0.0,0.0,0.0,0.0,0.0,0.0,0.0,0.0,0.0,0.0,0.0,0.0,0.0,0.0,0.0,0.0,0.0,0.0,0.0,0.0,0.0,0.0,0.0,0.0,0.0,0.0,0.0,0.0,0.0,0.0,0.0,0.0,0.0,0.0,0.0,0.0,0.0,0.0,0.0,0.0,0.0,0.0,0.0,0.0,0.0,0.0,0.0,0.0,0.0,0.0,0.0,0.0,0.0,0.0,0.0,0.0,0.0,0.0,0.0,0.0,0.0,0.0,0.0,0.0,0.0,0.0,0.0,0.0,0.0,0.0,0.0,-2.6042,-2.4313,-2.5242,-3.1219,-2.9543,-2.9492,-3.3102,-3.2656,-3.1621,0.0,0.0,0.0,0.0,0.0,0.0,0.0,0.0,0.0,0.0,0.0,0.0,0.0,0.0,0.0,0.0,0.0,0.0,0.0,0.0,0.0,0.0,0.0,0.0,0.0,0.0,0.0,0.0,0.0,0.0,0.0,0.0,0.0,0.0,0.0,0.0,0.0,0.0,0.0,0.0,0.0,0.0,0.0,0.0,0.0,0.0,0.0,0.0,0.0,0.0,0.0,0.0,0.0,0.0,0.0,0.0,0.0,0.0,0.0,0.0,0.0,0.0,0.0,0.0,0.0,0.0,0.0,0.0,0.0,0.0,0.0,0.0,0.0,0.0,0.0,0.0,0.0,0.0,0.0,0.0,0.0,0.0,0.0,0.0,0.0,0.0,0.0,0.0,0.0,0.0,0.0,0.0,0.0,0.0,0.0,0.0,0.0,0.0,0.0,0.0,0.0,0.0,0.0,-2.3085,-2.335,-2.5211,-2.9561,-2.9026,-2.9872,-3.3611,-3.3379,-3.2383,-3.0781,0.0,0.0,0.0,0.0,0.0,0.0,0.0,0.0,0.0,0.0,0.0,0.0,0.0,0.0,0.0,0.0,0.0,0.0,0.0,0.0,0.0,0.0,0.0,0.0,0.0,0.0,0.0,0.0,0.0,0.0,0.0,0.0,0.0,0.0,0.0,0.0,0.0,0.0,0.0,0.0,0.0,0.0,0.0,0.0,0.0,0.0,0.0,0.0,0.0,0.0,0.0,0.0,0.0,0.0,0.0,0.0,0.0,0.0,0.0,0.0,0.0,0.0,0.0,0.0,0.0,0.0,0.0,0.0,0.0,0.0,0.0,0.0,0.0,0.0,0.0,0.0,0.0,0.0,0.0,0.0,0.0,0.0,0.0,0.0,0.0,0.0,0.0,0.0,0.0,0.0,0.0,0.0,0.0,0.0,0.0,0.0,0.0,0.0,0.0,0.0,0.0,0.0,-2.173,-2.2914,-2.4989,-2.7981,-2.8773,-3.0224,-3.3218,-3.3707,-3.3359,-3.1992,0.0,0.0,0.0,0.0,0.0,0.0,0.0,0.0,0.0,0.0,0.0,0.0,0.0,0.0,0.0,0.0,0.0,0.0,0.0,0.0,0.0,0.0,0.0,0.0,0.0,0.0,0.0,0.0,0.0,0.0,0.0,0.0,0.0,0.0,0.0,0.0,0.0,0.0,0.0,0.0,0.0,0.0,0.0,0.0,0.0,0.0,0.0,0.0,0.0,0.0,0.0,0.0,0.0,0.0,0.0,0.0,0.0,0.0,0.0,0.0,0.0,0.0,0.0,0.0,0.0,0.0,0.0,0.0,0.0,0.0,0.0,0.0,0.0,0.0,0.0,0.0,0.0,0.0,0.0,0.0,0.0,0.0,0.0,0.0,0.0,0.0,0.0,0.0,0.0,0.0,0.0,0.0,0.0,0.0,0.0,0.0,0.0,0.0,0.0,0.0,0.0,0.0,-2.1628,-2.2913,-2.4715,-2.6855,-2.8467,-3.0199,-3.2078,-3.3442,-3.3796,-3.295,0.0,0.0,0.0,0.0,0.0,0.0,0.0,0.0,0.0,0.0,0.0,0.0,0.0,0.0,0.0,0.0,0.0,0.0,0.0,0.0,0.0,0.0,0.0,0.0,0.0,0.0,0.0,0.0,0.0,0.0,0.0,0.0,0.0,0.0,0.0,0.0,0.0,0.0,0.0,0.0,0.0,0.0,0.0,0.0,0.0,0.0,0.0,0.0,0.0,0.0,0.0,0.0,0.0,0.0,0.0,0.0,0.0,0.0,0.0,0.0,-2.6253,0.0,0.0,0.0,0.0,0.0,0.0,0.0,0.0,0.0,0.0,0.0,0.0,0.0,0.0,0.0,0.0,0.0,0.0,0.0,0.0,0.0,0.0,0.0,0.0,0.0,0.0,0.0,0.0,0.0,0.0,0.0,0.0,0.0,0.0,0.0,0.0,0.0,0.0,0.0,0.0,0.0,-2.1884,-2.3394,-2.518,-2.7169,-2.7417,-2.817,-3.0129,-3.0275,-2.9867,-2.9068,-2.8406,0.0,0.0,0.0,0.0,0.0,0.0,0.0,0.0,0.0,0.0,0.0,0.0,0.0,0.0,0.0,0.0,0.0,0.0,0.0,0.0,0.0,0.0,0.0,0.0,0.0,0.0,0.0,0.0,0.0,0.0,0.0,0.0,0.0,0.0,0.0,0.0,0.0,0.0,0.0,0.0,0.0,0.0,0.0,0.0,0.0,0.0,0.0,0.0,0.0,0.0,0.0,0.0,0.0,0.0,0.0,0.0,0.0,0.0,0.0,0.0,-2.544,0.0,0.0,0.0,0.0,0.0,0.0,0.0,0.0,0.0,0.0,0.0,0.0,0.0,0.0,0.0,0.0,0.0,0.0,0.0,0.0,0.0,0.0,0.0,0.0,0.0,0.0,0.0,0.0,0.0,0.0,0.0,0.0,0.0,0.0,0.0,0.0,0.0,0.0,0.0,0.0,-2.1964,-2.342,-2.4788,-2.5779,-2.6676,-2.7579,-2.8577,-2.9234,-2.9461,-2.9015,-2.7697,0.0,0.0,0.0,0.0,0.0,0.0,0.0,0.0,0.0,0.0,0.0,0.0,0.0,0.0,0.0,0.0,0.0,0.0,0.0,0.0,0.0,0.0,0.0,0.0,0.0,0.0,0.0,0.0,0.0,0.0,0.0,0.0,0.0,0.0,0.0,0.0,0.0,0.0,0.0,0.0,0.0,0.0,0.0,0.0,0.0,0.0,0.0,0.0,0.0,0.0,0.0,0.0,0.0,-2.2271,-2.2298,-2.2311,-2.2539,-2.2792,-2.3172,-2.4675,-2.5439,-2.566,-2.503,0.0,0.0,0.0,0.0,0.0,0.0,0.0,0.0,0.0,0.0,0.0,0.0,0.0,0.0,0.0,0.0,0.0,0.0,0.0,0.0,0.0,0.0,0.0,0.0,-2.2485,-2.2458,-2.1724,0.0,0.0,0.0,0.0,0.0,0.0,0.0,0.0,0.0,0.0,0.0,-2.2178,-2.342,-2.4275,-2.4275,-2.5923,-2.6997,-2.6997,-2.8413,-2.9313,-2.9313,-2.7205,-2.6276,0.0,0.0,0.0,0.0,0.0,0.0,0.0,0.0,0.0,0.0,0.0,0.0,0.0,0.0,0.0,0.0,0.0,0.0,0.0,0.0,0.0,0.0,0.0,0.0,0.0,0.0,0.0,0.0,0.0,0.0,0.0,0.0,-2.6928,-2.573,0.0,0.0,0.0,0.0,0.0,0.0,0.0,0.0,0.0,0.0,0.0,0.0,0.0,-2.4231,-2.3147,-2.3282,-2.3348,-2.3153,-2.3407,-2.3541,-2.3541,-2.3581,-2.3621,-2.3718,-2.3895,0.0,-2.368,-2.3612,0.0,0.0,0.0,0.0,0.0,0.0,0.0,0.0,0.0,0.0,0.0,0.0,0.0,0.0,0.0,0.0,0.0,0.0,0.0,0.0,0.0,0.0,-2.3487,-2.3527,-2.3567,-2.3567,0.0,-2.2605,-2.1844,-2.1764,-2.175,0.0,0.0,0.0,0.0,0.0,0.0,0.0,-2.3073,-2.3981,-2.4583,-2.4583,-2.483,-2.4991,-2.4991,-2.5212,-2.5345,-2.5345,-2.5016,-2.4521,-2.3914,-2.4224,0.0,0.0,0.0,0.0,0.0,0.0,0.0,0.0,0.0,0.0,0.0,0.0,0.0,0.0,0.0,0.0,0.0,0.0,0.0,0.0,0.0,0.0,0.0,0.0,0.0,0.0,0.0,0.0,0.0,-2.6255,-2.5789,-2.5304,-2.4471,-2.4246,0.0,0.0,0.0,0.0,0.0,0.0,0.0,0.0,0.0,-2.3926,-2.4107,-2.3997,-2.3607,-2.3915,-2.4062,-2.4062,-2.4195,-2.4262,-2.4262,-2.4262,-2.4262,-2.4262,-2.4262,-2.4182,-2.4022,-2.3527,-2.3166,-2.2913,0.0,0.0,0.0,0.0,-2.2552,-2.2418,-2.2819,-2.2886,-2.2712,-2.2539,0.0,0.0,0.0,0.0,0.0,0.0,0.0,0.0,0.0,0.0,-2.3848,-2.4182,-2.4262,-2.4262,-2.4262,-2.3848,-2.3273,0.0,-2.2485,-2.2191,-2.1269,0.0,0.0,0.0,0.0,-2.3086,-2.3514,-2.4195,-2.4636,-2.4636,-2.4636,-2.4636,-2.4636,-2.4636,-2.4636,-2.4636,-2.4636,-2.4462,-2.4075,-2.4008,-2.342,0.0,0.0,0.0,0.0,0.0,0.0,0.0,0.0,0.0,0.0,0.0,0.0,0.0,0.0,0.0,0.0,0.0,0.0,0.0,0.0,0.0,0.0,0.0,0.0,0.0,0.0,0.0,0.0,-2.4663,-2.4756,-2.4563,-2.3658,-2.3432,0.0,0.0,0.0,0.0,0.0,0.0,-2.4886,-2.3846,-2.334,-2.3647,-2.3875,-2.4102,-2.4315,-2.4529,-2.4636,-2.4636,-2.4636,-2.4636,-2.4636,-2.4636,-2.4636,-2.4636,-2.4636,-2.4636,-2.4583,-2.3928,-2.3621,-2.3527,-2.33,-2.3153,-2.3126,-2.3434,-2.3407,-2.3273,-2.3808,-2.3848,-2.3621,-2.3394,-2.322,-2.3088,-2.2579,0.0,0.0,0.0,0.0,-2.3327,-2.3861,-2.4048,-2.4209,-2.4649,-2.481,-2.4863,-2.4863,-2.4863,-2.4556,0.0,-2.3313,-2.2993,-2.1964,0.0,0.0,0.0,0.0,-2.3567,-2.3941,-2.4369,-2.4636,-2.4636,-2.4636,-2.4636,-2.4636,-2.4636,-2.4636,-2.4636,-2.4636,-2.4857,-2.5359,-2.4224,-2.3766,-2.4067,0.0,0.0,0.0,0.0,0.0,0.0,0.0,0.0,0.0,0.0,0.0,0.0,0.0,0.0,0.0,0.0,0.0,0.0,0.0,0.0,0.0,0.0,0.0,0.0,0.0,0.0,0.0,0.0,0.0,-2.2644,-2.2472,0.0,0.0,0.0,0.0,-2.3079,-2.3238,-2.3547,-2.3843,-2.4053,-2.4262,-2.4556,-2.4583,-2.4596,-2.4609,-2.4549,-2.4636,-2.4636,-2.4636,-2.4636,-2.4636,-2.4636,-2.4636,-2.4636,-2.4636,-2.4636,-2.4636,-2.4509,-2.4409,-2.4155,-2.4142,-2.3968,-2.3754,-2.4048,-2.4155,-2.4182,-2.4489,-2.4583,-2.4569,-2.4556,-2.4168,-2.3714,-2.3688,-2.35,0.0,0.0,-2.3915,-2.4209,-2.4516,-2.481,-2.5024,-2.505,-2.5264,-2.5464,-2.5464,-2.5464,-2.5291,0.0,-2.4543,-2.4356,-2.3741,0.0,-2.3674,-2.3661,-2.3714,-2.3955,-2.4516,-2.4549,-2.4636,-2.4636,-2.4636,-2.4636,-2.4636,-2.4636,-2.4636,-2.4636,-2.4636,-2.5419,-2.7288,-2.5524,-2.5008,-2.6025,-2.6034,0.0,0.0,0.0,0.0,0.0,0.0,0.0,0.0,0.0,0.0,0.0,0.0,0.0,0.0,0.0,0.0,0.0,0.0,0.0,0.0,0.0,0.0,0.0,0.0,0.0,0.0,0.0,0.0,-2.274,-2.3046,0.0,-2.3166,-2.35,-2.3728,-2.3728,-2.4008,-2.4209,-2.4329,-2.4422,-2.4529,-2.4636,-2.4636,-2.4636,-2.4636,-2.4636,-2.4636,-2.4562,-2.4823,-2.4917,-2.493,-2.5117,-2.5197,-2.5197,-2.5197,-2.5197,-2.5197,-2.5197,-2.4917,-2.4476,-2.4476,-2.4422,-2.4342,-2.4449,-2.4476,-2.4489,-2.4596,-2.4636,-2.4676,-2.4863,-2.4783,-2.4649,-2.4836,-2.4823,-2.4756,-2.4863,-2.497,-2.5064,-2.517,-2.5277,-2.5358,-2.5358,-2.5438,-2.5518,-2.5518,-2.5518,-2.5451,-2.5237,-2.5197,-2.501,-2.4422,-2.4636,-2.477,-2.4382,-2.4649,-2.497,-2.517,-2.5197,-2.5197,-2.5197,-2.5197,-2.5197,-2.5197,-2.5197,-2.5197,-2.5197,-2.6192,-2.7011,-2.7746,-2.8088,-2.8442,-2.8841,-2.8825,-2.8722,0.0,0.0,0.0,0.0,0.0,0.0,0.0,0.0,0.0,0.0,0.0,0.0,0.0,0.0,0.0,0.0,0.0,0.0,0.0,0.0,0.0,0.0,0.0,0.0,0.0,0.0,-2.306,-2.3153,-2.3607,-2.3848,-2.3647,-2.4062,-2.4342,-2.4342,-2.4529,-2.4636,-2.4636,-2.4636,-2.4676,-2.4783,-2.4783,-2.4836,-2.493,-2.493,-2.493,-2.493,-2.513,-2.5224,-2.5237,-2.5424,-2.5518,-2.5518,-2.5518,-2.5518,-2.5518,-2.5518,-2.5277,-2.493,-2.493,-2.493,-2.493,-2.493,-2.493,-2.493,-2.493,-2.493,-2.497,-2.5157,-2.5224,-2.5264,-2.5451,-2.5518,-2.5518,-2.5518,-2.5518,-2.5518,-2.5518,-2.5585,-2.5665,-2.5665,-2.5732,-2.5812,-2.5812,-2.5812,-2.5812,-2.5812,-2.5651,-2.5384,-2.4997,-2.5251,-2.5344,-2.4863,-2.5197,-2.5478,-2.5384,-2.5451,-2.5518,-2.5518,-2.5518,-2.5518,-2.5518,-2.5331,-2.5594,-2.6468,-2.7332,-2.8496,-3.0032,-3.0101,-3.041,-3.1041,-3.0922,-3.0883,-3.0906,0.0,0.0,0.0,0.0,0.0,0.0,0.0,0.0,0.0,0.0,0.0,0.0,0.0,0.0,0.0,0.0,0.0,0.0,0.0,0.0,0.0,0.0,0.0,-2.2498,-2.2979,-2.346,-2.3768,-2.4048,-2.4222,-2.4222,-2.4476,-2.4636,-2.4636,-2.4636,-2.4562,-2.4649,-2.4649,-2.4783,-2.5077,-2.509,-2.5224,-2.5504,-2.5518,-2.5518,-2.5518,-2.5518,-2.5531,-2.5531,-2.5531,-2.5545,-2.5545,-2.5545,-2.5545,-2.5545,-2.5545,-2.5545,-2.5545,-2.5518,-2.5518,-2.5518,-2.5518,-2.5518,-2.5518,-2.5518,-2.5518,-2.5518,-2.5518,-2.5531,-2.5531,-2.5545,-2.5545,-2.5545,-2.5545,-2.5545,-2.5545,-2.5545,-2.5758,-2.605,-2.605,-2.6186,-2.6386,-2.6386,-2.6386,-2.6386,-2.6386,-2.5932,-2.5545,-2.5545,-2.5545,-2.5451,-2.5157,-2.5358,0.0,-2.5157,-2.5371,-2.5531,-2.5531,-2.5531,-2.5531,-2.5594,-2.5072,-2.5871,-2.8537,-2.8188,-2.9913,-3.4324,-3.1542,-3.0804,-3.2629,-3.2214,-3.2699,-3.4121,0.0,0.0,0.0,0.0,0.0,0.0,0.0,0.0,0.0,0.0,0.0,0.0,0.0,0.0,0.0,0.0,0.0,0.0,0.0,0.0,0.0,-2.2939,-2.35,-2.3407,-2.3728,-2.4075,-2.4369,-2.4476,-2.4516,-2.4516,-2.4596,-2.4636,-2.4636,-2.4636,-2.473,-2.4943,-2.4957,-2.509,-2.5384,-2.5398,-2.5438,-2.5518,-2.5518,-2.5518,-2.5518,-2.5732,-2.5838,-2.5838,-2.6052,-2.6146,-2.6146,-2.6146,-2.6146,-2.6146,-2.6146,-2.6146,-2.6106,-2.5678,-2.5518,-2.5518,-2.5518,-2.5518,-2.5518,-2.5518,-2.5518,-2.5545,-2.5758,-2.5838,-2.5879,-2.6079,-2.6146,-2.6146,-2.6146,-2.6146,-2.6146,-2.6146,-2.6213,-2.6266,-2.6266,-2.6333,-2.6386,-2.6386,-2.6386,-2.6386,-2.6386,-2.6253,-2.6146,-2.6146,-2.6146,-2.6119,-2.6039,-2.6092,0.0,-2.6039,-2.6092,-2.6066,-2.5852,-2.5838,-2.643,-2.7922,-2.7915,-2.8807,-3.1269,-3.2356,-3.3506,-3.4757,-3.5055,-3.5444,-3.5972,-3.4958,-3.4671,0.0,0.0,0.0,0.0,0.0,0.0,0.0,0.0,0.0,0.0,0.0,0.0,0.0,0.0,0.0,0.0,0.0,0.0,0.0,0.0,0.0,0.0,-2.3634,-2.4142,-2.4142,-2.4275,-2.4449,-2.4609,-2.4636,-2.4636,-2.4636,-2.4636,-2.469,-2.481,-2.4823,-2.4943,-2.5251,-2.5264,-2.5398,-2.5692,-2.5692,-2.5758,-2.5879,-2.5879,-2.5879,-2.5879,-2.6052,-2.6132,-2.6146,-2.6319,-2.6386,-2.6386,-2.6386,-2.6386,-2.6386,-2.6386,-2.6386,0.0,0.0,0.0,0.0,0.0,-2.5879,-2.5879,-2.5879,-2.5879,-2.5905,-2.6079,-2.6132,-2.6172,-2.6333,-2.6386,-2.6386,-2.6386,-2.6386,-2.6386,-2.6386,-2.6386,-2.6386,-2.6386,-2.6386,-2.6386,-2.6386,-2.6386,-2.6386,-2.6386,-2.6386,0.0,-2.6386,-2.6386,-2.6346,-2.6226,-2.6306,-2.6346,-2.6226,-2.6319,-2.6319,-2.6159,-2.69,-2.7883,-2.9088,-2.973,0.0,0.0,0.0,-3.5047,-3.5638,-3.6566,0.0,0.0,0.0,0.0,0.0,0.0,0.0,0.0,-2.7461,-2.6414,0.0,0.0,0.0,0.0,0.0,0.0,0.0,0.0,0.0,0.0,0.0,0.0,0.0,0.0,0.0,0.0,-2.4275,-2.4636,-2.4636,-2.4636,-2.4636,-2.4636,-2.4636,-2.4636,-2.4636,-2.4663,-2.4796,-2.5064,-2.5104,-2.5264,-2.5545,0.0,0.0,0.0,0.0,-2.6132,-2.6386,-2.6386,-2.6386,-2.6386,-2.6386,-2.6386,-2.6386,-2.6386,-2.6386,-2.6386,-2.6386,-2.6386,-2.6386,-2.6386,-2.6386,-2.6386,-2.6386,-2.6386,-2.6386,-2.6386,-2.6386,-2.6386,-2.6386,0.0,0.0,-2.6386,-2.6386,-2.6386,-2.6386,-2.6386,-2.6386,-2.6386,-2.6386,-2.6386,-2.6386,-2.6386,-2.6386,-2.6386,-2.6386,-2.6386,-2.6386,-2.6386,-2.6386,-2.6386,-2.6386,-2.6386,-2.6386,-2.6386,-2.6306,-2.6039,-2.6226,-2.6293,-2.6117,-2.6226,-2.6373,-2.6346,0.0,0.0,-2.9698,-3.1098,-3.3094,-3.5683,-3.5376,-3.565,-3.6894,-3.6875,-3.6699,-3.6309,-3.6309,-3.668,-3.7441,-3.58,-3.4992,-3.4865,-3.0446,-3.0072,0.0,0.0,0.0,0.0,0.0,0.0,0.0,0.0,0.0,0.0,0.0,0.0,0.0,0.0,0.0,-2.4102,-2.4409,-2.4636,-2.4636,-2.4636,-2.4636,-2.4636,-2.4636,-2.4636,-2.4636,-2.485,-2.5024,-2.5077,-2.5291,-2.5558,-2.5852,-2.5865,-2.5999,-2.6293,-2.6306,-2.6333,-2.6386,-2.6386,-2.6386,-2.6386,0.0,0.0,-2.6386,-2.6386,-2.6386,-2.6386,-2.6386,-2.6386,-2.6386,-2.6386,-2.6386,-2.6386,-2.6386,-2.6386,-2.6386,-2.6386,-2.6386,-2.6386,-2.6386,-2.6386,-2.6386,-2.6386,-2.6386,-2.6386,-2.6386,-2.6386,0.0,-2.6386,-2.6386,-2.6386,-2.6386,-2.6386,-2.6386,-2.6386,-2.6386,-2.6386,-2.6386,-2.6386,-2.6386,-2.6386,-2.6386,-2.6386,-2.6386,-2.6386,-2.6373,-2.6319,-2.636,-2.6373,-2.6319,-2.636,-2.6306,-2.6066,-2.7845,-2.9732,-3.1383,-3.3266,-3.5468,-3.7859,-3.7889,-3.7991,-3.8203,-3.8203,-3.8164,-3.8086,-3.8086,-3.8164,-3.832,-3.7938,-3.7793,-3.7701,-3.3084,-3.1393,0.0,0.0,0.0,0.0,0.0,0.0,0.0,0.0,0.0,0.0,0.0,-2.3808,-2.3955,0.0,-2.4422,-2.4422,-2.4543,-2.4636,-2.4636,-2.4636,-2.4636,-2.4636,-2.4636,-2.4636,-2.4636,-2.4903,-2.5144,-2.5291,-2.5571,-2.5865,-2.6159,-2.6172,-2.6239,-2.6386,-2.6386,-2.6386,-2.6386,-2.6386,-2.6386,-2.6386,-2.6386,-2.6386,-2.6386,-2.6386,-2.6386,-2.6386,-2.6386,-2.6386,-2.6386,-2.6386,-2.6386,-2.6386,-2.6386,-2.6386,-2.6386,-2.6386,-2.6386,-2.6386,-2.6386,-2.6386,-2.6386,-2.6386,-2.6386,-2.6386,-2.6386,-2.6386,-2.6386,-2.6386,-2.6386,-2.6386,-2.6386,-2.6386,-2.6386,-2.6386,-2.6386,-2.6386,-2.6386,-2.6386,-2.6386,-2.6386,-2.6386,-2.6386,-2.6386,-2.6386,-2.6386,-2.6386,-2.6386,-2.6386,-2.6386,-2.6386,-2.6847,-2.7919,-2.9836,-3.196,-3.4201,-3.6289,-3.8004,-3.9145,-3.9023,-3.8887,-3.8887,-3.8691,-3.8574,-3.8574,-3.8574,-3.8574,-3.8574,-3.8574,-3.8574,-3.8555,-3.6181,-3.5193,0.0,0.0,0.0,0.0,0.0,0.0,0.0,-2.338,-2.3474,-2.4142,-2.4462,-2.4609,-2.4556,-2.473,-2.485,-2.4743,-2.4716,-2.4703,-2.4649,-2.4636,-2.471,-2.5139,-2.4857,-2.4663,-2.4716,-2.4983,-2.5291,-2.5571,-2.5879,-2.6146,-2.6373,-2.6386,-2.6386,-2.6386,-2.6386,-2.6386,-2.6386,-2.6386,-2.6386,-2.6386,-2.6386,-2.6386,-2.6386,-2.6386,-2.6386,-2.6386,-2.6386,-2.6386,-2.6386,-2.6386,-2.6386,-2.6386,-2.6386,-2.6386,-2.6386,-2.6386,-2.6386,-2.6386,-2.6386,-2.6386,-2.6386,-2.6386,-2.6386,-2.6386,-2.6386,-2.6386,-2.6386,-2.6386,-2.6386,-2.6386,-2.6386,-2.6386,-2.6386,-2.6386,-2.6386,-2.6386,-2.6386,-2.6386,-2.6386,-2.6386,-2.6689,-2.7004,-2.7004,-2.7305,-2.7462,-2.7083,-2.6623,-2.6702,-2.7462,-2.7282,-2.8024,-3.0447,-3.2557,-3.4813,-3.7166,-3.8937,-3.9902,-3.9902,-3.9551,-3.9336,-3.9336,-3.9004,-3.8789,-3.8691,-3.8691,-3.8652,-3.8574,-3.8574,-3.8574,-3.8574,-3.8652,-3.8652,-2.6476,-2.4408,-2.3631,-2.3691,-2.3674,-2.4008,0.0,-2.5211,-2.5077,-2.5919,-2.6119,-2.6066,-2.5812,-2.5785,-2.5638,-2.5117,-2.5037,-2.4943,-2.4676,-2.4636,-2.5212,-2.6997,-2.5639,-2.4743,-2.501,-2.5291,-2.5585,-2.5892,-2.6172,-2.636,-2.6386,-2.6386,-2.6386,-2.6386,-2.6386,-2.6386,-2.6386,-2.6386,-2.6386,-2.6386,-2.6386,-2.6386,-2.6386,-2.6386,-2.6386,-2.6386,-2.6386,-2.6386,-2.6386,-2.6386,-2.6386,-2.6386,-2.6386,-2.6386,-2.6386,-2.6386,-2.6386,-2.6386,-2.6386,-2.6386,-2.6386,-2.6386,-2.6386,-2.6386,-2.6386,-2.6386,-2.6386,-2.6386,-2.6386,-2.6386,-2.6386,-2.6386,-2.6386,-2.6386,-2.6386,-2.6386,-2.6386,-2.6386,-2.6386,-2.6386,-2.7841,-2.906,-2.906,-3.0592,-3.1207,-2.9371,-2.7541,-2.7698,-3.136,-3.0546,-3.0511,-3.2569,-3.4959,-3.7224,-3.9335,-3.9732,-3.9902,-3.9902,-3.9844,-3.9824,-3.9824,-3.9766,-3.9551,-3.9141,-3.9141,-3.8945,-3.8574,-3.8574,-3.8574,-3.8594,-3.8965,-3.8926,-2.6692,-2.4879,-2.4195,-2.4676,-2.4783,-2.4943,-2.5558,-2.5504,-2.5531,-2.6239,-2.6386,-2.6306,-2.609,-2.6037,-2.5758,0.0,-2.6024,-2.664,-2.6326,-2.7201,-2.8182,-2.9043,-2.8398,-2.8103,-2.8526,-2.7937,-2.7616,-2.776,-2.6905,-2.6386,-2.6386,-2.6386,-2.6386,-2.6386,-2.6386,-2.6386,-2.6386,-2.6386,-2.6386,-2.6386,-2.6386,-2.6386,-2.6386,-2.6386,-2.6386,-2.6386,-2.6386,-2.6386,-2.6386,-2.6386,-2.6386,-2.6386,-2.6386,-2.6386,-2.6386,-2.6386,-2.6386,-2.6386,-2.6386,-2.6386,-2.6386,-2.6386,-2.6386,-2.6426,-2.6587,-2.664,-2.664,-2.664,-2.664,-2.66,-2.6426,-2.7305,-2.8154,-2.8154,-2.906,-2.9991,-2.9991,-2.9991,-2.9991,-2.9991,-3.0592,-3.1207,-3.1207,-3.1896,-3.2565,-3.2927,-3.1268,-3.0592,-3.2277,-3.1949,-3.25,-3.5019,-3.7745,-3.9739,-4.0548,-4.0644,-4.0644,-4.0644,-4.041,-4.0254,-4.0254,-4.0019,-3.9805,-3.9609,-3.9609,-3.9512,-3.9336,-3.9336,-3.9336,-3.9355,-3.9531,-3.9512,-2.617,-2.5117,-2.4877,-2.5384,-2.5638,-2.5758,-2.5758,-2.5758,-2.5879,-2.6306,-2.6386,-2.6319,-2.6119,-2.6079,-2.6138,-2.6143,-2.7239,-2.8146,-2.8469,-2.9536,-3.0522,-3.1017,-3.1189,-3.1642,-3.2487,-3.0843,-2.9488,-2.9151,-2.7947,-2.7004,-2.6465,-2.6386,-2.6386,-2.6386,-2.6386,-2.6386,-2.6386,-2.6386,-2.6386,-2.6386,-2.6386,-2.6386,-2.6386,-2.6386,-2.6386,-2.6386,-2.6386,-2.6386,-2.6386,-2.6386,-2.644,-2.6507,-2.6507,-2.656,-2.6627,-2.6627,-2.6533,-2.6386,-2.6386,-2.6386,-2.64,-2.648,-2.6507,-2.656,-2.6854,-2.6947,-2.6947,-2.6947,-2.6947,-2.7055,-2.7464,-2.8633,-2.9844,-3.0283,-3.1565,-3.2621,-3.2522,-3.2505,-3.2505,-3.2505,-3.2961,-3.3322,-3.3322,-3.3792,-3.4694,-3.6127,-3.5142,-3.4169,-3.4169,-3.4359,-3.5351,-3.7601,-3.9835,-4.1172,-4.1172,-4.1172,-4.1172,-4.1172,-4.0879,-4.0703,-4.0703,-4.041,-4.0195,-4.0078,-4.0078,-4.0019,-3.9902,-3.9902,-3.9902,-3.9902,-4.0019,-4.0078,-2.4802,-2.4649,-2.5144,-2.5438,-2.5945,-2.636,-2.636,-2.636,-2.6373,-2.6386,-2.6386,-2.6386,-2.6373,-2.6373,-2.6959,-2.8603,-2.8596,-2.8998,-3.067,-3.0541,-3.1017,-3.2874,-3.3425,-3.4452,0.0,-3.3391,-3.0804,-2.9451,-2.9356,-2.8452,-2.6465,-2.6386,-2.6386,-2.6386,-2.6386,-2.6386,-2.6386,-2.6386,-2.6386,-2.6386,-2.6386,-2.6386,-2.6386,-2.6386,-2.6386,-2.6386,-2.6386,-2.6386,-2.6386,-2.6386,-2.656,-2.6814,-2.6814,-2.6987,-2.7241,-2.7241,-2.6881,-2.6386,-2.6386,-2.6386,-2.644,-2.672,-2.6814,-2.6867,-2.7161,-2.7255,-2.7255,-2.7255,-2.7255,-2.7717,-2.9844,-3.039,-3.0858,-3.2557,-3.3017,-3.2995,-3.2571,-3.2505,-3.2505,-3.2505,-3.4076,-3.5422,-3.5422,-3.7106,-3.8428,-3.8501,-3.8428,-3.8428,-3.8428,-3.9168,-3.9868,-4.0373,-4.0898,-4.1172,-4.1172,-4.1172,-4.1172,-4.1172,-4.1172,-4.1152,-4.1152,-4.1152,-4.0937,-4.0508,-4.0508,-4.0293,-3.9902,-3.9902,-3.9902,-3.9902,-4.0312,-4.0508,-2.5411,-2.5211,-2.5491,-2.5972,-2.6239,-2.6386,-2.6386,-2.6386,-2.6386,-2.6386,-2.6386,-2.6713,-2.7805,-2.8244,-2.8883,-3.034,-3.1555,-3.2377,-3.2788,-3.3544,-3.4296,-3.4952,-3.5223,0.0,0.0,0.0,0.0,-3.3082,-3.2054,-3.0592,-2.853,-2.8374,-2.7762,-2.6465,-2.6386,-2.6386,-2.6386,-2.6386,-2.6386,-2.6386,-2.6386,-2.6386,-2.6386,-2.6386,-2.6386,-2.6386,-2.6386,-2.6493,-2.668,-2.668,-2.6854,-2.7121,-2.7121,-2.7175,-2.7268,-2.7268,-2.7148,-2.6974,-2.6974,-2.6841,-2.672,-2.7014,-2.7121,-2.7486,-2.9215,-2.9708,-3.0033,-3.1461,-3.1864,-3.1962,-3.2539,-3.3657,-3.4796,-3.5449,-3.6601,-3.7518,-3.6997,-3.6923,-3.6923,-3.6923,-3.752,-3.808,-3.8385,-3.8986,-3.9336,-3.9043,-3.875,-3.8574,-3.8574,-3.9082,-3.9609,-4.0059,-4.0488,-4.0859,-4.1152,-4.1172,-4.1172,-4.1172,-4.1172,-4.1172,-4.1172,-4.1172,-4.1113,-4.0957,-4.0957,-4.0879,-4.0742,-4.0742,-4.0742,-4.0742,-4.0879,-4.0957,-2.5958,-2.5518,-2.5651,-2.6239,-2.6386,-2.6623,-2.7305,-2.7462,-2.7684,-2.8452,-2.8443,-2.8685,-2.9671,-3.0114,-3.0751,-3.2233,-3.3441,-3.4341,-3.4756,-3.5628,-3.625,-3.625,-3.625,-3.6367,0.0,0.0,0.0,-3.492,-3.4092,-3.2717,-3.0592,-2.9821,-2.8842,-2.7541,-2.6768,-2.6386,-2.6386,-2.6386,-2.6386,-2.6386,-2.6386,-2.6386,-2.6386,-2.6386,-2.6453,-2.6547,-2.6547,-2.6707,-2.6987,-2.6987,-2.7148,-2.7415,-2.7415,-2.7482,-2.7575,-2.7575,-2.7509,-2.7402,-2.7308,-2.7134,-2.7028,-2.7321,-2.7976,-2.8917,-3.0662,-3.1732,-3.2626,-3.3983,-3.4385,-3.4495,-3.5134,-3.6184,-3.7335,-3.7998,-3.9166,-4.0,-3.9551,-3.9453,-3.9492,-3.9648,-3.9551,-3.959,-4.0039,-3.9863,-3.9551,-3.9258,-3.8848,-3.8574,-3.8574,-3.9082,-3.957,-3.9863,-4.041,-4.0859,-4.1152,-4.1172,-4.1172,-4.1172,-4.1172,-4.1172,-4.1172,-4.1172,-4.1172,-4.1172,-4.1172,-4.1172,-4.1172,-4.1172,-4.1172,-4.1172,-4.1172,-4.1172,-2.6405,-2.5545,-2.5692,-2.6397,-2.6558,-2.7097,-2.906,-2.9526,-3.0145,-3.2092,-3.2116,-3.1794,-3.1911,-3.1927,-3.2497,-3.4198,-3.4432,-3.4968,-3.6569,-3.6719,-3.6719,-3.6738,-3.6719,-3.6699,-3.6699,-3.709,0.0,-3.5176,0.0,-3.4751,-3.2733,-3.0823,-2.9589,-2.9449,-2.7541,-2.6465,-2.6386,-2.6386,-2.6465,-2.6544,-2.6465,-2.6386,-2.6386,-2.64,-2.656,-2.6827,-2.6841,-2.7014,-2.7281,-2.7281,-2.7455,-2.7722,-2.7722,-2.798,-2.8389,-2.8389,-2.8214,-2.8,-2.7812,-2.754,-2.7417,-2.7794,-2.9335,-3.107,-3.1549,-3.3186,-3.4894,-3.4975,-3.5056,-3.546,-3.7578,-3.8054,-3.8456,-4.0164,-4.0566,-4.043,-4.0019,-3.9922,-4.0059,-4.0469,-4.0254,-4.0117,-4.0527,-3.9863,-3.9277,-3.9277,-3.8887,-3.8594,-3.8574,-3.9336,-3.9863,-3.9902,-4.0644,-4.1152,-4.1172,-4.1172,-4.1172,-4.1172,-4.1172,-4.1172,-4.1172,-4.1172,-4.1172,-4.1172,-4.1172,-4.1172,-4.1172,-4.1172,-4.1172,-4.1172,-4.1172,-4.1172,-2.6411,-2.5999,-2.6578,-2.8189,-2.8861,-2.9591,-3.1347,-3.1936,-3.2122,-3.1982,-3.1877,-3.2093,-3.2994,-3.3652,-3.4648,-3.6261,-3.6737,-3.7124,-3.7546,-3.7344,-3.7246,-3.7559,-3.7324,-3.7148,-3.7148,-3.7519,0.0,0.0,-3.7383,-3.6885,-3.4826,-3.4209,-3.2548,-2.9511,-2.8905,-2.7919,-2.6386,-2.6386,-2.7148,-2.8608,-2.7162,-2.6386,-2.64,-2.6613,-2.6747,-2.6827,-2.7054,-2.7321,-2.7589,-2.7589,-2.7762,-2.8114,-2.8114,-2.9133,-3.0578,-3.0578,-3.1595,-3.288,-3.2883,-3.0513,-2.7877,-2.9796,-3.0875,-3.1945,-3.5265,-3.6602,-3.7419,-3.9059,-3.9531,-3.9707,-4.0197,-4.0353,-4.049,-4.0958,-4.1016,-4.0898,-4.0449,-4.0371,-4.0488,-4.0918,-4.1172,-4.1348,-4.1465,-4.0762,-4.0176,-4.0176,-3.9531,-3.8926,-3.8613,-3.9043,-3.9512,-3.9863,-4.0371,-4.082,-4.1152,-4.1172,-4.1172,-4.1172,-4.1172,-4.1172,-4.1172,-4.1172,-4.1172,-4.1172,-4.1172,-4.1172,-4.1172,-4.1172,-4.1172,-4.1172,-4.1172,-4.1172,-2.9243,-2.9109,-2.958,-3.0732,-3.1371,-3.2122,-3.3517,-3.4005,-3.418,-3.4244,-3.4106,-3.4145,-3.4863,-3.5504,-3.618,-3.695,-3.7539,-3.7851,-3.7676,-3.7598,-3.7656,-3.7891,-3.7715,-3.7578,-3.7578,-3.7793,-3.7832,-3.7598,-3.8203,-3.8117,-3.6885,-3.5961,-3.4434,-3.2168,-3.1191,-3.0207,-2.9075,-2.9075,-2.9604,-3.0746,-2.9604,-2.9134,-2.936,-2.9459,-2.9774,-3.0055,0.0,-3.0499,-3.081,-3.081,-3.0913,-3.1076,-3.1076,-3.1805,-3.2858,-3.2858,-3.3594,-3.4732,-3.4732,-3.2978,-3.0989,-3.2402,-3.3512,-3.4732,-3.7162,-3.8548,-3.961,-4.0841,-4.1172,-4.1172,-4.1172,-4.1172,-4.1172,-4.1172,-4.1172,-4.1113,-4.0859,-4.0801,-4.0879,-4.1133,-4.166,-4.2012,-4.1836,-4.1406,-4.0957,-4.0586,-3.9941,-3.9277,-3.8652,-3.8945,-3.9375,-3.9844,-4.0273,-4.0703,-4.1133,-4.1172,-4.1172,-4.1172,-4.1172,-4.1172,-4.1172,-4.1172,-4.1172,-4.1172,-4.1172,-4.1172,-4.1172,-4.1172,-4.1172,-4.1172,-4.1172,-4.1172,-3.2927,-3.2786,-3.3188,-3.3486,-3.3926,-3.4615,-3.562,-3.5923,-3.6238,-3.7048,-3.6934,-3.666,-3.6601,-3.6934,-3.7109,-3.6797,-3.7402,-3.7812,-3.7519,-3.7773,-3.8027,-3.8086,-3.8047,-3.8027,-3.8086,-3.8086,-3.8086,-3.8086,-3.8437,-3.8633,-3.8574,-3.6885,-3.5812,-3.5497,-3.36,-3.2724,-3.2952,-3.2773,-3.279,-3.3111,-3.279,-3.2879,-3.3177,-3.3227,-3.3591,-3.4186,-3.4236,-3.4451,-3.4732,-3.4732,-3.4732,-3.4732,-3.4732,-3.4894,-3.5137,-3.5137,-3.5298,-3.554,-3.554,-3.554,-3.554,-3.5218,-3.6362,-3.7975,-3.8231,-3.9688,-4.1172,-4.1172,-4.1172,-4.1172,-4.1172,-4.1172,-4.125,-4.154,-4.1618,-4.1695,-4.1907,-4.1812,-4.16,-4.125,-4.1816,-4.2306,-4.223,-4.2073,-4.1777,-4.1067,-4.0515,-3.981,-3.8823,-3.9023,-3.9453,-3.9863,-4.0332,-4.0762,-4.1152,-4.1172,-4.1172,-4.1172,-4.1172,-4.1172,-4.1172,-4.1172,-4.1172,-4.1172,-4.1172,-4.1172,-4.1172,-4.1172,-4.1172,-4.1172,-4.1172,-4.1327,-3.2989,-3.3061,-3.3563,-3.5663,-3.6517,-3.7076,-3.7851,-3.8294,-3.8194,-3.702,-3.6719,-3.6562,-3.6191,-3.6484,-3.6875,-3.7148,-3.7598,-3.8027,-3.832,-3.8418,-3.8594,-3.8945,-3.8672,-3.8594,-3.8945,-3.8984,0.0,0.0,-3.9043,-3.8945,-3.8594,-3.8263,-3.7272,-3.5571,-3.3839,-3.3796,-3.5566,-3.4256,-3.4409,-3.6047,-3.4409,-3.3586,-3.3731,-3.3951,-3.407,-3.4203,-3.4501,0.0,-3.4732,-3.4732,-3.4732,-3.4732,-3.4732,-3.5782,-3.7321,-3.7321,-3.8469,-4.0099,-4.0099,-4.0099,-3.9786,-3.7896,-3.7578,-3.8231,-4.0099,-4.0919,-4.1172,-4.1172,-4.1172,-4.1172,-4.1172,-4.1172,-4.1618,-4.3207,-4.3587,-4.4021,-4.5648,-4.4975,-4.3505,-4.1619,-4.1562,-4.2408,-4.3963,-4.3629,-4.3289,-4.3421,-4.2521,-4.1129,-3.9323,-3.9492,-3.9805,-3.9883,-4.0605,-4.1094,-4.1172,-4.1172,-4.1172,-4.1172,-4.1172,-4.1172,-4.1172,-4.1172,-4.1172,-4.1172,-4.1172,-4.1172,-4.1172,-4.1172,-4.1172,-4.1172,-4.1172,-4.2062,-3.6207,-3.6587,-3.7257,-3.8419,-3.9104,-3.9259,-3.8685,-3.873,-3.8398,-3.668,-3.6328,-3.6269,-3.6055,-3.6367,-3.6738,-3.6934,-3.75,-3.7988,-3.8203,-3.8437,-3.8652,-3.8848,-3.8691,-3.8652,-3.8848,-3.9062,-3.9199,-3.9199,-3.9434,-3.9375,-3.8926,-3.8906,-3.8542,-3.784,-3.7047,-3.7157,-3.8104,-3.7341,-3.7433,-3.8386,-3.7433,-3.7063,-3.7281,-3.7384,-3.7584,-3.7862,-3.7982,-3.8073,-3.8073,-3.8073,-3.8073,-3.8073,-3.8073,-3.8724,-3.961,-3.961,-4.0275,-4.1172,-4.1172,-4.1172,-4.1016,-3.9943,-3.961,-3.9786,-4.0841,-4.1172,-4.1172,-4.1172,-4.1172,-4.1172,-4.1172,-4.1172,-4.1695,-4.3663,-4.4902,-4.5849,-4.6809,-4.6396,-4.5535,-4.444,-4.455,-4.5172,-4.6117,-4.6095,-4.5878,-4.567,-4.4059,-4.2366,-4.0963,-4.0043,-3.9531,-3.9531,-3.9902,-4.0332,-4.0801,-4.084,-4.1035,-4.1465,-4.1504,-4.1601,-4.1816,-4.1816,-4.1719,-4.1504,-4.1504,-4.1913,-4.2713,-4.1676,-4.2273,-4.4172,-4.3151,-4.394,-3.9434,-4.0,-4.0547,-4.0644,-4.0918,-4.0703,-3.8848,-3.8437,-3.793,-3.6113,-3.5742,-3.5762,-3.5859,-3.6172,-3.6465,-3.6641,-3.7305,-3.7812,-3.791,-3.8301,-3.8574,-3.8574,-3.8574,-3.8812,-3.9255,-3.9225,0.0,-3.9889,-3.9814,-3.9629,-3.9355,-3.9355,-3.9512,-3.9883,-3.998,-4.0039,-4.0039,-4.0117,-4.0176,-4.0176,-4.0176,-4.0332,-4.0664,-4.0664,-4.084,-4.1172,-4.1172,-4.1172,-4.1172,-4.1172,-4.1172,-4.1172,-4.1172,-4.1172,-4.1172,-4.1172,-4.1172,-4.1172,-4.1172,-4.1172,-4.1172,-4.1172,-4.1172,-4.1172,-4.1172,-4.1172,-4.1172,-4.1172,-4.1172,-4.1172,-4.1172,-4.154,-4.2427,-4.4827,-4.6809,-4.8144,-4.7686,-4.7613,-4.754,-4.7102,-4.7291,-4.7708,-4.8152,-4.8469,-4.8446,-4.7749,-4.5881,-4.4155,-4.3063,-4.1027,-3.9632,-3.9632,-3.9441,-3.9668,-4.0449,-4.0527,-4.1033,-4.2348,-4.2033,-4.221,-4.3022,-4.3121,-4.2962,-4.2625,-4.2897,-4.3721,-4.4902,-4.3269,-4.4042,-4.6978,-4.5608,-4.6177,-4.0176,-4.0469,-4.0625,-4.1016,-4.1152,-4.0605,-3.8476,-3.7988,-3.7383,-3.5254,-3.4824,-3.4941,-3.5371,-3.5488,-3.5762,-3.6543,-3.7051,-3.748,-3.7871,-3.8301,-3.8574,-3.8574,-3.8574,-3.942,-4.1503,-4.0171,-4.0077,-4.2115,-4.0378,-3.9434,-3.9805,-3.9824,-3.9844,-3.9902,-4.0273,-4.0469,-4.0469,-4.0859,-4.1055,-4.1055,-4.1055,-4.1074,-4.1113,-4.1113,-4.1133,-4.1172,-4.1172,0.0,0.0,-4.1172,-4.1172,-4.1172,-4.1172,-4.1172,-4.1172,-4.1172,-4.1172,-4.1172,-4.1172,-4.1172,-4.1172,-4.1172,-4.1172,-4.1172,-4.1172,-4.1172,-4.1172,-4.1172,-4.1172,-4.1172,-4.1172,-4.2483,-4.4752,-4.8578,-5.0928,-5.1886,-5.0127,-4.9748,-4.9153,-4.7321,-4.7,-4.7631,-4.9462,-4.9795,-4.9795,-4.9771,-4.8755,-4.7377,-4.5528,-4.2842,-4.1126,-4.1126,-4.0332,-4.0019,-4.0488,-4.0527,-4.1686,-4.4419,-4.2837,-4.2822,-4.5227,-4.5326,-4.5305,-4.5263,-4.6605,-4.7395,-4.7574,-4.6832,-4.6662,-4.6978,-4.7373,-4.8406,-3.998,-4.0527,-4.0957,-4.1133,-4.0781,-3.9961,-3.8301,-3.7539,-3.6699,-3.5039,-3.4707,-3.4844,-3.5312,-3.5156,-3.5254,-3.6133,-3.6426,-3.668,-3.7109,-3.7754,-3.8596,-3.9698,-3.9102,-3.9827,-4.2991,0.0,-4.1866,-4.4098,-4.2397,-4.1318,-4.1501,-4.0464,-4.0019,-4.0273,-4.0684,-4.0918,-4.0918,-4.1094,-4.1172,-4.1172,-4.1172,-4.1172,-4.1172,-4.1172,-4.1172,-4.1172,-4.1172,0.0,0.0,-4.1172,-4.1172,-4.1172,-4.1172,-4.1172,-4.1172,-4.1172,-4.1172,-4.1172,-4.1172,-4.1172,-4.1172,-4.1172,-4.1172,-4.1172,-4.1172,-4.1172,-4.1172,-4.1172,-4.1172,-4.1463,-4.2637,-4.5276,-4.8049,-4.9605,-5.1513,-5.2698,-5.1886,-5.1747,-5.1513,-5.0717,-5.0576,-5.0787,-5.1607,-5.1747,-5.1747,-5.1747,-4.9869,-4.8185,-4.7493,-4.4768,-4.301,-4.301,-4.0627,-3.9277,-3.9687,-4.1048,-4.2782,-4.4781,-4.5502,-4.6532,-4.8221,-4.8243,-4.8111,-4.7805,-4.8472,-4.9049,-4.9634,-4.8254,-4.8749,-5.1008,-5.0073,-5.0911,-3.9922,-4.0625,-4.1172,-4.1172,-4.089,-4.0162,-3.821,-3.749,-3.6714,-3.474,-3.4316,-3.4453,-3.4922,-3.4824,-3.4941,-3.5703,-3.6423,-3.7149,-3.7657,-3.8757,-4.0018,-4.154,-4.0805,-4.1488,-4.4573,-4.3991,-4.3899,-4.5091,-4.3365,-4.2282,-4.2428,-4.0672,-3.9883,-4.0332,-4.0762,-4.0976,-4.0976,-4.1113,-4.1172,-4.1172,-4.1172,-4.1172,-4.1172,-4.1172,-4.1172,-4.1172,-4.1172,0.0,0.0,-4.1172,-4.1172,-4.1172,-4.1172,-4.1172,-4.1172,-4.1172,-4.1172,-4.1172,-4.1172,-4.1172,-4.1172,-4.1172,-4.1172,-4.1172,-4.1172,-4.1172,-4.1327,-4.1907,-4.2503,-4.338,-4.5351,-4.7904,-5.0127,-5.0717,-5.1886,-5.2929,-5.2929,-5.2929,-5.2929,-5.2929,-5.2929,-5.2929,-5.2929,-5.2929,-5.2929,-5.2929,-5.0881,-4.933,-4.933,-4.6719,-4.4914,-4.4914,-4.2101,-4.0412,-4.0788,-4.2532,-4.4478,-4.6558,-4.7787,-4.9184,-5.0894,-5.0939,-5.0757,-5.0391,-5.0723,-5.1252,-5.2187,-5.0453,-5.113,-5.3959,-5.2713,-5.3346,-4.0273,-4.084,-4.1172,-4.1172,-4.1817,-4.1471,-3.8102,-3.7955,-3.757,-3.4152,-3.3437,-3.3574,-3.4004,-3.4414,-3.4863,-3.5332,-3.7522,-3.9369,-3.9988,-4.1915,-4.342,-4.398,-4.4047,-4.4778,-4.6599,-4.6732,-4.6206,-4.4788,-4.2569,0.0,-4.2018,-4.0191,-3.9414,-3.9883,-4.0312,-4.0527,-4.0527,-4.0957,-4.1172,-4.1172,-4.1172,-4.1172,-4.1172,-4.1172,-4.1172,-4.1172,0.0,0.0,0.0,-4.1172,-4.1172,-4.1172,-4.1172,-4.1172,-4.1172,-4.1172,-4.1172,-4.1172,-4.1172,-4.1172,-4.1172,-4.1172,-4.1172,-4.1172,-4.1172,-4.1172,-4.1618,-4.3511,-4.55,-4.7394,-4.9391,-4.9961,-5.0481,-5.2421,-5.2861,-5.2929,-5.2929,-5.2929,-5.2929,-5.2929,-5.2929,-5.2929,-5.2929,-5.2929,-5.2929,-5.2929,-5.1975,-5.1272,-5.1272,-4.8652,-4.6798,-4.6798,-4.5118,-4.4226,-4.4648,-4.5211,-4.7082,-5.0507,-4.9359,-4.9867,-5.2902,-5.31,-5.31,-5.31,-5.4055,-5.4838,-5.5365,-5.4165,-5.3984,-5.4561,-5.5114,-5.5365,-4.1771,-4.1958,-4.1821,-4.2704,-4.2624,-4.1931,-4.0227,-3.8761,-3.7232,-3.5397,-3.4195,-3.3555,-3.3984,-3.3945,-3.469,-3.7324,-3.8148,-3.9276,-4.1594,-4.3129,-4.4392,-4.5439,-4.6897,-4.7599,-4.6889,0.0,-4.8551,-4.8106,-4.6157,-4.455,-4.3507,-4.1628,-4.0222,-3.9488,-3.9863,-4.0234,-4.0527,-4.0664,-4.0879,-4.1172,-4.1172,-4.1172,-4.1172,-4.1172,-4.1172,0.0,0.0,0.0,-4.1172,-4.1172,-4.1172,-4.1172,-4.1172,-4.1172,-4.1172,-4.1172,-4.1172,-4.1172,-4.1172,-4.1172,-4.1172,-4.1172,-4.1172,-4.1463,-4.279,-4.3207,-4.3587,-4.5574,-4.754,-4.9224,-4.9819,-5.0998,-5.2119,-5.2767,-5.2929,-5.2929,-5.2929,-5.2929,-5.2929,-5.2929,-5.2929,-5.2929,-5.2929,-5.2929,-5.2929,-5.2929,-5.2,-5.1272,-5.1272,-4.9809,-4.8673,-4.8673,-4.8216,-4.6917,-4.4456,-4.6288,-4.8357,-5.0294,-5.1802,-5.3448,-5.5164,-5.5214,-5.5214,-5.5214,-5.5551,-5.5591,-5.539,-5.5039,-5.4938,-5.5139,-5.5691,-5.5742,-4.2393,-4.2635,-4.2726,-4.3517,-4.3399,-4.271,-4.1338,-3.9863,-3.8429,-3.6993,-3.5928,-3.5314,-3.5603,-3.5562,-3.6227,-3.8508,-3.9425,-4.0807,-4.3399,-4.5046,-4.6428,-4.7644,-4.8883,-4.9177,0.0,-4.8893,-4.959,-4.959,-4.7839,-4.6331,-4.5186,-4.3335,-4.1615,-4.0076,-3.9746,-3.9844,-4.0273,-4.0449,-4.0742,-4.1172,-4.1172,-4.1172,-4.1172,-4.1172,-4.1172,0.0,0.0,-4.1172,0.0,-4.1172,-4.1172,-4.1172,-4.1172,-4.1172,-4.1172,-4.1172,-4.1172,-4.1172,-4.1172,-4.1172,-4.1327,-4.2062,-4.279,-4.3739,-4.5723,-4.6293,-4.6588,-4.7759,-4.9534,-5.1068,-5.1068,-5.198,-5.2929,-5.2929,-5.2929,-5.2929,-5.2929,-5.2929,-5.2929,-5.2929,-5.2929,-5.2929,-5.2929,-5.2929,-5.2929,-5.2929,-5.2,-5.1272,-5.1272,-5.0293,-4.959,-4.959,-4.959,-4.8772,-4.6637,-4.8348,-5.0093,-5.1428,-5.347,-5.5064,-5.6168,-5.6219,-5.6219,-5.6219,-5.6018,-5.5842,-5.5691,-5.5691,-5.5691,-5.5717,-5.6043,-5.6018,0.0,-4.2996,-4.3666,-4.3758,-4.4005,-4.3679,-4.1688,-4.1306,0.0,-3.8789,-3.8283,-3.8223,-3.8268,-3.8567,-3.894,-3.9174,-4.1251,-4.3555,-4.5366,-4.7509,-4.9289,-5.0343,-4.9967,-4.959,-4.959,-4.959,-4.959,-4.959,-4.7994,-4.6931,-4.6798,-4.5186,-4.3404,-4.1538,-4.0076,-3.9524,-3.9844,-4.0273,-4.0703,-4.1133,-4.1152,-4.1172,-4.1172,-4.1172,-4.1172,0.0,0.0,-4.1172,-4.1172,-4.1172,-4.1172,-4.1172,-4.1172,-4.1172,-4.1172,-4.1172,-4.1327,-4.1385,-4.1385,-4.1463,-4.1907,-4.3739,-4.5627,-4.754,-4.9463,-4.9961,-5.0032,-5.0198,-5.1513,-5.2929,-5.2929,-5.2929,-5.2929,-5.2929,-5.2929,-5.2929,-5.2929,-5.2929,-5.2929,-5.2929,-5.2929,-5.2929,-5.2929,-5.2929,-5.2904,-5.2879,-5.1975,-5.1272,-5.1222,-5.0268,-4.959,-4.959,-4.959,-4.9816,-5.0368,-5.0996,-5.2026,-5.3607,-5.4285,-5.5089,-5.6168,-5.6219,-5.6219,-5.6219,-5.5717,-5.5691,-5.6219,-5.6219,-5.6219,-5.6219,-5.6219,-5.6219,-4.3458,0.0,-4.3169,-4.4171,-4.4435,-4.4255,0.0,-4.2252,-4.1175,-4.0223,-3.9053,-3.8335,-3.8716,-3.8582,-3.9205,-4.171,-4.2621,-4.4216,-4.7541,-4.9132,-5.0293,-5.0996,-5.0193,-4.959,-4.959,-4.959,-4.959,-4.959,-4.9177,-4.8347,-4.6865,-4.6398,-4.5321,-4.3473,-4.1714,-4.0326,-3.9355,-3.9805,-4.0254,-4.0684,-4.1016,-4.1172,-4.1172,-4.1172,-4.1172,0.0,0.0,-4.1172,-4.1172,-4.1172,-4.1172,-4.1172,-4.1172,-4.1172,-4.1172,-4.1172,-4.2119,-4.3435,-4.3435,-4.4398,-4.5723,-4.6146,-4.7686,-4.9391,-4.9819,-4.9961,-5.0339,-5.1816,-5.256,-5.2929,-5.2929,-5.2929,-5.2929,-5.2929,-5.2929,-5.2929,-5.2929,-5.2929,-5.2929,-5.2929,-5.2929,-5.2929,-5.2929,-5.2929,-5.2779,-5.2352,-5.1724,-5.1122,-5.067,-5.0017,-4.959,-4.959,-4.959,-4.9816,-5.0368,-5.1322,-5.2427,-5.3632,-5.4637,-5.5491,-5.6194,-5.6219,-5.6219,-5.6219,-5.6093,-5.6068,-5.6219,-5.6219,-5.6219,-5.6219,-5.6219,-5.6219,-4.3413,-4.3671,-4.4132,-4.4836,-4.4819,-4.4543,-4.4242,-4.3111,-4.207,-4.1777,-4.1019,-4.049,-4.0774,-4.12,-4.1983,-4.3222,-4.4719,-4.6696,-4.9576,-5.067,-5.1222,-5.1272,-5.0519,-4.9866,0.0,-4.959,-4.959,-4.959,-4.959,-4.9177,-4.8126,-4.806,-4.7245,-4.5389,-4.4345,-4.2716,-4.0537,-4.0097,-4.0098,-4.0527,-4.0976,-4.1695,-4.256,-4.256,-4.2999,0.0,0.0,-4.338,-4.256,-4.3532,-4.279,-4.1327,-4.2196,-4.256,-4.256,-4.256,-4.3739,-4.5425,-4.5425,-4.6735,-4.8361,-4.8361,-4.9748,-5.1303,-5.1303,-5.1303,-5.1513,-5.2629,-5.2929,-5.2929,-5.2929,-5.2929,-5.2929,-5.2929,-5.2929,-5.2929,-5.2929,-5.2929,-5.2929,-5.2929,-5.2929,-5.2929,-5.2929,-5.2929,-5.2729,-5.2176,-5.1624,-5.1071,-5.0494,-4.9941,-4.959,-4.959,-4.959,-4.9816,-5.0368,-5.1448,-5.2553,-5.3632,-5.4762,-5.5641,-5.6194,-5.6219,-5.6219,-5.6219,-5.6219,-5.6219,-5.6219,-5.6219,-5.6219,-5.6219,-5.6219,-5.6219,-4.3162,-4.4342,-4.5422,-4.5171,-4.4794,-4.4468,-4.4392,-4.3639,-4.2986,-4.2986,-4.2986,-4.3087,-4.3413,-4.4518,-4.5146,-4.4518,-4.6954,-4.9464,-5.1046,-5.1674,-5.18,-5.1348,-5.0695,0.0,-4.964,-4.959,-4.959,-4.959,-4.959,-4.959,-4.959,-4.959,-4.8893,-4.7287,-4.6955,-4.5506,-4.275,-4.1049,-4.0583,-4.1303,-4.1455,-4.2576,-4.4527,-4.4527,-4.5403,-4.7029,0.0,0.0,-4.4677,-4.6293,-4.5052,-4.2273,-4.3869,-4.4527,-4.4527,-4.4527,-4.5775,-4.7467,-4.7781,-4.9009,-5.041,-5.041,-5.1537,-5.2929,-5.2929,-5.2929,-5.2929,-5.2929,-5.2929,-5.2929,-5.2929,-5.2929,-5.2929,-5.2929,-5.2929,-5.2929,-5.2929,-5.2929,-5.2929,-5.2929,-5.2929,-5.2929,-5.2929,-5.2929,-5.2729,-5.2176,-5.1624,-5.1071,-5.0494,-4.9941,-4.959,-4.959,-4.959,-4.9816,-5.0368,-5.1448,-5.2528,-5.3532,-5.4712,-5.5641,-5.6194,-5.6219,-5.6219,-5.6219,-5.6219,-5.6219,-5.6219,-5.6219,-5.6219,-5.6219,-5.6219,-5.6219,-4.3991,-4.492,-4.5146,-4.3714,-4.3639,-4.379,-4.3338,-4.3112,-4.2986,-4.2986,-4.2986,-4.3564,-4.5447,-4.5221,-4.5296,-4.7004,-4.851,-4.9891,-5.1122,-5.1348,-5.1373,-5.1297,0.0,-4.969,-4.9615,-4.959,-4.959,-4.959,-4.959,-4.959,-4.959,-4.959,-4.9461,-4.9177,-4.7641,-4.6579,-4.609,-4.3154,-4.2737,-4.4777,-4.3669,-4.4316,-4.6514,-4.6514,-4.6735,-4.7029,0.0,-4.6809,-4.6588,-4.6882,-4.6662,-4.6167,-4.6441,-4.6514,-4.6514,-4.6514,-4.7831,-4.9748,-5.1443,-5.2189,-5.2491,-5.2491,-5.2629,-5.2929,-5.2929,-5.2929,-5.2929,-5.2929,-5.2929,-5.2929,-5.2929,-5.2929,-5.2929,-5.2929,-5.2929,-5.2929,-5.2929,-5.2929,-5.2929,-5.2929,-5.2929,-5.2929,-5.2929,-5.2929,-5.2729,-5.2176,-5.1624,-5.1071,-5.0494,-4.9941,-4.959,-4.959,-4.959,-4.9816,-5.0368,-5.1448,-5.2377,-5.3005,-5.4511,-5.5641,-5.6194,-5.6219,-5.6219,-5.6219,-5.6219,-5.6219,-5.6219,-5.6219,-5.6219,-5.6219,-5.6219,-5.6219,-4.3011,-4.3714,-4.4091,-4.3915,-4.4744,-4.5598,-4.5623,-4.5422,-4.5146,-4.4844,-4.4769,-4.5095,-4.6125,-4.6602,-4.7682,-5.0218,-5.0544,-5.0896,-5.2026,-5.1925,-5.1624,0.0,0.0,-4.9916,-4.9615,-4.959,-4.959,-4.959,-4.959,-4.959,-4.959,-4.959,-4.959,-4.959,-4.8763,-4.8322,-4.8322,-4.5824,-4.495,-4.5595,-4.515,-4.6268,-4.865,-4.865,-4.9153,-5.0198,0.0,-4.9605,-4.8722,-4.9748,-4.8938,-4.7102,-4.8217,-4.865,-4.8722,-4.9819,-5.0787,-5.1677,-5.256,-5.2929,-5.2929,-5.2929,-5.2929,-5.2929,-5.2929,-5.2929,-5.2929,-5.2929,-5.2929,-5.2929,-5.2929,-5.2929,-5.2929,-5.2929,-5.2929,-5.2929,-5.2929,-5.2929,-5.2929,-5.2929,-5.2929,-5.2929,-5.2929,-5.2929,-5.2628,-5.18,-5.1448,-5.0971,-5.0092,-5.0017,-5.0042,-5.0042,-5.0318,-5.0619,-5.087,-5.1624,-5.2729,-5.416,-5.4963,-5.5641,-5.6194,-5.6219,-5.6219,-5.6219,-5.6219,-5.6219,-5.6219,-5.6219,-5.6219,-5.6219,-5.6219,-5.6219,-4.2187,-4.2816,-4.3438,-4.4543,-4.5598,-4.6602,-4.7506,-4.723,-4.6753,-4.6702,-4.6577,-4.6627,-4.7004,-4.8335,-5.0067,-5.2201,-5.195,-5.1825,-5.2779,-5.2452,-5.19,-5.1348,-5.077,-5.0193,-4.964,-4.959,-4.959,-4.959,-4.959,-4.959,-4.959,-4.959,-4.959,-4.959,-4.959,-4.959,-4.959,-4.8191,-4.7231,-4.668,-4.6763,-4.8049,-5.0524,-5.0644,-5.1513,-5.2929,-5.2929,-5.205,-5.0787,-5.2258,-5.1093,-4.8506,-5.0056,-5.0717,-5.0857,-5.2327,-5.2929,-5.2929,-5.2929,-5.2929,-5.2929,-5.2929,-5.2929,-5.2929,-5.2929,-5.2929,-5.2929,-5.2929,-5.2929,-5.2929,-5.2929,-5.2929,-5.2998,-5.3359,-5.3179,-5.2998,-5.3427,-5.3179,-5.2929,-5.2929,-5.2929,-5.2929,-5.2929,-5.2929,-5.2603,-5.1624,-5.1373,-5.0971,-5.0092,-5.0243,-5.0469,-5.0619,-5.1021,-5.1322,-5.1473,-5.1975,-5.308,-5.4888,-5.5114,-5.544,-5.5993,-5.6143,-5.6219,-5.6219,-5.6219,-5.6219,-5.6219,-5.6219,-5.6219,-5.6219,-5.6219,-5.6219,-4.2484,-4.3313,-4.4016,-4.5146,-4.4719,-4.4593,-4.6702,-4.6376,-4.6024,-4.7481,-4.7405,-4.7531,-4.9088,-5.0318,-5.1172,-5.1373,-5.1774,-5.2251,-5.2854,0.0,-5.19,-5.1348,-5.077,-5.0193,-4.964,-4.959,-4.959,-4.959,-4.959,0.0,-4.959,-4.959,-4.959,-4.959,-4.959,-4.959,-4.959,-4.9461,-4.9606,-5.0074,-4.8908,-4.96,-5.1972,-5.2473,-5.2792,-5.2929,-5.2929,-5.2861,-5.2698,-5.2861,-5.2698,-5.2491,-5.2629,-5.2698,-5.2698,-5.2861,-5.2929,-5.2929,-5.2929,-5.2929,-5.2929,-5.2929,-5.2929,-5.2929,-5.2929,-5.2929,-5.2929,-5.2929,-5.2929,-5.2929,-5.2929,-5.2929,-5.3291,-5.4849,-5.4055,-5.3291,-5.4849,-5.3987,-5.2929,-5.2929,-5.2929,-5.2929,-5.2929,-5.2929,-5.2729,-5.2126,-5.1599,-5.1247,-5.1172,-5.072,-5.0619,-5.1172,-5.1247,-5.1498,-5.2,-5.2553,-5.313,-5.3783,-5.4336,-5.4863,-5.5415,-5.5942,-5.6219,-5.6219,-5.6219,-5.6219,-5.6219,-5.6219,-5.6219,-5.6219,-5.6219,-5.6219,-4.1178,-4.261,-4.389,-4.4342,-4.4895,-4.5949,-4.8159,-4.8335,-4.8309,-4.9264,-4.959,-4.969,-4.9615,-5.1071,-5.2076,-5.1398,-5.2026,-5.2678,-5.2904,-5.2151,-5.1523,-5.1297,-5.0469,-4.9816,-4.9615,-4.959,-4.959,0.0,0.0,0.0,-4.959,-4.959,-4.959,-4.959,-4.959,-4.959,-4.959,-4.959,-4.969,-4.9916,-4.976,-5.0504,-5.2126,-5.2327,-5.2603,-5.2929,-5.2929,-5.2929,-5.2929,-5.2929,-5.2929,-5.2929,-5.2929,-5.2929,-5.2929,-5.2929,-5.2929,-5.2929,-5.2929,-5.2929,-5.2929,-5.2929,-5.2929,-5.2929,-5.2929,-5.2929,-5.2929,-5.2929,-5.3674,-5.4407,-5.4407,-5.4407,-5.4875,-5.6596,-5.6531,-5.6233,-5.6919,-5.5709,-5.4407,-5.4407,-5.3606,-5.2929,-5.2929,-5.2929,-5.2628,-5.1724,-5.1423,-5.1147,-5.0795,-5.087,-5.1172,-5.1724,-5.2101,-5.2402,-5.2603,-5.2804,-5.3005,-5.3206,-5.4059,-5.4813,-5.5365,-5.5917,-5.6219,-5.6219,-5.6219,-5.6219,-5.6219,-5.6219,-5.6219,-5.6219,-5.6219,-5.6219,-4.0927,-4.2384,-4.394,-4.4468,-4.5321,-4.6728,-4.9264,-4.959,-4.969,-5.0946,-5.1096,-5.082,-5.0243,-5.1222,-5.2,-5.1599,-5.2327,-5.2929,-5.2929,-5.2126,-5.1473,-5.1297,-5.0444,-4.9791,-4.9615,-4.959,0.0,0.0,0.0,0.0,0.0,-4.959,-4.959,-4.959,-4.959,-4.959,-4.959,-4.959,-4.959,-4.9615,-5.0142,-5.0921,-5.185,-5.2026,-5.2402,-5.2929,-5.2929,-5.2929,-5.2929,-5.2929,-5.2929,-5.2929,-5.2929,-5.2929,-5.2929,-5.2929,-5.2929,-5.2929,-5.2929,-5.2929,-5.2929,-5.2929,-5.2929,-5.2929,-5.2929,-5.2929,-5.2929,-5.2929,-5.4122,-5.5551,-5.6076,-5.6206,-5.6634,-5.8355,-5.8383,-5.8131,-5.8697,-5.7469,-5.6206,-5.6206,-5.4875,-5.3674,-5.3674,-5.3247,-5.2603,-5.1674,-5.1398,-5.1197,-5.0971,-5.1147,-5.1548,-5.2277,-5.2703,-5.2929,-5.2929,-5.2929,-5.2929,-5.2929,-5.3783,-5.4536,-5.5114,-5.5666,-5.6043,-5.6219,-5.6219,-5.6219,-5.6219,-5.6219,-5.6219,-5.6219,-5.6219,-5.6219,-4.2187,-4.2961,-4.4217,-4.5874,-4.5899,-4.6376,-4.9665,-4.9565,-4.9565,-5.2352,-5.1599,-5.0619,-5.1172,-5.082,-5.0795,-5.1925,-5.2578,-5.2929,-5.2929,-5.2452,-5.19,-5.1348,-5.077,-5.0193,0.0,0.0,0.0,0.0,0.0,0.0,0.0,-4.959,-4.959,-4.959,-4.959,-4.959,-4.959,-4.959,-4.959,-4.9615,-5.0167,-5.072,-5.1297,-5.185,-5.2402,-5.2929,-5.2929,-5.2929,-5.2929,-5.2929,-5.2929,-5.2929,-5.2929,-5.2929,-5.2929,-5.2929,-5.2929,-5.2929,-5.2929,-5.2929,-5.2929,-5.2929,-5.2929,-5.2929,-5.2929,-5.2929,-5.2929,-5.2929,-5.4122,-5.5814,-5.756,-5.8068,-5.8509,-6.0116,-5.9228,-5.8509,-6.0176,-5.9194,-5.8005,-5.8005,-5.6569,-5.5419,-5.5419,-5.3987,-5.2729,-5.2176,-5.1624,-5.1498,-5.2026,-5.1624,-5.1724,-5.2804,-5.2929,-5.2929,-5.2929,-5.2929,-5.2929,-5.2929,-5.3406,-5.3959,-5.4536,-5.5089,-5.5641,-5.6194,-5.6219,-5.6219,-5.6219,-5.6219,-5.6219,-5.6219,-5.6219,-5.6219,-4.0626,-4.266,-4.4819,-4.4141,-4.62,-4.8636,-4.9615,-4.959,-4.9916,-5.1925,-5.195,-5.1548,-5.1322,-5.1774,-5.2026,-5.1599,-5.2302,-5.2804,-5.2402,-5.1875,-5.1322,-5.0745,0.0,0.0,0.0,0.0,0.0,0.0,0.0,0.0,0.0,-4.959,-4.959,-4.959,-4.959,-4.959,-4.959,-4.959,-4.9791,-5.0167,-5.0343,-5.072,-5.1297,-5.185,-5.2402,-5.2929,-5.2929,-5.2929,-5.2929,-5.2929,-5.2929,-5.2929,-5.2929,-5.2929,-5.2929,-5.2929,-5.2929,-5.2929,-5.2929,-5.2929,-5.2929,-5.2929,-5.2929,-5.2929,-5.2929,-5.2929,-5.3179,-5.4299,-5.588,-5.7596,-5.929,-6.0658,-6.1733,-6.2233,-6.1939,-6.1733,-6.2233,-6.0959,-5.9749,-5.9749,-5.7378,-5.5419,-5.5419,-5.3987,-5.2603,-5.1674,-5.1724,-5.1925,-5.2076,-5.2302,-5.2578,-5.2904,-5.2929,-5.2929,-5.2929,-5.2929,-5.2929,-5.2929,-5.308,-5.3582,-5.4607,-5.5089,-5.5641,-5.6194,-5.6219,-5.6219,-5.6219,-5.6219,-5.6219,-5.6219,-5.6219,-5.6219,-4.2886,-4.4669,-4.6376,-4.6024,-4.7606,-4.9389,-4.9816,-5.0444,-5.1147,-5.195,-5.1925,-5.1749,-5.1624,-5.1975,0.0,-5.1975,-5.2503,-5.2804,-5.2477,-5.1774,-5.1147,0.0,0.0,0.0,0.0,0.0,0.0,0.0,0.0,0.0,0.0,-4.959,-4.959,-4.959,-4.959,-4.959,-4.959,-4.9816,-5.0092,-5.0419,-5.087,-5.1272,-5.1624,-5.195,-5.2402,-5.2929,-5.2929,-5.2929,-5.2929,-5.2929,-5.2929,-5.2929,-5.2929,-5.3291,-5.3852,-5.3852,-5.3852,-5.3987,-5.4701,-5.4433,-5.3987,-5.4701,-5.4968,-5.4968,-5.4968,-5.4968,-5.5141,-5.6141,-5.7825,-5.9623,-6.061,-6.235,-6.3707,-6.3199,-6.3079,-6.3079,-6.3079,-6.2292,-6.1525,-6.1525,-5.8793,-5.644,-5.644,-5.4433,-5.2703,-5.2026,-5.2226,-5.2277,-5.1825,-5.2452,-5.2929,-5.2929,-5.2929,-5.2929,-5.2929,-5.2929,-5.2929,-5.2929,-5.2929,-5.3306,-5.4185,-5.4536,-5.5089,-5.5867,-5.5892,-5.5993,-5.6219,-5.6219,-5.6219,-5.6219,-5.6219,-5.6219,-4.6928,-4.7707,-4.836,-4.9891,-4.964,-4.9264,-5.0193,-5.1649,-5.2628,-5.2076,-5.1674,-5.1548,-5.195,-5.1699,-5.1724,-5.2628,-5.2829,-5.2829,0.0,0.0,0.0,0.0,0.0,0.0,0.0,0.0,0.0,0.0,0.0,0.0,0.0,-4.959,-4.959,-4.959,-4.959,-4.9615,-4.9665,-5.0167,-5.0469,-5.0594,-5.1624,-5.2126,-5.2176,-5.2176,-5.2452,-5.2929,-5.2929,-5.2929,-5.2929,-5.2929,-5.2929,-5.2929,-5.3042,-5.4055,-5.5419,-5.5551,-5.5617,-5.588,-5.7432,-5.6956,-5.588,-5.7551,-5.8088,-5.8088,-5.8143,-5.8115,-5.8151,-5.8277,-5.9889,-6.1549,-6.1672,-6.3381,-6.4725,-6.3528,-6.3258,-6.3258,-6.3258,-6.3199,-6.3169,-6.3169,-6.0505,-5.8257,-5.8257,-5.5406,-5.3042,-5.2854,-5.2854,-5.2477,-5.1498,-5.2277,-5.2929,-5.2929,-5.2929,-5.2929,-5.2929,-5.2929,-5.2929,-5.2929,-5.2929,-5.313,-5.3607,-5.3733,-5.4285,-5.5365,-5.544,-5.5717,-5.6219,-5.6219,-5.6219,-5.6219,-5.6219,-5.6219,-4.4141,-4.625,-4.8661,-4.9038,-4.9941,-5.0695,-5.0469,-5.1046,-5.1473,-5.0896,-5.1724,-5.2352,-5.1599,-5.2076,-5.2377,-5.1724,-5.2,0.0,0.0,0.0,0.0,0.0,0.0,0.0,0.0,0.0,0.0,0.0,0.0,0.0,-4.959,-4.959,-4.959,-4.959,-4.959,-4.9791,-5.0243,-5.0368,-5.087,-5.1749,-5.1975,-5.2327,-5.2754,-5.2754,-5.2804,-5.2929,-5.2929,-5.2929,-5.2929,-5.2929,-5.2929,-5.3042,-5.4366,-5.5115,-5.5551,-5.6956,-5.7432,-5.7496,-5.7878,-5.7751,-5.7551,-5.8493,-5.8759,-5.887,-5.9404,-5.9211,-5.9078,-6.0365,-6.1098,-6.1794,-6.312,-6.4249,-6.4964,-6.4665,-6.4605,-6.4605,-6.4605,-6.4186,-6.3797,-6.3797,-6.1728,-5.9994,-5.9994,-5.7149,-5.4278,-5.2531,-5.2277,-5.2201,-5.195,-5.2528,-5.2929,-5.2929,-5.2929,-5.2929,-5.2929,-5.2929,-5.2929,-5.2929,-5.2929,-5.298,-5.308,-5.3909,-5.4687,-5.5365,-5.5817,-5.6093,-5.6219,-5.6219,-5.6219,-5.6219,-5.6219,-5.6219,-4.5321,-4.7029,-4.8611,-4.9715,-5.0845,-5.1523,-5.0971,-5.1272,-5.1448,-5.0594,-5.1322,-5.1875,-5.1021,-5.1574,-5.195,0.0,0.0,0.0,0.0,0.0,0.0,0.0,0.0,0.0,0.0,0.0,0.0,0.0,0.0,-4.959,-4.959,-4.959,-4.959,-4.959,-4.9841,-5.0117,-5.0419,-5.0946,-5.1523,-5.2101,-5.2377,-5.2653,-5.2929,-5.2929,-5.2929,-5.2929,-5.2929,-5.2929,-5.2929,-5.2929,-5.3359,-5.4164,-5.5049,-5.6375,-5.7949,-5.8856,-5.9194,-5.9318,-6.0144,-5.99,-5.9465,-6.0922,-6.1369,-6.1512,-6.2208,-6.2179,-6.2043,-6.2959,-6.3436,-6.3883,-6.4696,-6.5473,-6.5981,-6.5981,-6.5473,-6.5024,-6.5024,-6.4755,-6.4395,-6.4066,-6.2378,-6.0854,-6.0537,-5.8355,-5.5889,-5.3616,-5.3505,-5.3273,-5.2261,-5.2578,-5.2929,-5.2929,-5.2929,-5.2929,-5.2929,-5.2929,-5.2929,-5.2929,-5.2929,-5.2929,-5.2929,-5.3708,-5.4411,-5.4988,-5.5265,-5.5691,-5.6219,-5.6219,-5.6219,-5.6219,-5.6219,-5.6219,-4.6778,-4.7983,-4.8711,-5.087,-5.1774,-5.195,-5.1398,-5.1624,-5.1699,-5.077,-5.0946,-5.1071,-5.0393,-5.082,0.0,0.0,0.0,0.0,0.0,0.0,0.0,0.0,0.0,0.0,0.0,0.0,0.0,0.0,0.0,-4.959,-4.959,-4.959,-4.959,-4.959,-5.0117,-5.0469,-5.0569,-5.1599,-5.2151,-5.2251,-5.2703,-5.2929,-5.2929,-5.2929,-5.2929,-5.2929,-5.3247,-5.3291,-5.3291,-5.3291,-5.4299,-5.588,-5.588,-5.776,-6.054,-6.087,-6.0988,-6.1284,-6.2792,-6.2411,-6.1606,-6.3684,-6.4336,-6.4485,-6.5173,-6.5293,-6.5203,-6.5203,-6.5592,-6.6011,-6.6011,-6.649,-6.6999,-6.6999,-6.6161,-6.5383,-6.5383,-6.5263,-6.5024,-6.4455,-6.3028,-6.1681,-6.08,-5.9436,-5.7658,-5.5403,-5.5246,-5.4707,-5.28,-5.2783,-5.2929,-5.2929,-5.2929,-5.2929,-5.2929,-5.2929,-5.2929,-5.2929,-5.2929,-5.2929,-5.2929,-5.3331,-5.3833,-5.4411,-5.4612,-5.5164,-5.6068,-5.6168,-5.6219,-5.6219,-5.6219,-5.6219,-4.3589,-4.6502,-4.9791,-5.1548,-5.2051,-5.195,-5.1398,-5.1348,-5.1348,-5.1197,-5.1222,-5.0946,-4.9891,0.0,0.0,0.0,0.0,0.0,0.0,0.0,0.0,0.0,0.0,0.0,0.0,0.0,0.0,0.0,-4.959,-4.959,-4.959,-4.959,-4.959,-4.959,-5.0117,-5.067,-5.1147,-5.18,-5.2352,-5.2829,-5.2904,-5.2929,-5.2929,-5.2929,-5.2929,-5.2998,-5.4433,-5.5049,-5.5049,-5.5049,-5.6076,-5.766,-5.766,-5.8793,-6.0661,-6.2233,-6.3087,-6.3564,-6.3798,-6.4128,-6.4547,-6.5473,-6.5742,-6.5862,-6.652,-6.634,-6.5892,-6.5892,-6.5951,-6.6011,-6.6011,-6.649,-6.6999,-6.6999,-6.6849,-6.6729,-6.6729,-6.6281,-6.5862,-6.5772,-6.4606,-6.315,-6.1617,-6.0671,-5.9399,-5.7176,-5.5999,-5.5143,-5.4393,-5.3452,-5.2929,-5.2929,-5.2929,-5.2929,-5.2929,-5.2929,-5.2929,-5.2929,-5.2929,-5.2929,-5.2929,-5.3005,-5.3281,-5.3808,-5.4787,-5.534,-5.5491,-5.5968,-5.6219,-5.6219,-5.6219,-5.6219,-4.4166,-4.7179,-5.0067,-5.2076,-5.2578,-5.2503,-5.2251,-5.1975,-5.1749,-5.1749,-5.1498,-5.1021,0.0,0.0,0.0,0.0,0.0,0.0,0.0,0.0,0.0,0.0,0.0,0.0,0.0,0.0,0.0,0.0,-5.0436,-5.0979,-5.0979,-5.1829,-5.2297,-5.2297,-5.3173,-5.3275,-5.262,-5.3498,-5.3622,-5.2929,-5.2929,-5.2929,-5.2929,-5.2929,-5.2929,-5.2973,-5.4675,-5.5419,-5.5485,-5.644,-5.785,-5.9413,-5.9413,-6.0448,-6.2028,-6.2817,-6.3468,-6.4006,-6.4006,-6.4455,-6.5144,-6.5802,-6.6011,-6.6131,-6.6789,-6.6789,-6.655,-6.655,-6.655,-6.655,-6.655,-6.6759,-6.6999,-6.6999,-6.6999,-6.6999,-6.6999,-6.6759,-6.646,-6.6071,-6.5233,-6.4189,-6.3119,-6.2676,-6.1698,-5.9375,-5.8597,-5.7487,-5.5338,-5.4586,-5.392,-5.2998,-5.2929,-5.2929,-5.2929,-5.2929,-5.2929,-5.2929,-5.2929,-5.2929,-5.2929,-5.2929,-5.3181,-5.3683,-5.4511,-5.5089,-5.539,-5.5942,-5.6219,-5.6219,-5.6219,-5.6219,-4.5371,-4.7589,-4.9393,-5.1956,-5.2548,-5.2578,-5.2854,-5.2603,-5.2302,0.0,-5.1875,0.0,0.0,0.0,0.0,0.0,0.0,0.0,0.0,0.0,0.0,0.0,0.0,0.0,0.0,0.0,0.0,0.0,-5.133,-5.2227,-5.2791,-5.3812,-5.4469,-5.4607,-5.5491,-5.5402,-5.425,-5.5488,-5.5181,-5.3563,-5.3563,-5.3742,-5.419,-5.3742,-5.3887,-5.4531,-5.5565,-5.631,-5.6828,-5.8103,-5.9626,-6.1139,-6.0863,-6.1819,-6.3318,-6.3498,-6.3977,-6.4515,-6.4515,-6.4964,-6.5592,-6.6101,-6.6251,-6.634,-6.6849,-6.6999,-6.6999,-6.6999,-6.6999,-6.6999,-6.6999,-6.6999,-6.6999,-6.6999,-6.6999,-6.6939,-6.6789,-6.6759,-6.661,-6.6101,-6.5473,-6.4934,-6.4575,-6.4366,-6.3594,-6.1698,-6.1041,-5.9768,-5.7021,-5.631,-5.5578,-5.4325,-5.419,-5.419,-5.419,-5.381,-5.3563,-5.3563,-5.311,-5.2929,-5.2929,-5.2929,-5.3181,-5.3683,-5.426,-5.4838,-5.539,-5.5942,-5.6219,-5.6219,-5.6219,-5.6219,-4.6137,-4.6732,-4.7471,-5.0777,-5.1497,-5.1649,-5.2678,-5.2904,-5.2879,-5.2879,-5.2452,0.0,0.0,0.0,0.0,0.0,0.0,0.0,0.0,0.0,0.0,0.0,0.0,0.0,0.0,0.0,0.0,0.0,-5.1989,-5.2941,-5.5006,-5.469,-5.4635,-5.5248,-5.527,-5.5513,-5.6059,-5.7272,-5.6956,-5.5287,-5.5287,-5.6141,-5.7687,-5.601,-5.6501,-5.8641,-5.8126,-5.8731,-6.0237,-6.0359,-6.1407,-6.2877,-6.1837,-6.2493,-6.4036,-6.4695,-6.5353,-6.5892,-6.5892,-6.634,-6.6879,-6.6939,-6.6939,-6.6939,-6.6969,-6.6999,-6.6999,-6.6999,-6.6999,-6.6999,-6.6999,-6.6999,-6.6999,-6.6999,-6.6999,-6.6819,-6.6191,-6.6071,-6.6041,-6.6011,-6.5473,-6.5203,-6.5802,-6.5383,-6.4665,-6.3919,-6.2493,-6.1138,-6.0323,-5.8856,-5.7815,-5.7751,-5.7751,-5.7751,-5.7751,-5.6206,-5.5287,-5.5287,-5.381,-5.2929,-5.2929,-5.2929,-5.3181,-5.3683,-5.426,-5.4838,-5.539,-5.5942,-5.6219,-5.6219,-5.6219,-5.6219,-4.6205,-4.6748,-4.7216,-4.9357,-5.0649,-5.1421,-5.1321,-5.2151,-5.2929,-5.2929,0.0,0.0,0.0,0.0,0.0,0.0,0.0,0.0,0.0,0.0,0.0,0.0,0.0,0.0,0.0,0.0,0.0,0.0,0.0,-5.4901,-5.6728,-5.8032,-5.881,-5.9014,-5.9422,-5.939,-5.8945,-5.9192,-5.8558,-5.7112,-5.7939,-5.8427,-5.8649,-5.8455,-5.9377,-6.1223,-6.0995,-6.0994,-6.1235,-6.2319,-6.2912,-6.3081,-6.312,-6.3476,-6.4066,-6.4784,-6.5443,-6.6011,-6.6011,-6.643,-6.6999,-6.6999,-6.6999,-6.6999,-6.6999,-6.6999,-6.6999,-6.6999,-6.6999,-6.6999,-6.6999,-6.6999,-6.6879,-6.646,-6.637,-6.6071,-6.4964,-6.5054,-6.5383,-6.5383,-6.5173,-6.5114,-6.5353,-6.5173,-6.4934,-6.4695,-6.4159,-6.3143,-6.1383,-6.0622,-5.9645,-5.8159,-5.8005,-5.8005,-5.8005,-5.6402,-5.5419,-5.5419,-5.381,-5.2929,-5.2929,-5.2929,-5.3356,-5.4235,-5.4461,-5.4838,-5.539,-5.5942,-5.6219,-5.6219,-5.6219,-5.6219,-4.6543,-4.6883,-4.728,-4.9113,-5.0211,-5.0925,-5.1344,-5.2104,-5.2809,-5.2872,0.0,0.0,0.0,0.0,0.0,0.0,0.0,0.0,0.0,0.0,0.0,0.0,0.0,0.0,0.0,0.0,0.0,0.0,0.0,0.0,-5.8723,-6.0244,-6.1224,-6.1433,-6.2091,-6.1908,-6.0857,-6.1427,-6.0948,-5.9501,-6.0378,-6.0893,-6.1029,-6.0921,-6.1867,-6.3655,-6.3655,-6.3275,-6.2752,-6.3892,-6.4096,-6.3797,-6.4425,-6.4665,-6.4755,-6.5443,-6.5951,-6.634,-6.634,-6.664,-6.6999,-6.6999,-6.6999,-6.6999,-6.6999,-6.6999,-6.6999,-6.6999,-6.6999,-6.6999,-6.6999,-6.6999,-6.6819,-6.6161,-6.5832,-6.5383,-6.4246,-6.4366,-6.4695,-6.4695,-6.4695,-6.4755,-6.4934,-6.5203,-6.5293,-6.4994,-6.5203,-6.4576,-6.2608,-6.237,-6.1655,-5.9896,-5.9716,-5.9716,-5.9716,-5.8103,-5.6892,-5.631,-5.4675,-5.3495,-5.2929,-5.2929,-5.3457,-5.4536,-5.4561,-5.4938,-5.5666,-5.6043,-5.6219,-5.6219,-5.6219,-5.6219,0.0,0.0,0.0,-4.996,-4.997,-5.0097,-5.2747,-5.287,-5.258,-5.2886,0.0,0.0,0.0,0.0,0.0,0.0,0.0,0.0,0.0,0.0,0.0,0.0,0.0,0.0,0.0,0.0,0.0,0.0,-5.6445,-5.8694,-6.0962,-6.1164,-6.1463,-6.2121,-6.278,-6.2677,-6.161,-6.3889,-6.4214,-6.2534,-6.2592,-6.3486,-6.4994,-6.3363,-6.3866,-6.6041,-6.6041,-6.5682,-6.5084,-6.5054,-6.5054,-6.5054,-6.5772,-6.6011,-6.6131,-6.6759,-6.6999,-6.6999,-6.6999,-6.6999,-6.6999,-6.6999,-6.6999,-6.6999,-6.6999,-6.6999,-6.6999,-6.6999,-6.6999,-6.6999,-6.6999,-6.6969,-6.6789,-6.6131,-6.5473,-6.4814,-6.4126,-6.3977,-6.3977,-6.3977,-6.3977,-6.4186,-6.4874,-6.5533,-6.5742,-6.5144,-6.5592,-6.5503,-6.4186,-6.4006,-6.3767,-6.3139,-6.3079,-6.3079,-6.3079,-6.1525,-5.9782,-5.8131,-5.6375,-5.4675,-5.2998,-5.2929,-5.3457,-5.4536,-5.4561,-5.5114,-5.6219,-5.6219,-5.6219,-5.6219,-5.6219,-5.6219,-4.7309,0.0,0.0,0.0,0.0,0.0,0.0,0.0,-5.2074,0.0,0.0,0.0,0.0,0.0,0.0,0.0,0.0,0.0,0.0,0.0,0.0,0.0,0.0,0.0,0.0,0.0,0.0,0.0,-5.6901,-5.9217,-6.0992,-6.2032,-6.281,-6.3438,-6.4126,-6.4308,-6.4039,-6.562,-6.5709,-6.4335,-6.5253,-6.5735,-6.5682,-6.5765,-6.6092,-6.6729,-6.6729,-6.661,-6.64,-6.5922,-6.5742,-6.5742,-6.5951,-6.6311,-6.6759,-6.6939,-6.6999,-6.6999,-6.6999,-6.6999,-6.6999,-6.6999,-6.6999,-6.6999,-6.6999,-6.6999,-6.6999,-6.6999,-6.6999,-6.6999,-6.6999,-6.664,-6.6131,-6.5473,-6.4784,-6.4126,-6.3468,-6.3318,-6.3318,-6.3318,-6.3318,-6.3528,-6.4186,-6.4425,-6.4814,-6.5622,-6.5473,-6.5173,-6.4784,-6.4306,-6.3767,-6.3139,-6.3079,-6.3079,-6.3079,-6.1525,-5.9782,-5.8131,-5.6375,-5.4675,-5.2998,-5.2929,-5.3457,-5.4536,-5.4561,-5.5114,-5.6219,-5.6219,-5.6219,-5.6219,-5.6219,-5.6219,-4.7369,-4.7309,-4.7344,-4.7489,0.0,0.0,-5.0713,-5.1626,0.0,0.0,0.0,0.0,0.0,0.0,0.0,0.0,0.0,0.0,0.0,0.0,0.0,0.0,0.0,0.0,0.0,0.0,0.0,-5.5211,-5.7772,-5.9934,-6.1437,-6.251,-6.3498,-6.4395,-6.4814,-6.5293,-6.5832,-6.661,-6.661,-6.5862,-6.664,-6.6789,-6.643,-6.6819,-6.6999,-6.6999,-6.6999,-6.6999,-6.6969,-6.658,-6.643,-6.643,-6.6729,-6.6879,-6.7029,-6.7298,-6.7238,-6.6999,-6.6999,-6.6999,-6.6999,-6.6999,-6.6999,-6.6999,-6.6999,-6.6999,-6.6999,-6.6999,-6.6999,-6.6999,-6.6999,-6.649,-6.5832,-6.5173,-6.4515,-6.3827,-6.3199,-6.3079,-6.3079,-6.3079,-6.3079,-6.3199,-6.3558,-6.3827,-6.4366,-6.5443,-6.5503,-6.5353,-6.5054,-6.4665,-6.4066,-6.3169,-6.3079,-6.3079,-6.3079,-6.2175,-6.0569,-5.8131,-5.7048,-5.538,-5.2998,-5.2929,-5.3331,-5.4185,-5.4436,-5.5114,-5.6219,-5.6219,-5.6219,-5.6219,-5.6219,-5.6093,-4.7549,-4.7429,-4.7758,-4.885,-4.876,0.0,-5.3024,-5.351,-5.3963,0.0,0.0,0.0,0.0,0.0,0.0,0.0,0.0,0.0,0.0,0.0,0.0,0.0,0.0,0.0,0.0,-5.373,-5.5211,-5.6622,-5.8811,-6.0685,-6.2032,-6.266,-6.3588,-6.4994,-6.5024,-6.5652,-6.6969,-6.6999,-6.6999,-6.6999,-6.6999,-6.6999,-6.6999,-6.6999,-6.6999,-6.6999,-6.6999,-6.6999,-6.6999,-6.6999,-6.7089,-6.7268,-6.7777,-6.7657,-6.7268,-6.7777,-6.7567,-6.6999,-6.6999,-6.6999,-6.6999,-6.6999,-6.6999,-6.6999,-6.6999,-6.6999,-6.6999,-6.6999,-6.6999,-6.6999,-6.6999,-6.646,-6.5742,-6.5173,-6.4455,-6.3737,-6.3199,-6.3079,-6.3079,-6.3079,-6.3079,-6.3079,-6.3079,-6.3528,-6.4126,-6.4814,-6.5353,-6.5503,-6.4994,-6.4844,-6.4366,-6.3199,-6.3079,-6.3079,-6.3079,-6.3079,-6.1614,-5.8194,-5.8005,-5.6493,-5.3042,-5.2929,-5.3181,-5.3683,-5.4336,-5.5164,-5.6219,-5.6219,-5.6219,-5.6219,-5.6219,-5.5917,-4.7908,-4.8087,-4.8686,-4.7878,-4.8386,0.0,-4.9456,-4.9855,-5.0739,0.0,0.0,0.0,0.0,0.0,0.0,0.0,0.0,0.0,0.0,0.0,0.0,0.0,0.0,0.0,0.0,-5.5327,-5.6366,-5.665,-5.8811,-6.0685,-6.2032,-6.2211,-6.3139,-6.4964,-6.5024,-6.5652,-6.6969,-6.6999,-6.6999,-6.6999,-6.6999,-6.6999,-6.6999,-6.6999,-6.6999,-6.6999,-6.6999,-6.6999,-6.6999,-6.6999,-6.7627,-6.8555,-6.8136,-6.8226,-6.8555,-6.8136,-6.7567,-6.6999,-6.6999,-6.6999,-6.6999,-6.6999,-6.6999,-6.6999,-6.6999,-6.6999,-6.6999,-6.6999,-6.6999,-6.6999,-6.6999,-6.6101,-6.5173,-6.5054,-6.4126,-6.3228,-6.3109,-6.3079,-6.3079,-6.3079,-6.3079,-6.3079,-6.3079,-6.3169,-6.3468,-6.4096,-6.3887,-6.3767,-6.4156,-6.3767,-6.3378,-6.3109,-6.3079,-6.3079,-6.3079,-6.3079,-6.1614,-5.8194,-5.8005,-5.6493,-5.3042,-5.2929,-5.3181,-5.3683,-5.4712,-5.5541,-5.6219,-5.6219,-5.6219,-5.6219,-5.6219,-5.5917,-4.8027,-4.7788,-4.8297,-4.8297,-4.8297,0.0,0.0,0.0,-5.099,0.0,0.0,0.0,0.0,0.0,0.0,0.0,0.0,0.0,0.0,0.0,0.0,0.0,0.0,0.0,0.0,-5.6451,-5.7018,-5.786,-5.9284,-6.0386,-6.1044,-6.2032,-6.3169,-6.4485,-6.5173,-6.5981,-6.6969,-6.6999,-6.6999,-6.6999,-6.6999,-6.6999,-6.6999,-6.6999,-6.6999,-6.6999,-6.6999,-6.6999,-6.6999,-6.6999,-6.7777,-6.8974,-6.8615,-6.8495,-6.8495,-6.8495,-6.7837,-6.6999,-6.6999,-6.6999,-6.6999,-6.6999,-6.6999,-6.6999,-6.6999,-6.6999,-6.6999,-6.6999,-6.6999,-6.6909,-6.658,-6.5772,-6.4934,-6.4605,-6.3767,-6.3079,-6.3079,-6.3079,-6.3079,-6.3079,-6.3079,-6.3079,-6.3079,-6.3079,-6.3288,-6.3917,-6.3737,-6.3647,-6.3947,-6.3737,-6.3408,-6.3109,-6.3079,-6.3079,-6.3079,-6.3079,-6.1614,-5.8194,-5.8005,-5.6493,-5.3042,-5.2929,-5.3181,-5.3683,-5.4536,-5.5239,-5.5792,-5.6068,-5.6219,-5.6219,-5.6219,-5.5767,-4.8686,-4.8147,-4.8536,0.0,0.0,-4.8775,0.0,0.0,0.0,0.0,0.0,0.0,0.0,0.0,0.0,0.0,0.0,0.0,0.0,0.0,0.0,0.0,0.0,0.0,0.0,-5.7013,-5.7283,-5.8961,-5.9249,-5.9608,-6.0236,-6.1942,-6.3288,-6.4186,-6.5383,-6.6311,-6.6969,-6.6999,-6.6999,-6.6999,-6.6999,-6.6999,-6.6999,-6.6999,-6.6999,-6.6999,-6.6999,-6.6999,-6.6999,-6.7119,-6.7897,-6.9004,-6.9004,-6.8645,-6.8226,-6.8794,-6.8136,-6.6999,-6.6999,-6.6999,-6.6999,-6.6999,-6.6999,-6.6999,-6.6999,-6.6999,-6.6999,-6.6999,-6.6999,-6.6849,-6.6191,-6.5533,-6.4844,-6.4156,-6.3528,-6.3079,-6.3079,-6.3079,-6.3079,-6.3079,-6.3079,-6.3079,-6.3079,-6.3079,-6.3258,-6.3737,-6.3827,-6.3827,-6.3827,-6.3827,-6.3617,-6.3139,-6.3079,-6.3079,-6.3079,-6.3079,-6.1614,-5.8194,-5.8005,-5.6493,-5.3042,-5.2929,-5.3181,-5.3683,-5.416,-5.4737,-5.539,-5.5842,-5.6118,-5.6219,-5.6219,-5.5616,0.0,0.0,0.0,0.0,-4.9583,0.0,0.0,0.0,-4.8566,-4.8356,0.0,0.0,0.0,0.0,0.0,0.0,0.0,0.0,0.0,0.0,0.0,0.0,0.0,0.0,0.0,0.0,-5.7056,-5.8979,-5.7543,-5.7902,-6.0835,-6.1762,-6.3049,-6.4844,-6.5622,-6.6311,-6.6969,-6.6999,-6.6999,-6.6999,-6.6999,-6.6999,-6.6999,-6.6999,-6.6999,-6.6999,-6.6999,-6.6999,-6.7029,-6.7627,-6.8315,-6.9004,-6.9004,-6.8944,-6.8884,-6.8974,-6.8136,-6.6999,-6.6999,-6.6999,-6.6999,-6.6999,-6.6999,-6.6999,-6.6999,-6.6999,-6.6999,-6.6999,-6.6999,-6.6849,-6.6191,-6.5533,-6.4844,-6.4156,-6.3528,-6.3079,-6.3079,-6.3079,-6.3079,-6.3079,-6.3079,-6.3079,-6.3079,-6.3079,-6.3109,-6.3169,-6.3169,-6.3169,-6.3169,-6.3169,-6.3169,-6.3079,-6.3079,-6.3079,-6.3079,-6.3079,-6.1614,-5.8194,-5.8005,-5.6493,-5.3042,-5.2929,-5.3181,-5.3683,-5.3758,-5.4336,-5.539,-5.544,-5.5742,-5.6219,-5.6219,-5.5616,0.0,0.0,0.0,0.0,0.0,0.0,-4.8865,0.0,-4.7758,0.0,0.0,0.0,0.0,0.0,0.0,0.0,0.0,0.0,0.0,0.0,0.0,0.0,0.0,0.0,0.0,0.0,0.0,0.0,0.0,-5.7992,-6.0954,-6.2091,-6.3199,-6.4395,-6.5473,-6.6311,-6.6969,-6.6999,-6.6999,-6.6999,-6.6999,-6.6999,-6.6999,-6.6999,-6.6999,-6.6999,-6.6999,-6.6999,-6.7029,-6.7687,-6.8375,-6.9034,-6.9423,-6.9333,-6.9004,-6.9004,-6.8136,-6.6999,-6.6999,-6.6999,-6.6999,-6.6999,-6.6999,-6.6999,-6.6999,-6.6999,-6.6999,-6.6999,-6.6999,-6.6759,-6.5712,-6.5233,-6.4755,-6.3707,-6.3258,-6.3079,-6.3079,-6.3079,-6.3079,-6.3079,-6.3079,-6.3079,-6.3079,-6.3079,-6.3079,-6.3079,-6.3079,-6.3079,-6.3079,-6.3079,-6.3079,-6.3079,-6.3079,-6.3079,-6.3079,-6.3079,-6.1614,-5.8194,-5.6168,-5.4392,-5.2998,-5.2929,-5.303,-5.3256,-5.3557,-5.411,-5.4913,-5.5239,-5.5666,-5.6194,-5.5892,-5.5491,-5.2378,0.0,0.0,0.0,0.0,0.0,0.0,0.0,0.0,0.0,0.0,0.0,0.0,0.0,0.0,0.0,0.0,0.0,0.0,0.0,0.0,0.0,0.0,0.0,0.0,0.0,0.0,0.0,0.0,0.0,-6.1194,-6.245,-6.3378,-6.3977,-6.5293,-6.6251,-6.6729,-6.6909,-6.6999,-6.6999,-6.6999,-6.6999,-6.6999,-6.6999,-6.6999,-6.6999,-6.6999,-6.6999,-6.7059,-6.7897,-6.8555,-6.9064,-6.9722,-6.9572,-6.9004,-6.9004,-6.8136,-6.6999,-6.6999,-6.6999,-6.6999,-6.6999,-6.6999,-6.6999,-6.6999,-6.6999,-6.6999,-6.6999,-6.6849,-6.646,-6.5323,-6.4874,-6.4455,-6.3348,-6.3079,-6.3079,-6.3079,-6.3079,-6.3079,-6.3079,-6.3079,-6.3079,-6.3079,-6.3079,-6.3079,-6.3079,-6.3079,-6.3079,-6.3079,-6.3079,-6.3079,-6.3079,-6.3079,-6.3079,-6.3079,-6.3079,-6.1614,-5.8194,-5.4768,-5.2929,-5.2929,-5.2929,-5.2929,-5.2929,-5.3306,-5.3758,-5.4336,-5.4888,-5.5365,-5.5742,-5.5491,-5.539,0.0,0.0,0.0,-5.0467,0.0,0.0,0.0,0.0,-4.909,0.0,0.0,0.0,0.0,0.0,-4.9269,-4.9269,0.0,0.0,0.0,0.0,0.0,0.0,0.0,0.0,0.0,0.0,0.0,0.0,0.0,0.0,-6.1792,-6.272,-6.3378,-6.3977,-6.5293,-6.6011,-6.6041,-6.667,-6.6999,-6.6999,-6.6999,-6.6999,-6.6999,-6.6999,-6.6999,-6.6999,-6.6999,-6.6999,-6.7089,-6.8405,-6.8974,-6.9064,-6.9722,-6.9572,-6.9004,-6.9004,-6.8136,-6.6999,-6.6999,-6.6999,-6.6999,-6.6999,-6.6999,-6.6999,-6.6999,-6.6999,-6.6999,-6.6999,-6.652,-6.5892,-6.5203,-6.4545,-6.3857,-6.3228,-6.3079,-6.3079,-6.3079,-6.3079,-6.3079,-6.3079,-6.3079,-6.3079,-6.3079,-6.3079,-6.3079,-6.3079,-6.3079,-6.3079,-6.3079,-6.3079,-6.3079,-6.3079,-6.3079,-6.3079,-6.3079,-6.3079,-6.1614,-5.8194,-5.4768,-5.2929,-5.2929,-5.2929,-5.2929,-5.2929,-5.2955,-5.3206,-5.3733,-5.431,-5.4587,-5.4637,-5.5139,-5.539,0.0,0.0,-5.8231,-5.3144,0.0,0.0,0.0,0.0,0.0,0.0,0.0,0.0,0.0,0.0,-4.9179,-4.8686,0.0,0.0,0.0,0.0,0.0,0.0,0.0,0.0,0.0,0.0,0.0,0.0,0.0,0.0,0.0,-6.2959,-6.3378,-6.3977,-6.4874,-6.5562,-6.6011,-6.667,-6.6999,-6.6999,-6.6999,-6.6999,-6.6999,-6.6999,-6.6999,-6.6999,-6.6999,-6.7238,-6.7717,-6.8615,-6.9004,-6.9064,-6.9722,-6.9303,-6.8315,-6.8315,-6.7747,-6.6999,-6.6999,-6.6999,-6.6999,-6.6999,-6.6999,-6.6999,-6.6999,-6.6999,-6.6999,-6.6999,-6.6819,-6.64,-6.5323,-6.4844,-6.4425,-6.3318,-6.3079,-6.3079,-6.3079,-6.3079,-6.3079,-6.3079,-6.3079,-6.3079,-6.3079,-6.3079,-6.3079,-6.3079,-6.3079,-6.3079,-6.3079,-6.3079,-6.3079,-6.3079,-6.3079,-6.3079,-6.3079,-6.1048,-5.9194,-5.8068,-5.4768,-5.2929,-5.2929,-5.2929,-5.2929,-5.2929,-5.2929,-5.3181,-5.3708,-5.4285,-5.4762,-5.5114,-5.4938,-5.5039,-5.9129,-5.9757,0.0,-5.5329,-5.491,0.0,-5.0571,0.0,0.0,0.0,0.0,0.0,0.0,0.0,0.0,0.0,0.0,0.0,0.0,0.0,0.0,0.0,0.0,0.0,0.0,0.0,0.0,0.0,0.0,0.0,0.0,0.0,-6.3258,-6.3647,-6.4545,-6.5233,-6.5652,-6.655,-6.6999,-6.6999,-6.6999,-6.6999,-6.6999,-6.6999,-6.6999,-6.6999,-6.6999,-6.7358,-6.8016,-6.8704,-6.9004,-6.9034,-6.9482,-6.8944,-6.7956,-6.7956,-6.7567,-6.6999,-6.6999,-6.6999,-6.6999,-6.6999,-6.6999,-6.6999,-6.6999,-6.6999,-6.6999,-6.6999,-6.667,-6.6101,-6.5233,-6.4695,-6.4126,-6.3288,-6.3079,-6.3079,-6.3079,-6.3079,-6.3079,-6.3079,-6.3079,-6.3079,-6.3079,-6.3079,-6.3079,-6.3079,-6.3079,-6.3079,-6.3079,-6.3079,-6.3079,-6.3079,-6.3079,-6.3079,-6.3079,-6.0508,-5.8606,-5.8068,-5.534,-5.3538,-5.2929,-5.2929,-5.3105,-5.3507,-5.313,-5.3281,-5.4009,-5.4185,-5.4436,-5.4787,-5.4637,-5.4863]},{"header":{"parameterUnit":"m.s-1","parameterCategory":1,"la1":30.6,"la2":29.2853,"lo1":-89.7004,"lo2":-87.6739,"dx":0.0162,"dy":0.0183,"nx":112,"ny":82,"refTime":"2022-11-25T06:00:00:Z","depth":0,"parameterNumber":3,"parameterNumberName":"V-component_of_WINDS"},"data":[0.0,0.0,0.0,0.0,0.0,0.0,0.0,0.0,0.0,0.0,0.0,0.0,0.0,0.0,0.0,0.0,0.0,0.0,0.0,0.0,0.0,0.0,0.0,0.0,0.0,0.0,0.0,0.0,0.0,0.0,0.0,0.0,0.0,0.0,0.0,0.0,0.0,0.0,0.0,0.0,0.0,0.0,0.0,0.0,0.0,0.0,0.0,0.0,0.0,0.0,0.0,0.0,0.0,0.0,0.0,0.0,0.0,0.0,0.0,0.0,0.0,0.0,0.0,0.0,0.0,0.0,0.0,0.0,0.0,0.0,0.0,0.0,0.0,0.0,0.0,0.0,0.0,0.0,0.0,0.0,0.0,0.0,0.0,0.0,0.0,0.0,0.0,0.0,0.0,0.0,4.8917,4.9154,4.9729,4.983,4.9221,4.9187,4.8578,4.7225,0.0,0.0,0.0,0.0,0.0,0.0,0.0,0.0,0.0,0.0,0.0,0.0,0.0,0.0,0.0,0.0,0.0,0.0,0.0,0.0,0.0,0.0,0.0,0.0,0.0,0.0,0.0,0.0,0.0,0.0,0.0,0.0,0.0,0.0,0.0,0.0,0.0,0.0,0.0,0.0,0.0,0.0,0.0,0.0,0.0,0.0,0.0,0.0,0.0,0.0,0.0,0.0,0.0,0.0,0.0,0.0,0.0,0.0,0.0,0.0,0.0,0.0,0.0,0.0,0.0,0.0,0.0,0.0,0.0,0.0,0.0,0.0,0.0,0.0,0.0,0.0,0.0,0.0,0.0,0.0,0.0,0.0,0.0,0.0,0.0,0.0,0.0,0.0,0.0,0.0,0.0,0.0,0.0,0.0,0.0,0.0,0.0,0.0,0.0,0.0,0.0,0.0,0.0,0.0,4.8545,4.9796,5.0033,5.0033,4.9932,4.9932,4.956,4.8714,0.0,0.0,0.0,0.0,0.0,0.0,0.0,0.0,0.0,0.0,0.0,0.0,0.0,0.0,0.0,0.0,0.0,0.0,0.0,0.0,0.0,0.0,0.0,0.0,0.0,0.0,0.0,0.0,0.0,0.0,0.0,0.0,0.0,0.0,0.0,0.0,0.0,0.0,0.0,0.0,0.0,0.0,0.0,0.0,0.0,0.0,0.0,0.0,0.0,0.0,0.0,0.0,0.0,0.0,0.0,0.0,0.0,0.0,0.0,0.0,0.0,0.0,0.0,0.0,0.0,0.0,0.0,0.0,0.0,0.0,0.0,0.0,0.0,0.0,0.0,0.0,0.0,0.0,0.0,0.0,0.0,0.0,0.0,0.0,0.0,0.0,0.0,0.0,0.0,0.0,0.0,0.0,0.0,0.0,0.0,0.0,0.0,0.0,0.0,0.0,0.0,0.0,0.0,5.055,5.1511,5.3043,5.2456,5.1758,5.1319,5.0913,5.0202,4.9086,4.8037,0.0,0.0,0.0,0.0,0.0,0.0,0.0,0.0,0.0,0.0,0.0,0.0,0.0,0.0,0.0,0.0,0.0,0.0,0.0,0.0,0.0,0.0,0.0,0.0,0.0,0.0,0.0,0.0,0.0,0.0,0.0,0.0,0.0,0.0,0.0,0.0,0.0,0.0,0.0,0.0,0.0,0.0,0.0,0.0,0.0,0.0,0.0,0.0,0.0,0.0,0.0,0.0,0.0,0.0,0.0,0.0,0.0,0.0,0.0,0.0,0.0,0.0,0.0,0.0,0.0,0.0,0.0,0.0,0.0,0.0,0.0,0.0,0.0,0.0,0.0,0.0,0.0,0.0,0.0,0.0,0.0,0.0,0.0,0.0,0.0,0.0,0.0,0.0,0.0,0.0,0.0,0.0,0.0,0.0,0.0,0.0,0.0,0.0,0.0,0.0,0.0,0.0,5.3619,5.4447,5.5393,5.4489,5.3446,5.2638,5.1894,5.0913,4.9593,4.9357,0.0,0.0,0.0,0.0,0.0,0.0,0.0,0.0,0.0,0.0,0.0,0.0,0.0,0.0,0.0,0.0,0.0,0.0,0.0,0.0,0.0,0.0,0.0,0.0,0.0,0.0,0.0,0.0,0.0,0.0,0.0,0.0,0.0,0.0,0.0,0.0,0.0,0.0,0.0,0.0,0.0,0.0,0.0,0.0,0.0,0.0,0.0,0.0,0.0,0.0,0.0,0.0,0.0,0.0,0.0,0.0,0.0,0.0,0.0,0.0,0.0,0.0,0.0,0.0,0.0,0.0,0.0,0.0,0.0,0.0,0.0,0.0,0.0,0.0,0.0,0.0,0.0,0.0,0.0,0.0,0.0,0.0,0.0,0.0,0.0,0.0,0.0,0.0,0.0,0.0,0.0,0.0,0.0,0.0,0.0,0.0,0.0,0.0,0.0,0.0,0.0,0.0,5.3883,5.5399,5.4737,5.4615,5.4261,5.3483,5.2672,5.1894,5.1083,5.0405,0.0,0.0,0.0,0.0,0.0,0.0,0.0,0.0,0.0,0.0,0.0,0.0,0.0,0.0,0.0,0.0,0.0,0.0,0.0,0.0,0.0,0.0,0.0,0.0,0.0,0.0,0.0,0.0,0.0,0.0,0.0,0.0,0.0,0.0,0.0,0.0,0.0,0.0,0.0,0.0,0.0,0.0,0.0,0.0,0.0,0.0,0.0,0.0,0.0,0.0,0.0,0.0,0.0,0.0,0.0,0.0,0.0,0.0,0.0,0.0,0.0,0.0,0.0,0.0,0.0,0.0,0.0,0.0,0.0,0.0,0.0,0.0,0.0,0.0,0.0,0.0,0.0,0.0,0.0,0.0,0.0,0.0,0.0,0.0,0.0,0.0,0.0,0.0,0.0,0.0,0.0,0.0,0.0,0.0,0.0,0.0,0.0,0.0,0.0,0.0,0.0,0.0,5.6673,5.8023,0.0,5.7332,5.6429,5.5617,5.4871,5.3721,5.1995,0.0,0.0,0.0,0.0,0.0,0.0,0.0,0.0,0.0,0.0,0.0,0.0,0.0,0.0,0.0,0.0,0.0,0.0,0.0,0.0,0.0,0.0,0.0,0.0,0.0,0.0,0.0,0.0,0.0,0.0,0.0,0.0,0.0,0.0,0.0,0.0,0.0,0.0,0.0,0.0,0.0,0.0,0.0,0.0,0.0,0.0,0.0,0.0,0.0,0.0,0.0,0.0,0.0,0.0,0.0,0.0,0.0,0.0,0.0,0.0,0.0,0.0,0.0,0.0,0.0,0.0,0.0,0.0,0.0,0.0,0.0,0.0,0.0,0.0,0.0,0.0,0.0,0.0,0.0,0.0,0.0,0.0,0.0,0.0,0.0,0.0,0.0,0.0,0.0,0.0,0.0,0.0,0.0,0.0,0.0,0.0,0.0,0.0,0.0,0.0,0.0,0.0,5.668,5.8968,6.0487,0.0,5.9561,5.835,5.7245,5.6258,5.4735,5.2435,0.0,0.0,0.0,0.0,0.0,0.0,0.0,0.0,0.0,0.0,0.0,0.0,0.0,0.0,0.0,0.0,0.0,0.0,0.0,0.0,0.0,0.0,0.0,0.0,0.0,0.0,0.0,0.0,0.0,0.0,0.0,0.0,0.0,0.0,0.0,0.0,0.0,0.0,0.0,0.0,0.0,0.0,0.0,0.0,0.0,0.0,0.0,0.0,0.0,0.0,0.0,0.0,0.0,0.0,0.0,0.0,0.0,0.0,0.0,0.0,0.0,0.0,0.0,0.0,0.0,0.0,0.0,0.0,0.0,0.0,0.0,0.0,0.0,0.0,0.0,0.0,0.0,0.0,0.0,0.0,0.0,0.0,0.0,0.0,0.0,0.0,0.0,0.0,0.0,0.0,0.0,0.0,0.0,0.0,0.0,0.0,0.0,0.0,0.0,0.0,0.0,0.0,5.6816,6.0366,6.2476,6.1603,6.0909,5.9803,5.8063,5.6562,5.4769,0.0,0.0,0.0,0.0,0.0,0.0,0.0,0.0,0.0,0.0,0.0,0.0,0.0,0.0,0.0,0.0,0.0,0.0,0.0,0.0,0.0,0.0,0.0,0.0,0.0,0.0,0.0,0.0,0.0,0.0,0.0,0.0,0.0,0.0,0.0,0.0,0.0,0.0,0.0,0.0,0.0,0.0,0.0,0.0,0.0,0.0,0.0,0.0,0.0,0.0,0.0,0.0,0.0,0.0,0.0,0.0,0.0,0.0,0.0,0.0,0.0,0.0,0.0,0.0,0.0,0.0,0.0,0.0,0.0,0.0,0.0,0.0,0.0,0.0,0.0,0.0,0.0,0.0,0.0,0.0,0.0,0.0,0.0,0.0,0.0,0.0,0.0,0.0,0.0,0.0,0.0,0.0,0.0,0.0,0.0,0.0,0.0,0.0,0.0,0.0,0.0,0.0,0.0,5.8417,6.204,6.4002,6.2502,6.1718,6.0574,5.8807,5.7814,5.6089,5.3315,0.0,0.0,0.0,0.0,0.0,0.0,0.0,0.0,0.0,0.0,0.0,0.0,0.0,0.0,0.0,0.0,0.0,0.0,0.0,0.0,0.0,0.0,0.0,0.0,0.0,0.0,0.0,0.0,0.0,0.0,0.0,0.0,0.0,0.0,0.0,0.0,0.0,0.0,0.0,0.0,0.0,0.0,0.0,0.0,0.0,0.0,0.0,0.0,0.0,0.0,0.0,0.0,0.0,0.0,0.0,0.0,0.0,0.0,0.0,0.0,0.0,0.0,0.0,0.0,0.0,0.0,0.0,0.0,0.0,0.0,0.0,0.0,0.0,0.0,0.0,0.0,0.0,0.0,0.0,0.0,0.0,0.0,0.0,0.0,0.0,0.0,0.0,0.0,0.0,0.0,0.0,0.0,0.0,0.0,0.0,0.0,0.0,0.0,0.0,0.0,0.0,0.0,5.91,6.2743,6.4886,6.378,6.2955,6.1967,6.0549,5.9426,5.778,5.5412,0.0,0.0,0.0,0.0,0.0,0.0,0.0,0.0,0.0,0.0,0.0,0.0,0.0,0.0,0.0,0.0,0.0,0.0,0.0,0.0,0.0,0.0,0.0,0.0,0.0,0.0,0.0,0.0,0.0,0.0,0.0,0.0,0.0,0.0,0.0,0.0,0.0,0.0,0.0,0.0,0.0,0.0,0.0,0.0,0.0,0.0,0.0,0.0,0.0,0.0,0.0,0.0,0.0,0.0,0.0,0.0,0.0,0.0,0.0,0.0,0.0,0.0,0.0,0.0,0.0,0.0,0.0,0.0,0.0,0.0,0.0,0.0,0.0,0.0,0.0,0.0,0.0,0.0,0.0,0.0,0.0,0.0,0.0,0.0,0.0,0.0,0.0,0.0,0.0,0.0,0.0,0.0,0.0,0.0,0.0,0.0,0.0,0.0,0.0,0.0,0.0,0.0,5.9221,6.2952,6.545,6.5235,6.4505,6.367,6.2788,6.1273,5.9735,5.8239,0.0,0.0,0.0,0.0,0.0,0.0,0.0,0.0,0.0,0.0,0.0,0.0,0.0,0.0,0.0,0.0,0.0,0.0,0.0,0.0,0.0,0.0,0.0,0.0,0.0,0.0,0.0,0.0,0.0,0.0,0.0,0.0,0.0,0.0,0.0,0.0,0.0,0.0,0.0,0.0,0.0,0.0,0.0,0.0,0.0,0.0,0.0,0.0,0.0,0.0,0.0,0.0,0.0,0.0,0.0,0.0,0.0,0.0,0.0,0.0,5.4429,0.0,0.0,0.0,0.0,0.0,0.0,0.0,0.0,0.0,0.0,0.0,0.0,0.0,0.0,0.0,0.0,0.0,0.0,0.0,0.0,0.0,0.0,0.0,0.0,0.0,0.0,0.0,0.0,0.0,0.0,0.0,0.0,0.0,0.0,0.0,0.0,0.0,0.0,0.0,0.0,0.0,6.0126,6.4273,6.6902,6.6204,6.5382,6.4593,6.3703,6.2767,6.1576,6.0097,5.9721,0.0,0.0,0.0,0.0,0.0,0.0,0.0,0.0,0.0,0.0,0.0,0.0,0.0,0.0,0.0,0.0,0.0,0.0,0.0,0.0,0.0,0.0,0.0,0.0,0.0,0.0,0.0,0.0,0.0,0.0,0.0,0.0,0.0,0.0,0.0,0.0,0.0,0.0,0.0,0.0,0.0,0.0,0.0,0.0,0.0,0.0,0.0,0.0,0.0,0.0,0.0,0.0,0.0,0.0,0.0,0.0,0.0,0.0,0.0,0.0,5.5502,0.0,0.0,0.0,0.0,0.0,0.0,0.0,0.0,0.0,0.0,0.0,0.0,0.0,0.0,0.0,0.0,0.0,0.0,0.0,0.0,0.0,0.0,0.0,0.0,0.0,0.0,0.0,0.0,0.0,0.0,0.0,0.0,0.0,0.0,0.0,0.0,0.0,0.0,0.0,0.0,6.0346,6.4347,6.6966,6.6506,6.6025,6.5569,6.514,6.4333,6.3541,6.2758,6.2027,0.0,0.0,0.0,0.0,0.0,0.0,0.0,0.0,0.0,0.0,0.0,0.0,0.0,0.0,0.0,0.0,0.0,0.0,0.0,0.0,0.0,0.0,0.0,0.0,0.0,0.0,0.0,0.0,0.0,0.0,0.0,0.0,0.0,0.0,0.0,0.0,0.0,0.0,0.0,0.0,0.0,0.0,0.0,0.0,0.0,0.0,0.0,0.0,0.0,0.0,0.0,0.0,0.0,6.119,6.1263,6.13,6.1924,6.2622,6.3023,5.9204,5.7815,5.8144,5.6885,0.0,0.0,0.0,0.0,0.0,0.0,0.0,0.0,0.0,0.0,0.0,0.0,0.0,0.0,0.0,0.0,0.0,0.0,0.0,0.0,0.0,0.0,0.0,0.0,6.1777,6.1704,5.9685,0.0,0.0,0.0,0.0,0.0,0.0,0.0,0.0,0.0,0.0,0.0,6.0933,6.4347,6.6696,6.6696,6.666,6.6612,6.6612,6.5935,6.5454,6.5454,6.4285,6.2853,0.0,0.0,0.0,0.0,0.0,0.0,0.0,0.0,0.0,0.0,0.0,0.0,0.0,0.0,0.0,0.0,0.0,0.0,0.0,0.0,0.0,0.0,0.0,0.0,0.0,0.0,0.0,0.0,0.0,0.0,0.0,0.0,5.2566,5.3943,0.0,0.0,0.0,0.0,0.0,0.0,0.0,0.0,0.0,0.0,0.0,0.0,0.0,6.0735,6.2325,6.3108,6.35,6.3613,6.431,6.4677,6.4677,6.4787,6.4897,6.4945,6.4339,0.0,6.3126,6.2943,0.0,0.0,0.0,0.0,0.0,0.0,0.0,0.0,0.0,0.0,0.0,0.0,0.0,0.0,0.0,0.0,0.0,0.0,0.0,0.0,0.0,0.0,6.453,6.464,6.4751,6.4751,0.0,6.2108,6.0015,5.9795,5.9758,0.0,0.0,0.0,0.0,0.0,0.0,0.0,6.3392,6.5888,6.754,6.754,6.7533,6.7515,6.7515,6.7433,6.7341,6.7341,6.7131,6.6023,6.3748,6.2291,0.0,0.0,0.0,0.0,0.0,0.0,0.0,0.0,0.0,0.0,0.0,0.0,0.0,0.0,0.0,0.0,0.0,0.0,0.0,0.0,0.0,0.0,0.0,0.0,0.0,0.0,0.0,0.0,0.0,5.2949,5.3915,5.4575,5.5125,5.5267,0.0,0.0,0.0,0.0,0.0,0.0,0.0,0.0,0.0,6.2532,6.3006,6.3758,6.4861,6.5705,6.6109,6.6109,6.6476,6.6659,6.6659,6.6659,6.6659,6.6659,6.6659,6.6439,6.5999,6.464,6.3649,6.2952,0.0,0.0,0.0,0.0,6.1961,6.1386,6.2695,6.2879,6.2401,6.1924,0.0,0.0,0.0,0.0,0.0,0.0,0.0,0.0,0.0,0.0,6.5521,6.6439,6.6659,6.6659,6.6659,6.5521,6.3943,0.0,6.1777,6.097,5.8437,0.0,0.0,0.0,0.0,6.3429,6.4604,6.6476,6.7687,6.7687,6.7687,6.7687,6.7687,6.7687,6.7687,6.7687,6.7687,6.721,6.6145,6.4213,6.2431,0.0,0.0,0.0,0.0,0.0,0.0,0.0,0.0,0.0,0.0,0.0,0.0,0.0,0.0,0.0,0.0,0.0,0.0,0.0,0.0,0.0,0.0,0.0,0.0,0.0,0.0,0.0,0.0,5.4911,5.5767,5.6322,5.7469,5.7815,0.0,0.0,0.0,0.0,0.0,0.0,6.2577,6.3356,6.4127,6.4971,6.5595,6.6219,6.6806,6.7393,6.7687,6.7687,6.7687,6.7687,6.7687,6.7687,6.7687,6.7687,6.7687,6.7687,6.754,6.5742,6.4897,6.464,6.4016,6.3613,6.3539,6.4383,6.431,6.3943,6.5411,6.5521,6.4897,6.4273,6.3796,6.322,6.2034,0.0,0.0,0.0,0.0,6.409,6.5558,6.6072,6.6512,6.7724,6.8164,6.8311,6.8311,6.8311,6.7467,0.0,6.4053,6.3172,6.0346,0.0,0.0,0.0,0.0,6.4751,6.5778,6.6953,6.7687,6.7687,6.7687,6.7687,6.7687,6.7687,6.7687,6.7687,6.7687,6.7606,6.7378,6.5883,6.4636,6.3732,0.0,0.0,0.0,0.0,0.0,0.0,0.0,0.0,0.0,0.0,0.0,0.0,0.0,0.0,0.0,0.0,0.0,0.0,0.0,0.0,0.0,0.0,0.0,0.0,0.0,0.0,0.0,0.0,0.0,6.097,6.1325,0.0,0.0,0.0,0.0,6.2558,6.3415,6.4259,6.5066,6.5862,6.6659,6.7467,6.754,6.7577,6.7614,6.7677,6.7687,6.7687,6.7687,6.7687,6.7687,6.7687,6.7687,6.7687,6.7687,6.7687,6.7687,6.7567,6.7063,6.6366,6.6329,6.5852,6.5264,6.6072,6.6366,6.6439,6.7283,6.754,6.7504,6.7467,6.6402,6.5154,6.5081,6.4567,0.0,0.0,6.5705,6.6512,6.7357,6.8164,6.8752,6.8825,6.9412,6.9963,6.9963,6.9963,6.9486,0.0,6.743,6.6916,6.5228,0.0,6.5044,6.5007,6.5154,6.5815,6.7357,6.7677,6.7687,6.7687,6.7687,6.7687,6.7687,6.7687,6.7687,6.7687,6.7687,6.7314,6.6493,6.7148,6.6007,6.2831,6.2658,0.0,0.0,0.0,0.0,0.0,0.0,0.0,0.0,0.0,0.0,0.0,0.0,0.0,0.0,0.0,0.0,0.0,0.0,0.0,0.0,0.0,0.0,0.0,0.0,0.0,0.0,0.0,0.0,6.2266,6.3319,0.0,6.3649,6.4567,6.5191,6.5191,6.5962,6.6512,6.6843,6.71,6.7393,6.7687,6.7687,6.7687,6.7687,6.7687,6.7687,6.7714,6.8201,6.8458,6.8495,6.9009,6.9229,6.9229,6.9229,6.9229,6.9229,6.9229,6.8458,6.7247,6.7247,6.71,6.688,6.7173,6.7247,6.7283,6.7577,6.7687,6.7797,6.8311,6.8091,6.7724,6.8238,6.8201,6.8017,6.8311,6.8605,6.8862,6.9155,6.9449,6.9669,6.9669,6.9889,7.011,7.011,7.011,6.9926,6.9339,6.9229,6.8715,6.71,6.7687,6.8054,6.699,6.7724,6.8605,6.9155,6.9229,6.9229,6.9229,6.9229,6.9229,6.9229,6.9229,6.9229,6.9229,6.8231,6.7491,6.7192,6.6372,6.5412,6.4211,6.4175,6.1946,0.0,0.0,0.0,0.0,0.0,0.0,0.0,0.0,0.0,0.0,0.0,0.0,0.0,0.0,0.0,0.0,0.0,0.0,0.0,0.0,0.0,0.0,0.0,0.0,0.0,0.0,6.3356,6.3613,6.4861,6.5521,6.4971,6.6109,6.688,6.688,6.7393,6.7687,6.7687,6.7687,6.7797,6.8091,6.8091,6.8238,6.8495,6.8495,6.8495,6.8495,6.9045,6.9302,6.9339,6.9853,7.011,7.011,7.011,7.011,7.011,7.011,6.9449,6.8495,6.8495,6.8495,6.8495,6.8495,6.8495,6.8495,6.8495,6.8495,6.8605,6.9119,6.9302,6.9412,6.9926,7.011,7.011,7.011,7.011,7.011,7.011,7.0293,7.0513,7.0513,7.0697,7.0917,7.0917,7.0917,7.0917,7.0917,7.0477,6.9743,6.8678,6.9376,6.9633,6.8311,6.9229,7.0,6.9743,6.9926,7.011,7.011,7.011,7.011,7.011,6.9596,6.9375,6.9631,6.8077,6.7132,6.7059,6.5483,6.4478,6.4176,6.393,6.1773,5.767,0.0,0.0,0.0,0.0,0.0,0.0,0.0,0.0,0.0,0.0,0.0,0.0,0.0,0.0,0.0,0.0,0.0,0.0,0.0,0.0,0.0,0.0,0.0,6.1814,6.3135,6.4457,6.5301,6.6072,6.6549,6.6549,6.7247,6.7687,6.7687,6.7687,6.7714,6.7724,6.7724,6.8091,6.8898,6.8935,6.9302,7.0073,7.011,7.011,7.011,7.011,7.0146,7.0146,7.0146,7.0183,7.0183,7.0183,7.0183,7.0183,7.0183,7.0183,7.0183,7.011,7.011,7.011,7.011,7.011,7.011,7.011,7.011,7.011,7.011,7.0146,7.0146,7.0183,7.0183,7.0183,7.0183,7.0183,7.0183,7.0183,7.077,7.1329,7.1329,7.1945,7.2496,7.2496,7.2496,7.2496,7.2496,7.1248,7.0183,7.0183,7.0183,6.9926,6.9119,6.9669,0.0,6.9119,6.9706,7.0146,7.0146,7.0146,7.0146,7.0082,6.8651,6.8061,6.8682,6.722,6.6212,6.5937,6.4671,6.3509,6.268,6.1883,6.0698,5.9099,0.0,0.0,0.0,0.0,0.0,0.0,0.0,0.0,0.0,0.0,0.0,0.0,0.0,0.0,0.0,0.0,0.0,0.0,0.0,0.0,0.0,6.3025,6.4567,6.431,6.5191,6.6145,6.6953,6.7247,6.7357,6.7357,6.7577,6.7687,6.7687,6.7687,6.7944,6.8531,6.8568,6.8935,6.9743,6.9779,6.9889,7.011,7.011,7.011,7.011,7.0697,7.0991,7.0991,7.1578,7.1835,7.1835,7.1835,7.1835,7.1835,7.1835,7.1835,7.1725,7.055,7.011,7.011,7.011,7.011,7.011,7.011,7.011,7.0183,7.077,7.0991,7.1101,7.1651,7.1835,7.1835,7.1835,7.1835,7.1835,7.1835,7.2018,7.2165,7.2165,7.2349,7.2496,7.2496,7.2496,7.2496,7.2496,7.2129,7.1835,7.1835,7.1835,7.1762,7.1541,7.1688,0.0,7.1541,7.1688,7.1615,7.1027,7.0991,7.0689,6.9987,6.9527,6.9332,6.9415,6.7835,6.6837,6.6768,6.5241,6.4273,6.4069,6.2263,6.1125,0.0,0.0,0.0,0.0,0.0,0.0,0.0,0.0,0.0,0.0,0.0,0.0,0.0,0.0,0.0,0.0,0.0,0.0,0.0,0.0,0.0,0.0,6.4934,6.6329,6.6329,6.6696,6.7173,6.7614,6.7687,6.7687,6.7687,6.7687,6.7834,6.8164,6.8201,6.8531,6.9376,6.9412,6.9779,7.0587,7.0587,7.077,7.1101,7.1101,7.1101,7.1101,7.1578,7.1798,7.1835,7.2312,7.2496,7.2496,7.2496,7.2496,7.2496,7.2496,7.2496,0.0,0.0,0.0,0.0,0.0,7.1101,7.1101,7.1101,7.1101,7.1174,7.1651,7.1798,7.1908,7.2349,7.2496,7.2496,7.2496,7.2496,7.2496,7.2496,7.2496,7.2496,7.2496,7.2496,7.2496,7.2496,7.2496,7.2496,7.2496,7.2496,0.0,7.2496,7.2496,7.2386,7.2055,7.2275,7.2386,7.2055,7.2312,7.2312,7.1872,7.1472,7.1011,7.0441,6.9408,0.0,0.0,0.0,6.6263,6.5637,6.4631,0.0,0.0,0.0,0.0,0.0,0.0,0.0,0.0,6.1319,6.148,0.0,0.0,0.0,0.0,0.0,0.0,0.0,0.0,0.0,0.0,0.0,0.0,0.0,0.0,0.0,0.0,6.6696,6.7687,6.7687,6.7687,6.7687,6.7687,6.7687,6.7687,6.7687,6.776,6.8128,6.8862,6.8972,6.9412,7.0183,0.0,0.0,0.0,0.0,7.1798,7.2496,7.2496,7.2496,7.2496,7.2496,7.2496,7.2496,7.2496,7.2496,7.2496,7.2496,7.2496,7.2496,7.2496,7.2496,7.2496,7.2496,7.2496,7.2496,7.2496,7.2496,7.2496,7.2496,0.0,0.0,7.2496,7.2496,7.2496,7.2496,7.2496,7.2496,7.2496,7.2496,7.2496,7.2496,7.2496,7.2496,7.2496,7.2496,7.2496,7.2496,7.2496,7.2496,7.2496,7.2496,7.2496,7.2496,7.2496,7.2275,7.1541,7.2055,7.2239,7.1513,7.2055,7.2459,7.2386,0.0,0.0,7.0822,6.8635,6.7478,6.8003,6.6708,6.5319,6.3903,6.3869,6.3565,6.2888,6.2888,6.3531,6.485,6.5593,6.5983,6.5918,6.2771,6.2345,0.0,0.0,0.0,0.0,0.0,0.0,0.0,0.0,0.0,0.0,0.0,0.0,0.0,0.0,0.0,6.6219,6.7063,6.7687,6.7687,6.7687,6.7687,6.7687,6.7687,6.7687,6.7687,6.8274,6.8752,6.8898,6.9486,7.022,7.1027,7.1064,7.1431,7.2239,7.2275,7.2349,7.2496,7.2496,7.2496,7.2496,0.0,0.0,7.2496,7.2496,7.2496,7.2496,7.2496,7.2496,7.2496,7.2496,7.2496,7.2496,7.2496,7.2496,7.2496,7.2496,7.2496,7.2496,7.2496,7.2496,7.2496,7.2496,7.2496,7.2496,7.2496,7.2496,0.0,7.2496,7.2496,7.2496,7.2496,7.2496,7.2496,7.2496,7.2496,7.2496,7.2496,7.2496,7.2496,7.2496,7.2496,7.2496,7.2496,7.2496,7.2459,7.2312,7.2422,7.2459,7.2312,7.2422,7.2275,7.1615,7.069,6.9832,6.9063,6.7829,6.7057,6.7086,6.6799,6.6471,6.617,6.617,6.6102,6.5967,6.5967,6.6102,6.6373,6.6547,6.6629,6.6636,6.6175,6.6562,0.0,0.0,0.0,0.0,0.0,0.0,0.0,0.0,0.0,0.0,0.0,6.5411,6.5815,0.0,6.71,6.71,6.743,6.7687,6.7687,6.7687,6.7687,6.7687,6.7687,6.7687,6.7687,6.8421,6.9082,6.9486,7.0257,7.1064,7.1872,7.1908,7.2092,7.2496,7.2496,7.2496,7.2496,7.2496,7.2496,7.2496,7.2496,7.2496,7.2496,7.2496,7.2496,7.2496,7.2496,7.2496,7.2496,7.2496,7.2496,7.2496,7.2496,7.2496,7.2496,7.2496,7.2496,7.2496,7.2496,7.2496,7.2496,7.2496,7.2496,7.2496,7.2496,7.2496,7.2496,7.2496,7.2496,7.2496,7.2496,7.2496,7.2496,7.2496,7.2496,7.2496,7.2496,7.2496,7.2496,7.2496,7.2496,7.2496,7.2496,7.2496,7.2496,7.2496,7.2496,7.2496,7.2496,7.2496,7.2285,7.1794,7.0934,7.0131,6.9545,6.8611,6.8035,6.7971,6.759,6.7354,6.7354,6.7015,6.6812,6.6812,6.6812,6.6812,6.6812,6.6812,6.6812,6.6779,6.6986,6.7246,0.0,0.0,0.0,0.0,0.0,0.0,0.0,6.4237,6.4494,6.6329,6.721,6.7614,6.7467,6.7944,6.8274,6.7981,6.7907,6.7871,6.7724,6.7687,6.766,6.746,6.7606,6.776,6.7907,6.8641,6.9486,7.0257,7.1101,7.1835,7.2459,7.2496,7.2496,7.2496,7.2496,7.2496,7.2496,7.2496,7.2496,7.2496,7.2496,7.2496,7.2496,7.2496,7.2496,7.2496,7.2496,7.2496,7.2496,7.2496,7.2496,7.2496,7.2496,7.2496,7.2496,7.2496,7.2496,7.2496,7.2496,7.2496,7.2496,7.2496,7.2496,7.2496,7.2496,7.2496,7.2496,7.2496,7.2496,7.2496,7.2496,7.2496,7.2496,7.2496,7.2496,7.2496,7.2496,7.2496,7.2496,7.2496,7.2343,7.2226,7.2226,7.2071,7.2011,7.2197,7.2409,7.238,7.2011,7.2247,7.2297,7.1948,7.1233,7.0594,7.0269,6.9527,6.9113,6.9113,6.8504,6.8132,6.8132,6.7557,6.7184,6.7015,6.7015,6.6948,6.6812,6.6812,6.6812,6.6812,6.6948,6.6948,6.1623,6.2765,6.427,6.4872,6.5044,6.5962,0.0,6.9265,6.8898,7.1211,7.1762,7.1615,7.0917,7.0844,7.044,6.9009,6.8788,6.8531,6.7797,6.7687,6.7433,6.6612,6.723,6.7981,6.8715,6.9486,7.0293,7.1138,7.1908,7.2422,7.2496,7.2496,7.2496,7.2496,7.2496,7.2496,7.2496,7.2496,7.2496,7.2496,7.2496,7.2496,7.2496,7.2496,7.2496,7.2496,7.2496,7.2496,7.2496,7.2496,7.2496,7.2496,7.2496,7.2496,7.2496,7.2496,7.2496,7.2496,7.2496,7.2496,7.2496,7.2496,7.2496,7.2496,7.2496,7.2496,7.2496,7.2496,7.2496,7.2496,7.2496,7.2496,7.2496,7.2496,7.2496,7.2496,7.2496,7.2496,7.2496,7.2496,7.1824,7.1255,7.1255,7.0568,7.0298,7.1127,7.1981,7.1921,7.023,7.1311,7.1878,7.1055,7.0696,7.0193,6.9347,6.9166,6.9113,6.9113,6.9011,6.8977,6.8977,6.8876,6.8504,6.7793,6.7793,6.7455,6.6812,6.6812,6.6812,6.6846,6.7489,6.7421,6.6693,6.6765,6.6476,6.7797,6.8091,6.8531,7.022,7.0073,7.0146,7.2092,7.2496,7.2275,7.1439,7.1293,7.077,0.0,6.8463,6.7848,6.7048,6.6487,6.5992,6.5617,6.5899,6.6408,6.7204,6.8929,7.0108,7.0472,7.1721,7.2496,7.2496,7.2496,7.2496,7.2496,7.2496,7.2496,7.2496,7.2496,7.2496,7.2496,7.2496,7.2496,7.2496,7.2496,7.2496,7.2496,7.2496,7.2496,7.2496,7.2496,7.2496,7.2496,7.2496,7.2496,7.2496,7.2496,7.2496,7.2496,7.2496,7.2496,7.2496,7.2496,7.2496,7.2606,7.3046,7.3193,7.3193,7.3193,7.3193,7.3083,7.2606,7.2071,7.1702,7.1702,7.1255,7.0868,7.0868,7.0868,7.0868,7.0868,7.0568,7.0298,7.0298,6.9989,6.9637,6.9423,7.0229,7.0568,6.9814,7.0308,7.07,7.0622,7.0801,7.0779,7.0409,7.0398,7.0398,7.0398,6.9992,6.9722,6.9722,6.9316,6.8944,6.8605,6.8605,6.8436,6.8132,6.8132,6.8132,6.8166,6.847,6.8436,6.9076,6.9009,6.8348,6.9743,7.044,7.077,7.077,7.077,7.1101,7.2275,7.2496,7.2312,7.1762,7.1651,7.1089,6.9462,6.8493,6.7533,6.6464,6.5568,6.49,6.4665,6.4842,6.5057,6.5338,6.7678,6.9469,7.0161,7.1405,7.2226,7.2467,7.2496,7.2496,7.2496,7.2496,7.2496,7.2496,7.2496,7.2496,7.2496,7.2496,7.2496,7.2496,7.2496,7.2496,7.2496,7.2496,7.2496,7.2496,7.2496,7.2642,7.2826,7.2826,7.2973,7.3156,7.3156,7.2899,7.2496,7.2496,7.2496,7.2532,7.2753,7.2826,7.2973,7.378,7.4037,7.4037,7.4037,7.4037,7.3832,7.2971,7.2227,7.1608,7.1126,7.0481,6.9955,6.9743,6.9708,6.9708,6.9708,6.9493,6.9277,6.9277,6.9093,6.8645,6.7945,6.8416,6.8908,6.8908,6.9293,6.9757,7.0347,7.0949,7.1312,7.1312,7.1312,7.1312,7.1312,7.0804,7.05,7.05,6.9992,6.962,6.9417,6.9417,6.9316,6.9113,6.9113,6.9113,6.9113,6.9316,6.9417,6.6335,6.7724,6.9082,6.9889,7.1284,7.2422,7.2422,7.2422,7.2459,7.2496,7.2496,7.2496,7.2459,7.2459,7.1867,7.0134,6.925,6.8107,6.6339,6.5495,6.4665,6.3829,6.4379,6.4456,0.0,6.5889,6.8382,7.0883,7.1091,7.1542,7.2467,7.2496,7.2496,7.2496,7.2496,7.2496,7.2496,7.2496,7.2496,7.2496,7.2496,7.2496,7.2496,7.2496,7.2496,7.2496,7.2496,7.2496,7.2496,7.2496,7.2973,7.367,7.367,7.4147,7.4845,7.4845,7.3854,7.2496,7.2496,7.2496,7.2642,7.3413,7.367,7.3817,7.4625,7.4882,7.4882,7.4882,7.4882,7.4628,7.3635,7.3369,7.2919,7.1233,7.0805,7.0557,6.9849,6.9708,6.9708,6.9708,6.891,6.8227,6.8227,6.7461,6.6896,6.6854,6.6896,6.6896,6.6896,6.8183,6.9403,7.0104,7.0838,7.1312,7.1312,7.1312,7.1312,7.1312,7.1312,7.1278,7.1278,7.1278,7.0906,7.0161,7.0161,6.9789,6.9113,6.9113,6.9113,6.9113,6.9823,7.0161,6.8192,6.9265,7.0036,7.1358,7.2092,7.2496,7.2496,7.2496,7.2496,7.2496,7.2496,7.2167,7.1041,7.1246,7.0821,6.8546,6.7478,6.6567,6.5406,6.4097,6.3165,6.2893,6.3056,0.0,0.0,0.0,0.0,6.8396,6.953,7.0568,7.1511,7.1573,7.1854,7.2467,7.2496,7.2496,7.2496,7.2496,7.2496,7.2496,7.2496,7.2496,7.2496,7.2496,7.2496,7.2496,7.2496,7.2789,7.3303,7.3303,7.378,7.4515,7.4515,7.4661,7.4918,7.4918,7.4588,7.4111,7.4111,7.3744,7.3413,7.4221,7.4515,7.4505,7.4643,7.47,7.457,7.3894,7.3721,7.3508,7.2656,7.1972,7.1342,7.0713,7.0124,6.946,6.8676,6.8538,6.8538,6.8538,6.8213,6.8171,6.8717,6.8557,6.8132,6.7624,6.7117,6.6812,6.6812,6.7692,6.8605,6.9383,7.0128,7.077,7.1278,7.1312,7.1312,7.1312,7.1312,7.1312,7.1312,7.1312,7.121,7.0939,7.0939,7.0804,7.0567,7.0567,7.0567,7.0567,7.0804,7.0939,6.9197,7.011,7.0477,7.2092,7.2496,7.2409,7.2071,7.2011,7.1885,7.1542,7.1293,7.0775,6.9689,6.9881,6.9475,6.72,6.6345,6.5619,6.4515,6.3456,6.2787,6.2787,6.2787,6.299,0.0,0.0,0.0,6.708,6.8378,6.9566,7.0568,7.0898,7.1386,7.1981,7.2314,7.2496,7.2496,7.2496,7.2496,7.2496,7.2496,7.2496,7.2496,7.2496,7.2679,7.2936,7.2936,7.3377,7.4147,7.4147,7.4588,7.5322,7.5322,7.5506,7.5763,7.5763,7.5579,7.5285,7.5028,7.4551,7.4258,7.5065,7.5074,7.4842,7.4947,7.4755,7.4369,7.3716,7.3529,7.3348,7.2437,7.1787,7.1151,7.0533,6.9936,6.9282,6.8504,6.8335,6.8402,6.8673,6.8504,6.8571,6.935,6.9045,6.8504,6.7996,6.7286,6.6812,6.6812,6.7692,6.8538,6.9045,6.9992,7.077,7.1278,7.1312,7.1312,7.1312,7.1312,7.1312,7.1312,7.1312,7.1312,7.1312,7.1312,7.1312,7.1312,7.1312,7.1312,7.1312,7.1312,7.1312,6.9237,7.0183,7.0587,7.2034,7.2475,7.2233,7.1255,7.1063,7.0803,6.9813,6.907,6.8573,6.8433,6.8469,6.794,6.6222,6.5968,6.542,6.382,6.3599,6.3599,6.3632,6.3599,6.3565,6.3565,6.4241,0.0,6.6858,0.0,6.8572,6.9601,7.0468,7.0995,7.1095,7.1981,7.2467,7.2496,7.2496,7.2467,7.2438,7.2467,7.2496,7.2496,7.2532,7.2973,7.3707,7.3744,7.4221,7.4955,7.4955,7.5432,7.6166,7.6166,7.6613,7.7212,7.7212,7.6735,7.5898,7.5135,7.4902,7.5072,7.5849,7.5434,7.4779,7.5467,7.4976,7.4196,7.4158,7.412,7.3928,7.2962,7.2714,7.2326,7.0629,7.0263,7.0026,6.9316,6.9147,6.9383,7.0094,6.9722,6.9485,7.0195,6.9045,6.803,6.803,6.7354,6.6846,6.6812,6.8132,6.9045,6.9113,7.0398,7.1278,7.1312,7.1312,7.1312,7.1312,7.1312,7.1312,7.1312,7.1312,7.1312,7.1312,7.1312,7.1312,7.1312,7.1312,7.1312,7.1312,7.1312,7.1312,7.0404,7.1431,7.1801,7.1562,7.1884,7.1882,7.0407,7.0485,7.0486,6.9175,6.8751,6.8046,6.6176,6.6764,6.6913,6.5249,6.5431,6.5617,6.5196,6.4681,6.4512,6.5053,6.4647,6.4343,6.4343,6.4986,0.0,0.0,6.6412,6.7582,6.8534,6.88,6.9601,7.1027,7.1318,7.1794,7.2496,7.2496,7.213,7.148,7.2167,7.2496,7.2532,7.312,7.3487,7.3707,7.4331,7.5065,7.5799,7.5799,7.6276,7.698,7.698,7.6642,7.6161,7.6161,7.5576,7.4726,7.4512,7.505,7.5819,7.5883,7.5704,7.5258,7.3934,7.3412,7.3044,7.2313,7.2056,7.2004,7.1776,7.1688,7.1566,7.112,7.1041,7.0838,7.006,6.9925,7.0128,7.0872,7.1312,7.1616,7.1819,7.0601,6.9586,6.9586,6.847,6.7421,6.688,6.7624,6.8436,6.9045,6.9925,7.0703,7.1278,7.1312,7.1312,7.1312,7.1312,7.1312,7.1312,7.1312,7.1312,7.1312,7.1312,7.1312,7.1312,7.1312,7.1312,7.1312,7.1312,7.1312,7.0165,7.1151,7.1633,7.1103,7.1507,7.1516,6.9487,6.9337,6.912,6.7208,6.6577,6.5942,6.4546,6.522,6.5607,6.4322,6.5019,6.5561,6.5256,6.5121,6.5222,6.5628,6.5324,6.5087,6.5087,6.5459,6.5527,6.5121,6.617,6.7029,6.7582,6.799,6.8688,6.9778,7.0263,7.0734,7.1291,7.1291,7.1031,7.0501,7.1031,7.1436,7.1765,7.2231,7.2778,7.3465,0.0,7.4549,7.5308,7.5308,7.5562,7.5959,7.5959,7.5614,7.512,7.512,7.4794,7.4272,7.4272,7.4726,7.5277,7.5191,7.483,7.4272,7.3131,7.2498,7.2013,7.1457,7.1312,7.1312,7.1312,7.1312,7.1312,7.1312,7.1312,7.121,7.077,7.0669,7.0804,7.1244,7.2157,7.2766,7.2462,7.1718,7.0939,7.0297,6.918,6.803,6.6948,6.7455,6.8199,6.9011,6.9755,7.05,7.1244,7.1312,7.1312,7.1312,7.1312,7.1312,7.1312,7.1312,7.1312,7.1312,7.1312,7.1312,7.1312,7.1312,7.1312,7.1312,7.1312,7.1312,6.9423,7.0309,7.0768,7.0801,7.1327,7.1169,6.8609,6.8098,6.7443,6.4986,6.3971,6.3497,6.3396,6.3971,6.4275,6.3734,6.4783,6.5493,6.4986,6.5425,6.5865,6.5967,6.5899,6.5865,6.5967,6.5967,6.5967,6.5967,6.6576,6.6914,6.6812,6.7582,6.8068,6.8189,6.9273,6.9778,6.9671,6.9884,6.992,6.9811,6.992,7.0309,7.0946,7.1052,7.1831,7.3104,7.3211,7.3671,7.4272,7.4272,7.4272,7.4272,7.4272,7.4196,7.4082,7.4082,7.4005,7.3889,7.3889,7.3889,7.3889,7.4043,7.3532,7.2756,7.2666,7.1969,7.1312,7.1312,7.1312,7.1312,7.1312,7.1312,7.1267,7.1052,7.1007,7.0961,7.0791,7.0983,7.1153,7.1267,7.2428,7.3092,7.2233,7.1963,7.1457,7.0243,6.9299,6.8263,6.7075,6.759,6.8335,6.9045,6.9857,7.0601,7.1278,7.1312,7.1312,7.1312,7.1312,7.1312,7.1312,7.1312,7.1312,7.1312,7.1312,7.1312,7.1312,7.1312,7.1312,7.1312,7.1312,7.1222,7.0344,7.0698,7.0764,7.0562,7.1092,7.0845,6.7762,6.7513,6.7165,6.4282,6.3599,6.3328,6.2685,6.3193,6.3869,6.4343,6.5121,6.5865,6.6373,6.6542,6.6846,6.7455,6.6981,6.6846,6.7455,6.7523,0.0,0.0,6.7624,6.7455,6.6846,6.6946,6.7414,6.815,6.9765,7.0263,6.9428,7.0822,7.1139,7.0367,7.1139,7.1617,7.1722,7.2395,7.2857,7.314,7.3777,0.0,7.4272,7.4272,7.4272,7.4272,7.4272,7.3772,7.305,7.305,7.254,7.1786,7.1786,7.1786,7.196,7.2797,7.2962,7.2666,7.1786,7.1412,7.1312,7.1312,7.1312,7.1312,7.1312,7.1312,7.1007,6.9822,6.9585,6.9265,6.8157,6.9256,7.0648,7.1187,7.1988,7.2174,7.087,6.9651,6.8942,6.932,6.7718,6.6789,6.7597,6.8402,6.8944,6.9079,7.0331,7.1176,7.1312,7.1312,7.1312,7.1312,7.1312,7.1312,7.1312,7.1312,7.1312,7.1312,7.1312,7.1312,7.1312,7.1312,7.1312,7.1312,7.1312,7.0699,6.9184,6.9911,7.0441,7.0393,7.0909,7.0644,6.7514,6.7083,6.6508,6.3531,6.2922,6.2821,6.2448,6.299,6.3632,6.3971,6.4952,6.5797,6.617,6.6576,6.6948,6.7286,6.7015,6.6948,6.7286,6.7658,6.7895,6.7895,6.8301,6.8199,6.7421,6.7387,6.7776,6.8617,6.9492,6.9698,6.9275,7.0043,7.0215,6.9788,7.0215,7.0632,7.1047,7.1434,7.1814,7.2154,7.2576,7.2749,7.2749,7.2749,7.2749,7.2749,7.2749,7.2448,7.2013,7.2013,7.1732,7.1312,7.1312,7.1312,7.1401,7.1873,7.2013,7.196,7.1457,7.1312,7.1312,7.1312,7.1312,7.1312,7.1312,7.1312,7.0961,6.9537,6.865,6.7974,6.7317,6.7981,6.8795,6.909,6.9762,7.0059,6.9346,6.8986,6.8661,6.8189,6.7522,6.6984,6.6845,6.7809,6.847,6.847,6.9113,6.9857,7.0669,7.0737,7.1075,7.1819,7.1887,7.2056,7.2428,7.2428,7.2259,7.1887,7.1887,7.1332,7.0216,7.0928,7.0528,6.9169,6.9902,6.964,6.8301,6.9282,7.0229,7.0398,7.0872,7.05,6.7286,6.6576,6.5696,6.255,6.1907,6.1941,6.211,6.2651,6.3159,6.3463,6.4613,6.5493,6.5662,6.6339,6.6812,6.6812,6.6812,6.672,6.6641,6.7429,0.0,6.7719,6.8442,6.8639,6.8166,6.8166,6.8436,6.9079,6.9248,6.935,6.935,6.9485,6.9586,6.9586,6.9586,6.9857,7.0432,7.0432,7.0737,7.1312,7.1312,7.1312,7.1312,7.1312,7.1312,7.1312,7.1312,7.1312,7.1312,7.1312,7.1312,7.1312,7.1312,7.1312,7.1312,7.1312,7.1312,7.1312,7.1312,7.1312,7.1312,7.1312,7.1312,7.1312,7.1312,7.1052,7.0436,6.8699,6.7317,6.6417,6.6699,6.6751,6.6803,6.7113,6.7696,6.7976,6.7662,6.8108,6.8076,6.6942,6.6914,6.6711,6.5839,6.6623,6.7281,6.7281,6.78,6.8707,7.006,7.0195,7.0715,7.1892,7.2257,7.2561,7.3036,7.3023,7.2754,7.2182,7.1747,7.0652,6.8977,6.9921,6.9298,6.7247,6.8419,6.846,6.9586,7.0094,7.0364,7.1041,7.1278,7.0331,6.6643,6.5797,6.4749,6.1061,6.0317,6.052,6.1264,6.1467,6.1941,6.3294,6.4174,6.4918,6.5595,6.6339,6.6812,6.6812,6.6812,6.6589,6.6097,6.7188,6.7699,6.7235,6.7701,6.8301,6.8944,6.8977,6.9011,6.9113,6.9755,7.0094,7.0094,7.077,7.1109,7.1109,7.1109,7.1142,7.121,7.121,7.1244,7.1312,7.1312,0.0,0.0,7.1312,7.1312,7.1312,7.1312,7.1312,7.1312,7.1312,7.1312,7.1312,7.1312,7.1312,7.1312,7.1312,7.1312,7.1312,7.1312,7.1312,7.1312,7.1312,7.1312,7.1312,7.1312,7.0356,6.8748,6.6101,6.4457,6.3789,6.5032,6.5274,6.5674,6.6958,6.7279,6.693,6.5638,6.5483,6.5483,6.5305,6.4262,6.388,6.502,6.519,6.518,6.518,6.7456,6.9316,7.0128,7.0195,7.0241,7.04,7.1647,7.2156,7.1507,7.1491,7.1458,7.1392,6.9585,6.8479,6.826,6.7824,6.7419,6.7247,6.7971,6.724,6.9248,7.0195,7.0939,7.1244,7.0635,6.9214,6.6339,6.5019,6.3565,6.0689,6.0114,6.0351,6.1163,6.0892,6.1061,6.2584,6.3091,6.3531,6.4275,6.5392,6.5851,6.51,6.6051,6.6119,6.4341,0.0,6.6514,6.5998,6.6872,6.759,6.789,6.8695,6.9316,6.9755,7.0466,7.0872,7.0872,7.1176,7.1312,7.1312,7.1312,7.1312,7.1312,7.1312,7.1312,7.1312,7.1312,0.0,0.0,7.1312,7.1312,7.1312,7.1312,7.1312,7.1312,7.1312,7.1312,7.1312,7.1312,7.1312,7.1312,7.1312,7.1312,7.1312,7.1312,7.1312,7.1312,7.1312,7.1312,7.1098,7.0263,6.8405,6.6438,6.5382,6.404,6.3222,6.3789,6.3902,6.404,6.4623,6.4734,6.4568,6.4015,6.3902,6.3902,6.3902,6.3401,6.3223,6.3745,6.3787,6.3764,6.3764,6.6135,6.803,6.8741,6.8484,6.8798,7.0124,7.0403,7.0805,7.1322,7.1355,7.116,7.0707,6.9872,6.8606,6.6923,6.7493,6.6943,6.5288,6.6449,6.6499,6.9147,7.0364,7.1312,7.1312,6.9939,6.8011,6.585,6.3964,6.2018,5.9869,5.9438,5.9674,6.0486,6.0317,6.052,6.1839,6.2144,6.2441,6.3139,6.4027,6.4353,6.3661,6.4828,6.4811,6.2634,6.3709,6.4625,6.4848,6.5828,6.6529,6.676,6.8026,6.9079,6.9857,7.0601,7.0973,7.0973,7.121,7.1312,7.1312,7.1312,7.1312,7.1312,7.1312,7.1312,7.1312,7.1312,0.0,0.0,7.1312,7.1312,7.1312,7.1312,7.1312,7.1312,7.1312,7.1312,7.1312,7.1312,7.1312,7.1312,7.1312,7.1312,7.1312,7.1312,7.1312,7.1222,7.0791,7.0389,6.976,6.8355,6.6543,6.5032,6.4623,6.3789,6.3079,6.3079,6.3079,6.3079,6.3079,6.3079,6.3079,6.3079,6.3079,6.3079,6.3079,6.2693,6.2434,6.2434,6.2422,6.239,6.239,6.4368,6.5946,6.6724,6.6601,6.7199,6.8863,6.9206,6.9755,7.0696,7.0759,7.0505,6.9998,6.9178,6.7859,6.6051,6.6651,6.6035,6.4306,6.5532,6.6024,6.9755,7.0737,7.1312,7.1312,6.9252,6.6853,6.5008,6.2549,6.0125,5.8268,5.7915,5.8152,5.8896,5.9607,6.0385,6.1197,6.1532,6.1946,6.2618,6.2288,6.2299,6.2956,6.3052,6.2487,6.1142,6.104,6.1878,6.3964,6.4621,0.0,6.5956,6.7221,6.8267,6.9079,6.9823,7.0195,7.0195,7.0939,7.1312,7.1312,7.1312,7.1312,7.1312,7.1312,7.1312,7.1312,0.0,0.0,0.0,7.1312,7.1312,7.1312,7.1312,7.1312,7.1312,7.1312,7.1312,7.1312,7.1312,7.1312,7.1312,7.1312,7.1312,7.1312,7.1312,7.1312,7.1007,6.9633,6.8256,6.6906,6.5544,6.5111,6.4758,6.3451,6.3137,6.3079,6.3079,6.3079,6.3079,6.3079,6.3079,6.3079,6.3079,6.3079,6.3079,6.3079,6.1942,6.1104,6.1104,6.1027,6.0989,6.0989,6.2242,6.3308,6.4062,6.4717,6.5401,6.612,6.8093,6.9269,6.9255,6.9201,6.9201,6.9201,6.6456,6.5353,6.5981,6.4694,6.4336,6.5024,6.5682,6.5981,6.4629,6.6179,6.7418,6.6073,6.4398,6.2607,6.1066,5.983,5.8584,5.7061,5.7335,5.8118,5.8863,5.8795,5.9039,6.0462,6.0315,6.0335,6.1232,6.2026,6.2091,6.0989,6.0568,6.0515,6.0969,0.0,5.9955,6.0613,6.1671,6.2746,6.3899,6.5186,6.6611,6.8224,6.9045,6.9688,7.0195,7.0432,7.0804,7.1312,7.1312,7.1312,7.1312,7.1312,7.1312,0.0,0.0,0.0,7.1312,7.1312,7.1312,7.1312,7.1312,7.1312,7.1312,7.1312,7.1312,7.1312,7.1312,7.1312,7.1312,7.1312,7.1312,7.1098,7.017,6.9822,6.9585,6.8206,6.6803,6.562,6.5219,6.4401,6.3649,6.3164,6.3079,6.3079,6.3079,6.3079,6.3079,6.3079,6.3079,6.3079,6.3079,6.3079,6.3079,6.3079,6.1972,6.1104,6.1104,6.0289,5.9705,5.9705,6.0075,6.1144,6.3195,6.3565,6.4171,6.5249,6.6006,6.6744,6.7668,6.7729,6.7729,6.7729,6.6793,6.6251,6.6011,6.5592,6.5473,6.5712,6.637,6.643,6.1395,6.3358,6.4705,6.3466,6.1551,5.974,5.9036,5.7731,5.644,5.5758,5.6126,5.679,5.7255,5.7188,5.7417,5.8456,5.8313,5.855,5.987,6.0599,6.078,6.0031,5.9432,5.9392,0.0,5.9576,5.9099,5.9099,6.0276,6.1344,6.2193,6.3497,6.5008,6.6698,6.7984,6.9011,6.9755,7.006,7.0567,7.1312,7.1312,7.1312,7.1312,7.1312,7.1312,0.0,0.0,7.1312,0.0,7.1312,7.1312,7.1312,7.1312,7.1312,7.1312,7.1312,7.1312,7.1312,7.1312,7.1312,7.1222,7.0699,7.017,6.949,6.8107,6.7673,6.747,6.6647,6.5436,6.4346,6.4346,6.3762,6.3079,6.3079,6.3079,6.3079,6.3079,6.3079,6.3079,6.3079,6.3079,6.3079,6.3079,6.3079,6.3079,6.3079,6.1972,6.1104,6.1104,5.9937,5.9099,5.9099,5.9099,5.9827,6.175,6.2161,6.2975,6.4509,6.4865,6.5622,6.6939,6.6999,6.6999,6.6999,6.6759,6.655,6.637,6.637,6.637,6.64,6.6789,6.6759,0.0,6.1547,6.2652,6.2492,6.0153,5.7963,5.831,5.6077,0.0,5.438,5.4547,5.4589,5.4653,5.5207,5.5613,5.5687,5.5875,5.6634,5.8591,5.8538,5.874,5.9997,5.9548,5.9099,5.9099,5.9099,5.9099,5.9099,6.0202,6.0887,6.0989,6.2193,6.3449,6.4733,6.6698,6.8113,6.9011,6.9755,7.05,7.1244,7.1278,7.1312,7.1312,7.1312,7.1312,0.0,0.0,7.1312,7.1312,7.1312,7.1312,7.1312,7.1312,7.1312,7.1312,7.1312,7.1222,7.1143,7.1143,7.1098,7.0791,6.949,6.8124,6.6803,6.549,6.5111,6.5056,6.4978,6.404,6.3079,6.3079,6.3079,6.3079,6.3079,6.3079,6.3079,6.3079,6.3079,6.3079,6.3079,6.3079,6.3079,6.3079,6.3079,6.3049,6.3019,6.1942,6.1104,6.1044,5.9907,5.9099,5.9099,5.9099,5.9368,6.0027,6.0775,6.2002,6.3887,6.4695,6.5652,6.6939,6.6999,6.6999,6.6999,6.64,6.637,6.6999,6.6999,6.6999,6.6999,6.6999,6.6999,5.4027,0.0,5.7418,5.5906,5.4995,5.4286,0.0,5.3837,5.3782,5.3377,5.3999,5.4749,5.5293,5.5101,5.5091,5.5729,5.5922,5.6467,5.8058,5.9075,5.9937,6.0775,5.9817,5.9099,5.9099,5.9099,5.9099,5.9099,5.9392,5.997,6.0938,6.1294,6.2094,6.3402,6.4852,6.6456,6.8166,6.8944,6.9722,7.0466,7.1041,7.1312,7.1312,7.1312,7.1312,0.0,0.0,7.1312,7.1312,7.1312,7.1312,7.1312,7.1312,7.1312,7.1312,7.1312,7.062,6.968,6.968,6.9024,6.8107,6.7774,6.6699,6.5544,6.5219,6.5111,6.4868,6.3845,6.3337,6.3079,6.3079,6.3079,6.3079,6.3079,6.3079,6.3079,6.3079,6.3079,6.3079,6.3079,6.3079,6.3079,6.3079,6.3079,6.2899,6.2391,6.1642,6.0924,6.0386,5.9608,5.9099,5.9099,5.9099,5.9368,6.0027,6.1164,6.248,6.3917,6.5114,6.6131,6.6969,6.6999,6.6999,6.6999,6.6849,6.6819,6.6999,6.6999,6.6999,6.6999,6.6999,6.6999,5.1738,5.3451,5.4988,5.3909,5.3414,5.3084,5.2725,5.2648,5.2536,5.217,5.262,5.3126,5.3499,5.4058,5.4344,5.4216,5.5719,5.7537,5.9213,6.0386,6.1044,6.1104,6.0206,5.9428,0.0,5.9099,5.9099,5.9099,5.9099,5.9392,6.0097,6.015,6.0743,6.2045,6.2747,6.4384,6.6968,6.8412,6.9451,7.0195,7.0973,7.0961,7.0309,7.0309,6.9996,0.0,0.0,6.976,7.0309,6.9666,7.017,7.1222,7.0574,7.0309,7.0309,7.0309,6.949,6.8306,6.8306,6.7368,6.6259,6.6259,6.5274,6.4209,6.4209,6.4209,6.404,6.3279,6.3079,6.3079,6.3079,6.3079,6.3079,6.3079,6.3079,6.3079,6.3079,6.3079,6.3079,6.3079,6.3079,6.3079,6.3079,6.3079,6.2839,6.2181,6.1523,6.0864,6.0176,5.9518,5.9099,5.9099,5.9099,5.9368,6.0027,6.1313,6.263,6.3917,6.5263,6.6311,6.6969,6.6999,6.6999,6.6999,6.6999,6.6999,6.6999,6.6999,6.6999,6.6999,6.6999,6.6999,5.1439,5.2845,5.4132,5.3832,5.3384,5.2995,5.2905,5.2007,5.1229,5.1229,5.1229,5.1349,5.1738,5.3054,5.3803,5.3054,5.5957,5.8949,6.0835,6.1583,6.1732,6.1194,6.0416,0.0,5.9159,5.9099,5.9099,5.9099,5.9099,5.9099,5.9099,5.9099,5.9576,6.0661,6.0918,6.2347,6.5204,6.748,6.8897,6.9424,7.0377,7.0163,6.8894,6.8894,6.8273,6.7164,0.0,0.0,6.8797,6.7673,6.8552,7.0528,6.9361,6.8894,6.8894,6.8894,6.8024,6.6855,6.6679,6.5781,6.4813,6.4813,6.4071,6.3079,6.3079,6.3079,6.3079,6.3079,6.3079,6.3079,6.3079,6.3079,6.3079,6.3079,6.3079,6.3079,6.3079,6.3079,6.3079,6.3079,6.3079,6.3079,6.3079,6.3079,6.2839,6.2181,6.1523,6.0864,6.0176,5.9518,5.9099,5.9099,5.9099,5.9368,6.0027,6.1313,6.26,6.3797,6.5203,6.6311,6.6969,6.6999,6.6999,6.6999,6.6999,6.6999,6.6999,6.6999,6.6999,6.6999,6.6999,6.6999,5.2426,5.3533,5.3803,5.2097,5.2007,5.2187,5.1648,5.1379,5.1229,5.1229,5.1229,5.1917,5.4162,5.3892,5.3982,5.6017,5.7812,5.9458,6.0924,6.1194,6.1224,6.1134,0.0,5.9219,5.9129,5.9099,5.9099,5.9099,5.9099,5.9099,5.9099,5.9099,5.9207,5.9392,6.0432,6.1255,6.1721,6.489,6.6284,6.5918,6.7728,6.824,6.7521,6.7521,6.7368,6.7164,0.0,6.7317,6.747,6.7266,6.7419,6.7806,6.7572,6.7521,6.7521,6.7521,6.6595,6.5274,6.4097,6.3592,6.3394,6.3394,6.3279,6.3079,6.3079,6.3079,6.3079,6.3079,6.3079,6.3079,6.3079,6.3079,6.3079,6.3079,6.3079,6.3079,6.3079,6.3079,6.3079,6.3079,6.3079,6.3079,6.3079,6.3079,6.2839,6.2181,6.1523,6.0864,6.0176,5.9518,5.9099,5.9099,5.9099,5.9368,6.0027,6.1313,6.2421,6.3169,6.4964,6.6311,6.6969,6.6999,6.6999,6.6999,6.6999,6.6999,6.6999,6.6999,6.6999,6.6999,6.6999,6.6999,5.1259,5.2097,5.2546,5.2336,5.3324,5.4341,5.4371,5.4132,5.3803,5.3443,5.3354,5.3743,5.497,5.5538,5.6825,5.9847,6.0236,6.0655,6.2002,6.1882,6.1523,0.0,0.0,5.9488,5.9129,5.9099,5.9099,5.9099,5.9099,5.9099,5.9099,5.9099,5.9099,5.9099,5.9683,5.994,5.994,6.221,6.3898,6.5116,6.6467,6.6694,6.6048,6.6048,6.5674,6.4978,0.0,6.5382,6.5994,6.5274,6.5835,6.7113,6.6365,6.6048,6.5994,6.5219,6.4568,6.3958,6.3337,6.3079,6.3079,6.3079,6.3079,6.3079,6.3079,6.3079,6.3079,6.3079,6.3079,6.3079,6.3079,6.3079,6.3079,6.3079,6.3079,6.3079,6.3079,6.3079,6.3079,6.3079,6.3079,6.3079,6.3079,6.3079,6.272,6.1732,6.1313,6.0745,5.9697,5.9608,5.9638,5.9638,5.9967,6.0326,6.0625,6.1523,6.2839,6.4545,6.5503,6.6311,6.6969,6.6999,6.6999,6.6999,6.6999,6.6999,6.6999,6.6999,6.6999,6.6999,6.6999,6.6999,5.0166,5.0913,5.1768,5.3084,5.4341,5.5538,5.6615,5.6286,5.5718,5.5658,5.5508,5.5568,5.6017,5.7603,5.9668,6.2211,6.1912,6.1762,6.2899,6.251,6.1852,6.1194,6.0505,5.9817,5.9159,5.9099,5.9099,5.9099,5.9099,5.9099,5.9099,5.9099,5.9099,5.9099,5.9099,5.9099,5.9099,6.0045,6.1691,6.3956,6.4957,6.5083,6.4377,6.4531,6.404,6.3079,6.3079,6.3706,6.4568,6.3535,6.4376,6.6154,6.5087,6.4623,6.4512,6.3478,6.3079,6.3079,6.3079,6.3079,6.3079,6.3079,6.3079,6.3079,6.3079,6.3079,6.3079,6.3079,6.3079,6.3079,6.3079,6.3079,6.3021,6.2613,6.2817,6.3021,6.2555,6.2817,6.3079,6.3079,6.3079,6.3079,6.3079,6.3079,6.269,6.1523,6.1224,6.0745,5.9697,5.9877,6.0146,6.0326,6.0805,6.1164,6.1343,6.1942,6.3258,6.5413,6.5682,6.6071,6.6729,6.6909,6.6999,6.6999,6.6999,6.6999,6.6999,6.6999,6.6999,6.6999,6.6999,6.6999,5.0631,5.1618,5.2456,5.3803,5.3294,5.3144,5.5658,5.5269,5.485,5.6585,5.6496,5.6645,5.8501,5.9967,6.0984,6.1224,6.1702,6.2271,6.2989,0.0,6.1852,6.1194,6.0505,5.9817,5.9159,5.9099,5.9099,5.9099,5.9099,0.0,5.9099,5.9099,5.9099,5.9099,5.9099,5.9099,5.9099,5.9207,5.9645,6.0475,6.2319,6.2917,6.2352,6.2952,6.3194,6.3079,6.3079,6.3137,6.3222,6.3137,6.3222,6.3394,6.3279,6.3222,6.3222,6.3137,6.3079,6.3079,6.3079,6.3079,6.3079,6.3079,6.3079,6.3079,6.3079,6.3079,6.3079,6.3079,6.3079,6.3079,6.3079,6.3079,6.2672,6.105,6.191,6.2672,6.105,6.1969,6.3079,6.3079,6.3079,6.3079,6.3079,6.3079,6.2839,6.2121,6.1493,6.1074,6.0984,6.0446,6.0326,6.0984,6.1074,6.1373,6.1972,6.263,6.3318,6.4096,6.4755,6.5383,6.6041,6.667,6.6999,6.6999,6.6999,6.6999,6.6999,6.6999,6.6999,6.6999,6.6999,6.6999,4.9075,5.078,5.2306,5.2845,5.3503,5.476,5.7393,5.7603,5.7573,5.871,5.9099,5.9219,5.9129,6.0864,6.2061,6.1253,6.2002,6.278,6.3049,6.2151,6.1403,6.1134,6.0146,5.9368,5.9129,5.9099,5.9099,0.0,0.0,0.0,5.9099,5.9099,5.9099,5.9099,5.9099,5.9099,5.9099,5.9099,5.9219,5.9488,6.0633,6.1539,6.2121,6.2361,6.269,6.3079,6.3079,6.3079,6.3079,6.3079,6.3079,6.3079,6.3079,6.3079,6.3079,6.3079,6.3079,6.3079,6.3079,6.3079,6.3079,6.3079,6.3079,6.3079,6.3079,6.3079,6.3079,6.3079,6.2292,6.1496,6.1496,6.1496,6.1079,5.938,5.9442,5.9777,5.907,6.0266,6.1496,6.1496,6.235,6.3079,6.3079,6.3079,6.272,6.1642,6.1283,6.0954,6.0535,6.0625,6.0984,6.1642,6.2091,6.245,6.269,6.2929,6.3169,6.3408,6.4425,6.5323,6.5981,6.664,6.6999,6.6999,6.6999,6.6999,6.6999,6.6999,6.6999,6.6999,6.6999,6.6999,4.8775,5.0511,5.2366,5.2995,5.4012,5.5688,5.871,5.9099,5.9219,6.0715,6.0894,6.0565,5.9877,6.1044,6.1972,6.1493,6.2361,6.3079,6.3079,6.2121,6.1343,6.1134,6.0116,5.9338,5.9129,5.9099,0.0,0.0,0.0,0.0,0.0,5.9099,5.9099,5.9099,5.9099,5.9099,5.9099,5.9099,5.9099,5.9129,5.9757,6.0685,6.1792,6.2002,6.245,6.3079,6.3079,6.3079,6.3079,6.3079,6.3079,6.3079,6.3079,6.3079,6.3079,6.3079,6.3079,6.3079,6.3079,6.3079,6.3079,6.3079,6.3079,6.3079,6.3079,6.3079,6.3079,6.3079,6.1851,6.0359,5.9872,5.9749,5.929,5.7596,5.7624,5.7878,5.7305,5.8481,5.9749,5.9749,6.1079,6.2292,6.2292,6.2759,6.269,6.1583,6.1253,6.1014,6.0745,6.0954,6.1433,6.2301,6.281,6.3079,6.3079,6.3079,6.3079,6.3079,6.4096,6.4994,6.5682,6.634,6.6789,6.6999,6.6999,6.6999,6.6999,6.6999,6.6999,6.6999,6.6999,6.6999,5.0166,5.1199,5.2695,5.467,5.47,5.5269,5.9189,5.9069,5.9069,6.2391,6.1493,6.0326,6.0984,6.0565,6.0535,6.1882,6.266,6.3079,6.3079,6.251,6.1852,6.1194,6.0505,5.9817,0.0,0.0,0.0,0.0,0.0,0.0,0.0,5.9099,5.9099,5.9099,5.9099,5.9099,5.9099,5.9099,5.9099,5.9129,5.9787,6.0446,6.1134,6.1792,6.245,6.3079,6.3079,6.3079,6.3079,6.3079,6.3079,6.3079,6.3079,6.3079,6.3079,6.3079,6.3079,6.3079,6.3079,6.3079,6.3079,6.3079,6.3079,6.3079,6.3079,6.3079,6.3079,6.3079,6.1851,6.0116,5.8446,5.7941,5.7496,5.5814,5.6699,5.7496,5.5748,5.679,5.8005,5.8005,5.9352,6.048,6.048,6.1969,6.2839,6.2181,6.1523,6.1373,6.2002,6.1523,6.1642,6.2929,6.3079,6.3079,6.3079,6.3079,6.3079,6.3079,6.3647,6.4306,6.4994,6.5652,6.6311,6.6969,6.6999,6.6999,6.6999,6.6999,6.6999,6.6999,6.6999,6.6999,4.8416,5.084,5.3414,5.2606,5.5059,5.7962,5.9129,5.9099,5.9488,6.1882,6.1912,6.1433,6.1164,6.1702,6.2002,6.1493,6.2331,6.2929,6.245,6.1822,6.1164,6.0475,0.0,0.0,0.0,0.0,0.0,0.0,0.0,0.0,0.0,5.9099,5.9099,5.9099,5.9099,5.9099,5.9099,5.9099,5.9338,5.9787,5.9997,6.0446,6.1134,6.1792,6.245,6.3079,6.3079,6.3079,6.3079,6.3079,6.3079,6.3079,6.3079,6.3079,6.3079,6.3079,6.3079,6.3079,6.3079,6.3079,6.3079,6.3079,6.3079,6.3079,6.3079,6.3079,6.2817,6.1644,6.0055,5.8355,5.6634,5.534,5.4257,5.3742,5.4081,5.4257,5.3742,5.5008,5.6206,5.6206,5.8516,6.048,6.048,6.1969,6.269,6.1583,6.1642,6.1882,6.2061,6.2331,6.266,6.3049,6.3079,6.3079,6.3079,6.3079,6.3079,6.3079,6.3258,6.3857,6.4934,6.5652,6.6311,6.6969,6.6999,6.6999,6.6999,6.6999,6.6999,6.6999,6.6999,6.6999,5.1109,5.3234,5.5269,5.485,5.6735,5.886,5.9368,6.0116,6.0954,6.1912,6.1882,6.1672,6.1523,6.1942,0.0,6.1942,6.257,6.2929,6.254,6.1702,6.0954,0.0,0.0,0.0,0.0,0.0,0.0,0.0,0.0,0.0,0.0,5.9099,5.9099,5.9099,5.9099,5.9099,5.9099,5.9368,5.9697,6.0086,6.0625,6.1104,6.1523,6.1912,6.245,6.3079,6.3079,6.3079,6.3079,6.3079,6.3079,6.3079,6.3079,6.2672,6.2086,6.2086,6.2086,6.1969,6.1287,6.1525,6.1969,6.1287,6.1048,6.1048,6.1048,6.1048,6.0839,5.981,5.8459,5.7077,5.6027,5.4679,5.3457,5.303,5.2929,5.2929,5.2929,5.3674,5.4433,5.4433,5.7149,5.9475,5.9475,6.1525,6.281,6.2002,6.2241,6.2301,6.1762,6.251,6.3079,6.3079,6.3079,6.3079,6.3079,6.3079,6.3079,6.3079,6.3079,6.3528,6.4575,6.4994,6.5652,6.658,6.661,6.6729,6.6999,6.6999,6.6999,6.6999,6.6999,6.6999,5.5927,5.6855,5.7633,5.9458,5.9159,5.871,5.9817,6.1553,6.272,6.2061,6.1583,6.1433,6.1912,6.1613,6.1642,6.272,6.2959,6.2959,0.0,0.0,0.0,0.0,0.0,0.0,0.0,0.0,0.0,0.0,0.0,0.0,0.0,5.9099,5.9099,5.9099,5.9099,5.9129,5.9189,5.9787,6.0146,6.0296,6.1523,6.2121,6.2181,6.2181,6.251,6.3079,6.3079,6.3079,6.3079,6.3079,6.3079,6.3079,6.2933,6.191,6.048,6.0359,6.0298,6.0055,5.8571,5.898,6.0055,5.8564,5.8088,5.8088,5.8143,5.8115,5.8024,5.7897,5.7081,5.6276,5.6142,5.5339,5.431,5.3306,5.308,5.308,5.308,5.303,5.3005,5.3005,5.5565,5.7751,5.7751,6.0598,6.2933,6.2989,6.2989,6.254,6.1373,6.2301,6.3079,6.3079,6.3079,6.3079,6.3079,6.3079,6.3079,6.3079,6.3079,6.3318,6.3887,6.4036,6.4695,6.5981,6.6071,6.64,6.6999,6.6999,6.6999,6.6999,6.6999,6.6999,5.2606,5.5119,5.7992,5.8441,5.9518,6.0416,6.0146,6.0835,6.1343,6.0655,6.1642,6.2391,6.1493,6.2061,6.2421,6.1642,6.1972,0.0,0.0,0.0,0.0,0.0,0.0,0.0,0.0,0.0,0.0,0.0,0.0,0.0,5.9099,5.9099,5.9099,5.9099,5.9099,5.9338,5.9877,6.0027,6.0625,6.1672,6.1942,6.2361,6.2869,6.2869,6.2929,6.3079,6.3079,6.3079,6.3079,6.3079,6.3079,6.2933,6.1585,6.081,6.0359,5.898,5.8571,5.8509,5.8131,5.8257,5.8564,5.8621,5.8631,5.8742,5.9146,5.8953,5.831,5.7034,5.6478,5.6007,5.4628,5.439,5.4511,5.426,5.421,5.421,5.421,5.3858,5.3532,5.3532,5.4853,5.5945,5.5945,5.8793,6.135,6.2189,6.2301,6.2211,6.1912,6.26,6.3079,6.3079,6.3079,6.3079,6.3079,6.3079,6.3079,6.3079,6.3079,6.3139,6.3258,6.4246,6.5173,6.5981,6.652,6.6849,6.6999,6.6999,6.6999,6.6999,6.6999,6.6999,5.4012,5.6047,5.7932,5.9249,6.0595,6.1403,6.0745,6.1104,6.1313,6.0296,6.1164,6.1822,6.0805,6.1463,6.1912,0.0,0.0,0.0,0.0,0.0,0.0,0.0,0.0,0.0,0.0,0.0,0.0,0.0,0.0,5.9099,5.9099,5.9099,5.9099,5.9099,5.9398,5.9727,6.0086,6.0715,6.1403,6.2091,6.2421,6.275,6.3079,6.3079,6.3079,6.3079,6.3079,6.3079,6.3079,6.3079,6.2613,6.1762,6.087,5.9536,5.7949,5.7085,5.679,5.6661,5.5841,5.6103,5.6677,5.6439,5.6357,5.6489,5.7003,5.6976,5.6604,5.5701,5.5632,5.5655,5.4769,5.4938,5.5365,5.5365,5.4938,5.4561,5.4561,5.4336,5.4034,5.3758,5.4825,5.5762,5.5472,5.7596,5.9672,6.0735,6.1145,6.1554,6.2007,6.266,6.3079,6.3079,6.3079,6.3079,6.3079,6.3079,6.3079,6.3079,6.3079,6.3079,6.3079,6.4006,6.4844,6.5533,6.5862,6.637,6.6999,6.6999,6.6999,6.6999,6.6999,6.6999,5.5748,5.7184,5.8052,6.0625,6.1702,6.1912,6.1253,6.1523,6.1613,6.0505,6.0715,6.0864,6.0057,6.0565,0.0,0.0,0.0,0.0,0.0,0.0,0.0,0.0,0.0,0.0,0.0,0.0,0.0,0.0,0.0,5.9099,5.9099,5.9099,5.9099,5.9099,5.9727,6.0146,6.0266,6.1493,6.2151,6.2271,6.281,6.3079,6.3079,6.3079,6.3079,6.3079,6.2759,6.2672,6.2672,6.2672,6.1644,6.0055,6.0055,5.8139,5.5353,5.5049,5.5034,5.4939,5.3511,5.4014,5.5106,5.4271,5.3984,5.411,5.4687,5.4787,5.4712,5.4712,5.5039,5.539,5.539,5.5792,5.6219,5.6219,5.5516,5.4863,5.4863,5.4762,5.4561,5.4084,5.5031,5.5782,5.5591,5.665,5.791,5.8895,5.9896,6.0758,6.1549,6.2487,6.3079,6.3079,6.3079,6.3079,6.3079,6.3079,6.3079,6.3079,6.3079,6.3079,6.3079,6.3558,6.4156,6.4844,6.5084,6.5742,6.6819,6.6939,6.6999,6.6999,6.6999,6.6999,5.1947,5.5418,5.9338,6.1433,6.2032,6.1912,6.1253,6.1194,6.1194,6.1014,6.1044,6.0715,5.9458,0.0,0.0,0.0,0.0,0.0,0.0,0.0,0.0,0.0,0.0,0.0,0.0,0.0,0.0,0.0,5.9099,5.9099,5.9099,5.9099,5.9099,5.9099,5.9727,6.0386,6.0954,6.1732,6.2391,6.2959,6.3049,6.3079,6.3079,6.3079,6.3079,6.3021,6.1525,6.087,6.087,6.087,5.9872,5.8292,5.8292,5.7149,5.5221,5.3742,5.3525,5.393,5.3652,5.4049,5.4764,5.506,5.5164,5.5265,5.5817,5.5666,5.529,5.529,5.534,5.539,5.539,5.5792,5.6219,5.6219,5.6093,5.5993,5.5993,5.5616,5.5265,5.5189,5.4572,5.4533,5.5969,5.5961,5.6122,5.7176,5.9139,6.0309,5.9882,6.1761,6.3079,6.3079,6.3079,6.3079,6.3079,6.3079,6.3079,6.3079,6.3079,6.3079,6.3079,6.3169,6.3498,6.4126,6.5293,6.5951,6.6131,6.67,6.6999,6.6999,6.6999,6.6999,5.2636,5.6226,5.9668,6.2061,6.266,6.257,6.2271,6.1942,6.1672,6.1672,6.1373,6.0805,0.0,0.0,0.0,0.0,0.0,0.0,0.0,0.0,0.0,0.0,0.0,0.0,0.0,0.0,0.0,0.0,5.8276,5.7749,5.7749,5.6934,5.6451,5.6451,5.7397,5.8523,5.9739,6.0735,6.1821,6.3079,6.3079,6.3079,6.3079,6.3079,6.3079,6.2991,6.1258,6.048,6.0419,5.9475,5.8103,5.6504,5.6504,5.5512,5.392,5.3179,5.3256,5.3708,5.3708,5.4084,5.4662,5.5214,5.539,5.5491,5.6043,5.6043,5.5842,5.5842,5.5842,5.5842,5.5842,5.6018,5.6219,5.6219,5.6219,5.6219,5.6219,5.6018,5.5767,5.544,5.4737,5.434,5.4748,5.4603,5.4827,5.5977,5.6959,5.8244,5.9864,6.1024,6.2028,6.3021,6.3079,6.3079,6.3079,6.3079,6.3079,6.3079,6.3079,6.3079,6.3079,6.3079,6.3378,6.3977,6.4964,6.5652,6.6011,6.667,6.6999,6.6999,6.6999,6.6999,5.1964,5.5108,5.7832,6.0832,6.2072,6.266,6.2989,6.269,6.2331,0.0,6.1822,0.0,0.0,0.0,0.0,0.0,0.0,0.0,0.0,0.0,0.0,0.0,0.0,0.0,0.0,0.0,0.0,0.0,5.7384,5.6623,5.6365,5.5119,5.4469,5.4607,5.5491,5.6624,5.8049,5.9244,6.075,6.2438,6.2438,6.2233,6.1792,6.2233,6.2263,6.1908,6.0505,5.9598,5.9104,5.785,5.6337,5.4809,5.5405,5.4573,5.313,5.3281,5.3683,5.4135,5.4135,5.4511,5.5039,5.5465,5.5591,5.5666,5.6093,5.6219,5.6219,5.6219,5.6219,5.6219,5.6219,5.6219,5.6219,5.6219,5.6219,5.6168,5.6043,5.6018,5.5892,5.5465,5.4938,5.4486,5.4185,5.4009,5.4195,5.4827,5.5325,5.6471,5.8918,5.9598,6.0387,6.1673,6.1792,6.1792,6.1792,6.2175,6.2438,6.2438,6.2875,6.3079,6.3079,6.3079,6.3378,6.3977,6.4665,6.5353,6.6011,6.667,6.6999,6.6999,6.6999,6.6999,4.7052,4.9677,5.2607,5.6517,5.9372,6.1553,6.278,6.3049,6.3019,6.3019,6.251,0.0,0.0,0.0,0.0,0.0,0.0,0.0,0.0,0.0,0.0,0.0,0.0,0.0,0.0,0.0,0.0,0.0,5.6736,5.6278,5.5368,5.469,5.4635,5.5127,5.527,5.5635,5.6304,5.7522,5.898,6.06,6.06,5.981,5.832,5.9933,6.0062,5.9026,5.838,5.7213,5.5683,5.5551,5.4567,5.3229,5.5434,5.5167,5.3733,5.4285,5.4838,5.529,5.529,5.5666,5.6118,5.6168,5.6168,5.6168,5.6194,5.6219,5.6219,5.6219,5.6219,5.6219,5.6219,5.6219,5.6219,5.6219,5.6219,5.6068,5.5541,5.544,5.5415,5.539,5.4938,5.4712,5.5214,5.4863,5.4381,5.3872,5.5167,5.6146,5.5762,5.7085,5.8194,5.8257,5.8257,5.8257,5.8257,5.9749,6.06,6.06,6.2175,6.3079,6.3079,6.3079,6.3378,6.3977,6.4665,6.5353,6.6011,6.667,6.6999,6.6999,6.6999,6.6999,4.6712,4.8094,4.9864,5.4219,5.6997,5.9023,6.0757,6.2151,6.3079,6.3079,0.0,0.0,0.0,0.0,0.0,0.0,0.0,0.0,0.0,0.0,0.0,0.0,0.0,0.0,0.0,0.0,0.0,0.0,0.0,5.5142,5.3716,5.2828,5.249,5.2672,5.3036,5.4064,5.5693,5.7915,5.8942,5.8884,5.9606,5.9456,5.8521,5.9484,5.9118,5.7718,5.7504,5.6877,5.5867,5.4773,5.3732,5.3048,5.4148,5.4214,5.3758,5.4361,5.4913,5.539,5.539,5.5742,5.6219,5.6219,5.6219,5.6219,5.6219,5.6219,5.6219,5.6219,5.6219,5.6219,5.6219,5.6219,5.6118,5.5767,5.5691,5.544,5.4511,5.4587,5.4863,5.4863,5.4687,5.4637,5.4838,5.4687,5.4486,5.4285,5.4797,5.5375,5.5879,5.6531,5.7223,5.7906,5.8005,5.8005,5.8005,5.9565,6.048,6.048,6.2175,6.3079,6.3079,6.3079,6.3588,6.4635,6.4904,6.5353,6.6011,6.667,6.6999,6.6999,6.6999,6.6999,4.4361,4.5472,4.7074,5.0969,5.3376,5.5697,5.8935,6.0603,6.1696,6.2872,0.0,0.0,0.0,0.0,0.0,0.0,0.0,0.0,0.0,0.0,0.0,0.0,0.0,0.0,0.0,0.0,0.0,0.0,0.0,0.0,5.2412,5.1681,5.1373,5.1548,5.2101,5.3461,5.5643,5.7157,5.7838,5.771,5.8433,5.8292,5.7411,5.8319,5.7945,5.6565,5.6565,5.6228,5.564,5.4448,5.3783,5.3532,5.4059,5.426,5.4336,5.4913,5.534,5.5666,5.5666,5.5917,5.6219,5.6219,5.6219,5.6219,5.6219,5.6219,5.6219,5.6219,5.6219,5.6219,5.6219,5.6219,5.6068,5.5516,5.5239,5.4863,5.3909,5.4009,5.4285,5.4285,5.4285,5.4336,5.4607,5.4712,5.4787,5.4658,5.4712,5.5031,5.5391,5.5423,5.5636,5.6221,5.6298,5.6298,5.6298,5.785,5.9042,5.9598,6.1258,6.2497,6.3079,6.3079,6.3707,6.4994,6.5024,6.5473,6.634,6.6789,6.6999,6.6999,6.6999,6.6999,0.0,0.0,0.0,4.6486,4.8573,5.1539,5.7312,5.8205,5.8782,6.2195,0.0,0.0,0.0,0.0,0.0,0.0,0.0,0.0,0.0,0.0,0.0,0.0,0.0,0.0,0.0,0.0,0.0,0.0,5.3447,5.2386,5.138,5.1322,5.1574,5.2126,5.2678,5.4006,5.6209,5.5172,5.5453,5.7051,5.7104,5.6167,5.4658,5.6306,5.6504,5.5415,5.5415,5.5114,5.4612,5.4587,5.4587,5.4708,5.5189,5.539,5.5491,5.6018,5.6219,5.6219,5.6219,5.6219,5.6219,5.6219,5.6219,5.6219,5.6219,5.6219,5.6219,5.6219,5.6219,5.6219,5.6219,5.6194,5.6043,5.5491,5.4938,5.4386,5.3808,5.3683,5.3683,5.3683,5.3683,5.3858,5.4436,5.4988,5.5164,5.4662,5.5039,5.4963,5.3858,5.3708,5.3507,5.298,5.2929,5.2929,5.2929,5.4433,5.6114,5.7878,5.9536,6.1258,6.3021,6.3079,6.3707,6.4994,6.5024,6.5682,6.6999,6.6999,6.6999,6.6999,6.6999,6.6999,3.9697,0.0,0.0,0.0,0.0,0.0,0.0,0.0,5.4516,0.0,0.0,0.0,0.0,0.0,0.0,0.0,0.0,0.0,0.0,0.0,0.0,0.0,0.0,0.0,0.0,0.0,0.0,0.0,5.3761,5.2738,5.1405,5.2051,5.2703,5.3231,5.3808,5.4441,5.5058,5.5551,5.5627,5.5312,5.6102,5.6019,5.5236,5.6045,5.6323,5.5993,5.5993,5.5892,5.5717,5.5315,5.5164,5.5164,5.534,5.5641,5.6018,5.6168,5.6219,5.6219,5.6219,5.6219,5.6219,5.6219,5.6219,5.6219,5.6219,5.6219,5.6219,5.6219,5.6219,5.6219,5.6219,5.5917,5.5491,5.4938,5.4361,5.3808,5.3256,5.313,5.313,5.313,5.313,5.3306,5.3858,5.4059,5.4386,5.5064,5.4938,5.4687,5.4361,5.3959,5.3507,5.298,5.2929,5.2929,5.2929,5.4433,5.6114,5.7878,5.9536,6.1258,6.3021,6.3079,6.3707,6.4994,6.5024,6.5682,6.6999,6.6999,6.6999,6.6999,6.6999,6.6999,3.9747,3.9697,4.008,4.1647,0.0,0.0,4.876,5.0512,0.0,0.0,0.0,0.0,0.0,0.0,0.0,0.0,0.0,0.0,0.0,0.0,0.0,0.0,0.0,0.0,0.0,0.0,0.0,5.3549,5.2707,5.21,5.1666,5.2452,5.3281,5.4034,5.4386,5.4787,5.5239,5.5892,5.5892,5.5265,5.5917,5.6043,5.5742,5.6068,5.6219,5.6219,5.6219,5.6219,5.6194,5.5867,5.5742,5.5742,5.5993,5.6118,5.6244,5.647,5.642,5.6219,5.6219,5.6219,5.6219,5.6219,5.6219,5.6219,5.6219,5.6219,5.6219,5.6219,5.6219,5.6219,5.6219,5.5792,5.5239,5.4687,5.4135,5.3557,5.303,5.2929,5.2929,5.2929,5.2929,5.303,5.3331,5.3557,5.4009,5.4913,5.4963,5.4838,5.4587,5.426,5.3758,5.3005,5.2929,5.2929,5.2929,5.381,5.538,5.7878,5.8946,6.0569,6.3021,6.3079,6.3558,6.4575,6.4874,6.5682,6.6999,6.6999,6.6999,6.6999,6.6999,6.6849,3.9898,3.9798,4.0074,4.0899,4.0824,0.0,4.8058,4.9033,5.0212,0.0,0.0,0.0,0.0,0.0,0.0,0.0,0.0,0.0,0.0,0.0,0.0,0.0,0.0,0.0,0.0,5.5035,5.3549,5.2112,5.1011,5.0921,5.2051,5.2578,5.3356,5.4536,5.4561,5.5089,5.6194,5.6219,5.6219,5.6219,5.6219,5.6219,5.6219,5.6219,5.6219,5.6219,5.6219,5.6219,5.6219,5.6219,5.6294,5.6445,5.6872,5.6771,5.6445,5.6872,5.6696,5.6219,5.6219,5.6219,5.6219,5.6219,5.6219,5.6219,5.6219,5.6219,5.6219,5.6219,5.6219,5.6219,5.6219,5.5767,5.5164,5.4687,5.4084,5.3482,5.303,5.2929,5.2929,5.2929,5.2929,5.2929,5.2929,5.3306,5.3808,5.4386,5.4838,5.4963,5.4536,5.4411,5.4009,5.303,5.2929,5.2929,5.2929,5.2929,5.4392,5.7815,5.8005,5.9532,6.2933,6.3079,6.3378,6.3977,6.4755,6.5742,6.6999,6.6999,6.6999,6.6999,6.6999,6.664,4.0199,4.035,4.0852,4.0174,4.0601,0.0,4.2239,4.2674,4.3623,0.0,0.0,0.0,0.0,0.0,0.0,0.0,0.0,0.0,0.0,0.0,0.0,0.0,0.0,0.0,0.0,5.3429,5.2332,5.2024,5.1011,5.0921,5.2051,5.2201,5.298,5.4511,5.4561,5.5089,5.6194,5.6219,5.6219,5.6219,5.6219,5.6219,5.6219,5.6219,5.6219,5.6219,5.6219,5.6219,5.6219,5.6219,5.6746,5.7524,5.7173,5.7248,5.7524,5.7173,5.6696,5.6219,5.6219,5.6219,5.6219,5.6219,5.6219,5.6219,5.6219,5.6219,5.6219,5.6219,5.6219,5.6219,5.6219,5.5465,5.4687,5.4587,5.3808,5.3055,5.2955,5.2929,5.2929,5.2929,5.2929,5.2929,5.2929,5.3005,5.3256,5.3783,5.3607,5.3507,5.3833,5.3507,5.3181,5.2955,5.2929,5.2929,5.2929,5.2929,5.4392,5.7815,5.8005,5.9532,6.2933,6.3079,6.3378,6.3977,6.5203,6.6191,6.6999,6.6999,6.6999,6.6999,6.6999,6.664,4.03,4.0099,4.0526,4.0526,4.0526,0.0,0.0,0.0,4.2785,0.0,0.0,0.0,0.0,0.0,0.0,0.0,0.0,0.0,0.0,0.0,0.0,0.0,0.0,0.0,0.0,5.2642,5.1678,5.0853,5.0521,5.067,5.1222,5.2051,5.3005,5.411,5.4687,5.5365,5.6194,5.6219,5.6219,5.6219,5.6219,5.6219,5.6219,5.6219,5.6219,5.6219,5.6219,5.6219,5.6219,5.6219,5.6872,5.7876,5.7575,5.7474,5.7474,5.7474,5.6922,5.6219,5.6219,5.6219,5.6219,5.6219,5.6219,5.6219,5.6219,5.6219,5.6219,5.6219,5.6219,5.6143,5.5867,5.5189,5.4486,5.421,5.3507,5.2929,5.2929,5.2929,5.2929,5.2929,5.2929,5.2929,5.2929,5.2929,5.3105,5.3632,5.3482,5.3406,5.3658,5.3482,5.3206,5.2955,5.2929,5.2929,5.2929,5.2929,5.4392,5.7815,5.8005,5.9532,6.2933,6.3079,6.3378,6.3977,6.4994,6.5832,6.649,6.6819,6.6999,6.6999,6.6999,6.646,4.0852,4.04,4.0727,0.0,0.0,4.0927,0.0,0.0,0.0,0.0,0.0,0.0,0.0,0.0,0.0,0.0,0.0,0.0,0.0,0.0,0.0,0.0,0.0,0.0,0.0,5.1335,5.068,4.9694,4.9715,5.0017,5.0544,5.1975,5.3105,5.3858,5.4863,5.5641,5.6194,5.6219,5.6219,5.6219,5.6219,5.6219,5.6219,5.6219,5.6219,5.6219,5.6219,5.6219,5.6219,5.6319,5.6972,5.7901,5.7901,5.76,5.7248,5.7725,5.7173,5.6219,5.6219,5.6219,5.6219,5.6219,5.6219,5.6219,5.6219,5.6219,5.6219,5.6219,5.6219,5.6093,5.5541,5.4988,5.4411,5.3833,5.3306,5.2929,5.2929,5.2929,5.2929,5.2929,5.2929,5.2929,5.2929,5.2929,5.308,5.3482,5.3557,5.3557,5.3557,5.3557,5.3381,5.298,5.2929,5.2929,5.2929,5.2929,5.4392,5.7815,5.8005,5.9532,6.2933,6.3079,6.3378,6.3977,6.4545,6.5233,6.6011,6.655,6.6879,6.6999,6.6999,6.6281,0.0,0.0,0.0,0.0,4.1605,0.0,0.0,0.0,4.0752,4.0576,0.0,0.0,0.0,0.0,0.0,0.0,0.0,0.0,0.0,0.0,0.0,0.0,0.0,0.0,0.0,0.0,4.8195,4.949,4.8284,4.8586,5.1046,5.1825,5.2904,5.4411,5.5064,5.5641,5.6194,5.6219,5.6219,5.6219,5.6219,5.6219,5.6219,5.6219,5.6219,5.6219,5.6219,5.6219,5.6244,5.6746,5.7323,5.7901,5.7901,5.7851,5.7801,5.7876,5.7173,5.6219,5.6219,5.6219,5.6219,5.6219,5.6219,5.6219,5.6219,5.6219,5.6219,5.6219,5.6219,5.6093,5.5541,5.4988,5.4411,5.3833,5.3306,5.2929,5.2929,5.2929,5.2929,5.2929,5.2929,5.2929,5.2929,5.2929,5.2955,5.3005,5.3005,5.3005,5.3005,5.3005,5.3005,5.2929,5.2929,5.2929,5.2929,5.2929,5.4392,5.7815,5.8005,5.9532,6.2933,6.3079,6.3378,6.3977,6.4066,6.4755,6.6011,6.6071,6.643,6.6999,6.6999,6.6281,0.0,0.0,0.0,0.0,0.0,0.0,4.1003,0.0,4.0074,0.0,0.0,0.0,0.0,0.0,0.0,0.0,0.0,0.0,0.0,0.0,0.0,0.0,0.0,0.0,0.0,0.0,0.0,0.0,0.0,4.8661,5.1147,5.2101,5.303,5.4034,5.4938,5.5641,5.6194,5.6219,5.6219,5.6219,5.6219,5.6219,5.6219,5.6219,5.6219,5.6219,5.6219,5.6219,5.6244,5.6796,5.7374,5.7926,5.8252,5.8177,5.7901,5.7901,5.7173,5.6219,5.6219,5.6219,5.6219,5.6219,5.6219,5.6219,5.6219,5.6219,5.6219,5.6219,5.6219,5.6018,5.5139,5.4737,5.4336,5.3457,5.308,5.2929,5.2929,5.2929,5.2929,5.2929,5.2929,5.2929,5.2929,5.2929,5.2929,5.2929,5.2929,5.2929,5.2929,5.2929,5.2929,5.2929,5.2929,5.2929,5.2929,5.2929,5.4392,5.7815,5.9839,6.1614,6.3021,6.3079,6.3199,6.3468,6.3827,6.4485,6.5443,6.5832,6.634,6.6969,6.661,6.6131,4.4048,0.0,0.0,0.0,0.0,0.0,0.0,0.0,0.0,0.0,0.0,0.0,0.0,0.0,0.0,0.0,0.0,0.0,0.0,0.0,0.0,0.0,0.0,0.0,0.0,0.0,0.0,0.0,0.0,0.0,5.1348,5.2402,5.3181,5.3683,5.4787,5.5591,5.5993,5.6143,5.6219,5.6219,5.6219,5.6219,5.6219,5.6219,5.6219,5.6219,5.6219,5.6219,5.6269,5.6972,5.7524,5.7951,5.8504,5.8378,5.7901,5.7901,5.7173,5.6219,5.6219,5.6219,5.6219,5.6219,5.6219,5.6219,5.6219,5.6219,5.6219,5.6219,5.6093,5.5767,5.4813,5.4436,5.4084,5.3155,5.2929,5.2929,5.2929,5.2929,5.2929,5.2929,5.2929,5.2929,5.2929,5.2929,5.2929,5.2929,5.2929,5.2929,5.2929,5.2929,5.2929,5.2929,5.2929,5.2929,5.2929,5.2929,5.4392,5.7815,6.1228,6.3079,6.3079,6.3079,6.3079,6.3079,6.3528,6.4066,6.4755,6.5413,6.5981,6.643,6.6131,6.6011,0.0,0.0,0.0,4.2253,0.0,0.0,0.0,0.0,4.11,0.0,0.0,0.0,0.0,0.0,4.125,4.125,0.0,0.0,0.0,0.0,0.0,0.0,0.0,0.0,0.0,0.0,0.0,0.0,0.0,0.0,5.185,5.2628,5.3181,5.3683,5.4787,5.539,5.5415,5.5942,5.6219,5.6219,5.6219,5.6219,5.6219,5.6219,5.6219,5.6219,5.6219,5.6219,5.6294,5.7399,5.7876,5.7951,5.8504,5.8378,5.7901,5.7901,5.7173,5.6219,5.6219,5.6219,5.6219,5.6219,5.6219,5.6219,5.6219,5.6219,5.6219,5.6219,5.5817,5.529,5.4712,5.416,5.3582,5.3055,5.2929,5.2929,5.2929,5.2929,5.2929,5.2929,5.2929,5.2929,5.2929,5.2929,5.2929,5.2929,5.2929,5.2929,5.2929,5.2929,5.2929,5.2929,5.2929,5.2929,5.2929,5.2929,5.4392,5.7815,6.1228,6.3079,6.3079,6.3079,6.3079,6.3079,6.3109,6.3408,6.4036,6.4725,6.5054,6.5114,6.5712,6.6011,0.0,0.0,4.8862,4.4593,0.0,0.0,0.0,0.0,0.0,0.0,0.0,0.0,0.0,0.0,4.1175,4.0852,0.0,0.0,0.0,0.0,0.0,0.0,0.0,0.0,0.0,0.0,0.0,0.0,0.0,0.0,0.0,5.2829,5.3181,5.3683,5.4436,5.5013,5.539,5.5942,5.6219,5.6219,5.6219,5.6219,5.6219,5.6219,5.6219,5.6219,5.6219,5.642,5.6821,5.7575,5.7901,5.7951,5.8504,5.8152,5.7323,5.7323,5.6846,5.6219,5.6219,5.6219,5.6219,5.6219,5.6219,5.6219,5.6219,5.6219,5.6219,5.6219,5.6068,5.5717,5.4813,5.4411,5.4059,5.313,5.2929,5.2929,5.2929,5.2929,5.2929,5.2929,5.2929,5.2929,5.2929,5.2929,5.2929,5.2929,5.2929,5.2929,5.2929,5.2929,5.2929,5.2929,5.2929,5.2929,5.2929,5.4968,5.679,5.7941,6.1228,6.3079,6.3079,6.3079,6.3079,6.3079,6.3079,6.3378,6.4006,6.4695,6.5263,6.5682,6.5473,6.5592,4.9615,5.0142,0.0,4.6426,4.6075,0.0,4.2434,0.0,0.0,0.0,0.0,0.0,0.0,0.0,0.0,0.0,0.0,0.0,0.0,0.0,0.0,0.0,0.0,0.0,0.0,0.0,0.0,0.0,0.0,0.0,0.0,0.0,5.308,5.3406,5.416,5.4737,5.5089,5.5842,5.6219,5.6219,5.6219,5.6219,5.6219,5.6219,5.6219,5.6219,5.6219,5.652,5.7072,5.765,5.7901,5.7926,5.8303,5.7851,5.7022,5.7022,5.6696,5.6219,5.6219,5.6219,5.6219,5.6219,5.6219,5.6219,5.6219,5.6219,5.6219,5.6219,5.5942,5.5465,5.4737,5.4285,5.3808,5.3105,5.2929,5.2929,5.2929,5.2929,5.2929,5.2929,5.2929,5.2929,5.2929,5.2929,5.2929,5.2929,5.2929,5.2929,5.2929,5.2929,5.2929,5.2929,5.2929,5.2929,5.2929,5.5446,5.7341,5.7941,6.0658,6.2409,6.3079,6.3079,6.3288,6.3767,6.3318,6.3498,6.4366,6.4575,6.4874,6.5293,6.5114,6.5383]}]]